Eleven Point River (Missouri), Ravenden Springs (07072000)

StateMissouriLatestGood (1070 cfs)
RiverEleven Point RiverRatingObservedEstimated
Updated2020-08-14 4:45 (32 minutes ago)Flood - The river is flooding. Obstacles can be treacherous or deadly. The river should be avoided at this stage for casual trips and definitely for the inexperienced. Trips should be attempted only with protective gear and equipment.Flood(none)3035
Discharge1070 cfs (median: 647 cfs)High - The river is high and potentially dangerous, especially for the young and / or inexperienced. Normal stream obstacles are sometimes difficult to navigate. Extended distances can be attempted, but canoe travel may not be advisable.High(none)1402
Height3.78 feetGood - Conditions are ideal for a canoe or kayak. Boats typically will drag on fewer than one-quarter of riffles, if at all, and portages are unnecessary or rare. Normal float lengths can be attempted without a problem.Good(none)1027
TrendFalling (falling over 24 hours)Low - River is low but can still be floated. Some riffles are okay but most come with significant dragging and might need a portage. Float lengths should be reduced to accommodate low flow, dragging, and portages.Low(none)777
USGSExternal icon USGS Site (External icon Google Maps)Poor - River is too low to float comfortably. Most or all riffles will drag or must be portaged and some obstacles (such as slick shelf rock) cause undue problems. Avoid the river at this stage for casual paddling trips.Poor(none)414

Trending Data

Plot Image

Trips for Eleven Point River (Missouri), Ravenden Springs (07072000)

DateStartEndDistanceConditionDischargeHeightFishingDetails

A total of 0 rows are displayed.

Condition Descriptions

Fishing Conditions

Fish Species

Notes

Classic Trip List

The classic River Trips application is still available for use. It is updated with the new system using a data retrofit. It is no longer maintained. The original River Trips application is no longer updated (as of 1 Dec 2016) but can be checked for errors or for the condition of the data before it was converted to the new system.

Gauge Data Table

ObservationHeightDischargeMaximum
Discharge
Minimum
Discharge
Mean
Discharge
P05P10P20P25P50
(Median)
P75P80P90P95
2020-08-14 04:45 3.78 1070 5360 (2016) 281 (1936) 768 353 410 483 506 647 779 892 1080 1560
2020-08-14 03:45 3.79 1080 5360 (2016) 281 (1936) 768 353 410 483 506 647 779 892 1080 1560
2020-08-14 02:45 3.79 1080 5360 (2016) 281 (1936) 768 353 410 483 506 647 779 892 1080 1560
2020-08-14 01:45 3.79 1080 5360 (2016) 281 (1936) 768 353 410 483 506 647 779 892 1080 1560
2020-08-14 00:45 3.79 1080 5360 (2016) 281 (1936) 768 353 410 483 506 647 779 892 1080 1560
2020-08-13 23:45 3.79 1080 2460 (2013) 281 (1936) 736 369 416 490 525 660 799 921 1120 1250
2020-08-13 22:45 3.79 1080 2460 (2013) 281 (1936) 736 369 416 490 525 660 799 921 1120 1250
2020-08-13 21:45 3.79 1080 2460 (2013) 281 (1936) 736 369 416 490 525 660 799 921 1120 1250
2020-08-13 20:45 3.80 1090 2460 (2013) 281 (1936) 736 369 416 490 525 660 799 921 1120 1250
2020-08-13 19:45 3.80 1090 2460 (2013) 281 (1936) 736 369 416 490 525 660 799 921 1120 1250
2020-08-13 18:45 3.80 1090 2460 (2013) 281 (1936) 736 369 416 490 525 660 799 921 1120 1250
2020-08-13 17:45 3.80 1090 2460 (2013) 281 (1936) 736 369 416 490 525 660 799 921 1120 1250
2020-08-13 16:45 3.81 1090 2460 (2013) 281 (1936) 736 369 416 490 525 660 799 921 1120 1250
2020-08-13 15:45 3.81 1090 2460 (2013) 281 (1936) 736 369 416 490 525 660 799 921 1120 1250
2020-08-13 14:45 3.82 1100 2460 (2013) 281 (1936) 736 369 416 490 525 660 799 921 1120 1250
2020-08-13 13:45 3.80 1090 2460 (2013) 281 (1936) 736 369 416 490 525 660 799 921 1120 1250
2020-08-13 12:45 3.80 1090 2460 (2013) 281 (1936) 736 369 416 490 525 660 799 921 1120 1250
2020-08-13 11:45 3.81 1090 2460 (2013) 281 (1936) 736 369 416 490 525 660 799 921 1120 1250
2020-08-13 10:45 3.81 1090 2460 (2013) 281 (1936) 736 369 416 490 525 660 799 921 1120 1250
2020-08-13 09:45 3.81 1090 2460 (2013) 281 (1936) 736 369 416 490 525 660 799 921 1120 1250
2020-08-13 08:45 3.81 1090 2460 (2013) 281 (1936) 736 369 416 490 525 660 799 921 1120 1250
2020-08-13 07:45 3.81 1090 2460 (2013) 281 (1936) 736 369 416 490 525 660 799 921 1120 1250
2020-08-13 06:45 3.82 1100 2460 (2013) 281 (1936) 736 369 416 490 525 660 799 921 1120 1250
2020-08-13 05:45 3.82 1100 2460 (2013) 281 (1936) 736 369 416 490 525 660 799 921 1120 1250
2020-08-13 04:45 3.83 1110 2460 (2013) 281 (1936) 736 369 416 490 525 660 799 921 1120 1250
2020-08-13 03:45 3.83 1110 2460 (2013) 281 (1936) 736 369 416 490 525 660 799 921 1120 1250
2020-08-13 02:45 3.83 1110 2460 (2013) 281 (1936) 736 369 416 490 525 660 799 921 1120 1250
2020-08-13 01:45 3.84 1110 2460 (2013) 281 (1936) 736 369 416 490 525 660 799 921 1120 1250
2020-08-13 00:45 3.85 1120 2460 (2013) 281 (1936) 736 369 416 490 525 660 799 921 1120 1250
2020-08-12 23:45 3.86 1130 3710 (2013) 281 (1936) 730 372 416 489 516 665 890 913 1110 1150
2020-08-12 22:45 3.86 1130 3710 (2013) 281 (1936) 730 372 416 489 516 665 890 913 1110 1150
2020-08-12 21:45 3.88 1140 3710 (2013) 281 (1936) 730 372 416 489 516 665 890 913 1110 1150
2020-08-12 20:45 3.91 1160 3710 (2013) 281 (1936) 730 372 416 489 516 665 890 913 1110 1150
2020-08-12 19:45 3.95 1190 3710 (2013) 281 (1936) 730 372 416 489 516 665 890 913 1110 1150
2020-08-12 18:45 3.99 1220 3710 (2013) 281 (1936) 730 372 416 489 516 665 890 913 1110 1150
2020-08-12 17:45 3.97 1200 3710 (2013) 281 (1936) 730 372 416 489 516 665 890 913 1110 1150
2020-08-12 16:45 3.91 1160 3710 (2013) 281 (1936) 730 372 416 489 516 665 890 913 1110 1150
2020-08-12 15:45 3.87 1130 3710 (2013) 281 (1936) 730 372 416 489 516 665 890 913 1110 1150
2020-08-12 14:45 3.82 1100 3710 (2013) 281 (1936) 730 372 416 489 516 665 890 913 1110 1150
2020-08-12 13:45 3.81 1090 3710 (2013) 281 (1936) 730 372 416 489 516 665 890 913 1110 1150
2020-08-12 12:45 3.81 1090 3710 (2013) 281 (1936) 730 372 416 489 516 665 890 913 1110 1150
2020-08-12 11:45 3.81 1090 3710 (2013) 281 (1936) 730 372 416 489 516 665 890 913 1110 1150
2020-08-12 10:45 3.81 1090 3710 (2013) 281 (1936) 730 372 416 489 516 665 890 913 1110 1150
2020-08-12 09:45 3.82 1100 3710 (2013) 281 (1936) 730 372 416 489 516 665 890 913 1110 1150
2020-08-12 08:45 3.83 1110 3710 (2013) 281 (1936) 730 372 416 489 516 665 890 913 1110 1150
2020-08-12 07:45 3.84 1110 3710 (2013) 281 (1936) 730 372 416 489 516 665 890 913 1110 1150
2020-08-12 06:45 3.83 1110 3710 (2013) 281 (1936) 730 372 416 489 516 665 890 913 1110 1150
2020-08-12 05:45 3.84 1110 3710 (2013) 281 (1936) 730 372 416 489 516 665 890 913 1110 1150
2020-08-12 04:45 3.84 1110 3710 (2013) 281 (1936) 730 372 416 489 516 665 890 913 1110 1150
2020-08-12 03:45 3.85 1120 3710 (2013) 281 (1936) 730 372 416 489 516 665 890 913 1110 1150
2020-08-12 02:45 3.85 1120 3710 (2013) 281 (1936) 730 372 416 489 516 665 890 913 1110 1150
2020-08-12 01:45 3.85 1120 3710 (2013) 281 (1936) 730 372 416 489 516 665 890 913 1110 1150
2020-08-12 00:45 3.86 1130 3710 (2013) 281 (1936) 730 372 416 489 516 665 890 913 1110 1150
2020-08-11 23:45 3.87 1130 4530 (2013) 282 (1941) 737 376 416 494 515 655 785 918 1050 1170
2020-08-11 22:45 3.87 1130 4530 (2013) 282 (1941) 737 376 416 494 515 655 785 918 1050 1170
2020-08-11 21:45 3.87 1130 4530 (2013) 282 (1941) 737 376 416 494 515 655 785 918 1050 1170
2020-08-11 20:45 3.87 1130 4530 (2013) 282 (1941) 737 376 416 494 515 655 785 918 1050 1170
2020-08-11 19:45 3.87 1130 4530 (2013) 282 (1941) 737 376 416 494 515 655 785 918 1050 1170
2020-08-11 18:45 3.85 1120 4530 (2013) 282 (1941) 737 376 416 494 515 655 785 918 1050 1170
2020-08-11 17:45 3.86 1130 4530 (2013) 282 (1941) 737 376 416 494 515 655 785 918 1050 1170
2020-08-11 16:45 3.84 1110 4530 (2013) 282 (1941) 737 376 416 494 515 655 785 918 1050 1170
2020-08-11 15:45 3.83 1110 4530 (2013) 282 (1941) 737 376 416 494 515 655 785 918 1050 1170
2020-08-11 14:45 3.81 1090 4530 (2013) 282 (1941) 737 376 416 494 515 655 785 918 1050 1170
2020-08-11 13:45 3.79 1080 4530 (2013) 282 (1941) 737 376 416 494 515 655 785 918 1050 1170
2020-08-11 12:45 3.80 1090 4530 (2013) 282 (1941) 737 376 416 494 515 655 785 918 1050 1170
2020-08-11 11:45 3.79 1080 4530 (2013) 282 (1941) 737 376 416 494 515 655 785 918 1050 1170
2020-08-11 10:45 3.79 1080 4530 (2013) 282 (1941) 737 376 416 494 515 655 785 918 1050 1170
2020-08-11 09:45 3.79 1080 4530 (2013) 282 (1941) 737 376 416 494 515 655 785 918 1050 1170
2020-08-11 08:45 3.79 1080 4530 (2013) 282 (1941) 737 376 416 494 515 655 785 918 1050 1170
2020-08-11 07:45 3.79 1080 4530 (2013) 282 (1941) 737 376 416 494 515 655 785 918 1050 1170
2020-08-11 06:45 3.79 1080 4530 (2013) 282 (1941) 737 376 416 494 515 655 785 918 1050 1170
2020-08-11 05:45 3.79 1080 4530 (2013) 282 (1941) 737 376 416 494 515 655 785 918 1050 1170
2020-08-11 04:45 3.80 1090 4530 (2013) 282 (1941) 737 376 416 494 515 655 785 918 1050 1170
2020-08-11 03:45 3.79 1080 4530 (2013) 282 (1941) 737 376 416 494 515 655 785 918 1050 1170
2020-08-11 02:45 3.80 1090 4530 (2013) 282 (1941) 737 376 416 494 515 655 785 918 1050 1170
2020-08-11 01:45 3.80 1090 4530 (2013) 282 (1941) 737 376 416 494 515 655 785 918 1050 1170
2020-08-11 00:45 3.78 1070 4530 (2013) 282 (1941) 737 376 416 494 515 655 785 918 1050 1170
2020-08-10 23:45 3.80 1090 5490 (1970) 287 (1941) 774 390 435 482 514 651 797 933 1080 1150
2020-08-10 22:45 3.80 1090 5490 (1970) 287 (1941) 774 390 435 482 514 651 797 933 1080 1150
2020-08-10 21:45 3.80 1090 5490 (1970) 287 (1941) 774 390 435 482 514 651 797 933 1080 1150
2020-08-10 20:45 3.80 1090 5490 (1970) 287 (1941) 774 390 435 482 514 651 797 933 1080 1150
2020-08-10 19:45 3.80 1090 5490 (1970) 287 (1941) 774 390 435 482 514 651 797 933 1080 1150
2020-08-10 18:45 3.80 1090 5490 (1970) 287 (1941) 774 390 435 482 514 651 797 933 1080 1150
2020-08-10 17:45 3.80 1090 5490 (1970) 287 (1941) 774 390 435 482 514 651 797 933 1080 1150
2020-08-10 16:45 3.81 1090 5490 (1970) 287 (1941) 774 390 435 482 514 651 797 933 1080 1150
2020-08-10 15:45 3.81 1090 5490 (1970) 287 (1941) 774 390 435 482 514 651 797 933 1080 1150
2020-08-10 14:45 3.81 1090 5490 (1970) 287 (1941) 774 390 435 482 514 651 797 933 1080 1150
2020-08-10 13:45 3.81 1090 5490 (1970) 287 (1941) 774 390 435 482 514 651 797 933 1080 1150
2020-08-10 12:45 3.81 1090 5490 (1970) 287 (1941) 774 390 435 482 514 651 797 933 1080 1150
2020-08-10 11:45 3.81 1090 5490 (1970) 287 (1941) 774 390 435 482 514 651 797 933 1080 1150
2020-08-10 10:45 3.81 1090 5490 (1970) 287 (1941) 774 390 435 482 514 651 797 933 1080 1150
2020-08-10 09:45 3.80 1090 5490 (1970) 287 (1941) 774 390 435 482 514 651 797 933 1080 1150
2020-08-10 08:45 3.81 1090 5490 (1970) 287 (1941) 774 390 435 482 514 651 797 933 1080 1150
2020-08-10 07:45 3.81 1090 5490 (1970) 287 (1941) 774 390 435 482 514 651 797 933 1080 1150
2020-08-10 06:45 3.81 1090 5490 (1970) 287 (1941) 774 390 435 482 514 651 797 933 1080 1150
2020-08-10 05:45 3.81 1090 5490 (1970) 287 (1941) 774 390 435 482 514 651 797 933 1080 1150
2020-08-10 04:45 3.81 1090 5490 (1970) 287 (1941) 774 390 435 482 514 651 797 933 1080 1150
2020-08-10 03:45 3.81 1090 5490 (1970) 287 (1941) 774 390 435 482 514 651 797 933 1080 1150
2020-08-10 02:45 3.81 1090 5490 (1970) 287 (1941) 774 390 435 482 514 651 797 933 1080 1150
2020-08-10 01:45 3.82 1100 5490 (1970) 287 (1941) 774 390 435 482 514 651 797 933 1080 1150
2020-08-10 00:45 3.81 1090 5490 (1970) 287 (1941) 774 390 435 482 514 651 797 933 1080 1150
2020-08-09 23:45 3.81 1090 3320 (2013) 296 (1941) 737 390 430 492 514 656 824 917 1080 1140
2020-08-09 22:45 3.81 1090 3320 (2013) 296 (1941) 737 390 430 492 514 656 824 917 1080 1140
2020-08-09 21:45 3.82 1100 3320 (2013) 296 (1941) 737 390 430 492 514 656 824 917 1080 1140
2020-08-09 20:45 3.82 1100 3320 (2013) 296 (1941) 737 390 430 492 514 656 824 917 1080 1140
2020-08-09 19:45 3.83 1110 3320 (2013) 296 (1941) 737 390 430 492 514 656 824 917 1080 1140
2020-08-09 18:45 3.83 1110 3320 (2013) 296 (1941) 737 390 430 492 514 656 824 917 1080 1140
2020-08-09 17:45 3.82 1100 3320 (2013) 296 (1941) 737 390 430 492 514 656 824 917 1080 1140
2020-08-09 16:45 3.81 1090 3320 (2013) 296 (1941) 737 390 430 492 514 656 824 917 1080 1140
2020-08-09 15:45 3.84 1110 3320 (2013) 296 (1941) 737 390 430 492 514 656 824 917 1080 1140
2020-08-09 14:45 3.80 1090 3320 (2013) 296 (1941) 737 390 430 492 514 656 824 917 1080 1140
2020-08-09 13:45 3.83 1110 3320 (2013) 296 (1941) 737 390 430 492 514 656 824 917 1080 1140
2020-08-09 12:45 3.82 1100 3320 (2013) 296 (1941) 737 390 430 492 514 656 824 917 1080 1140
2020-08-09 11:45 3.81 1090 3320 (2013) 296 (1941) 737 390 430 492 514 656 824 917 1080 1140
2020-08-09 10:45 3.82 1100 3320 (2013) 296 (1941) 737 390 430 492 514 656 824 917 1080 1140
2020-08-09 09:45 3.83 1110 3320 (2013) 296 (1941) 737 390 430 492 514 656 824 917 1080 1140
2020-08-09 08:45 3.83 1110 3320 (2013) 296 (1941) 737 390 430 492 514 656 824 917 1080 1140
2020-08-09 07:45 3.83 1110 3320 (2013) 296 (1941) 737 390 430 492 514 656 824 917 1080 1140
2020-08-09 06:45 3.82 1100 3320 (2013) 296 (1941) 737 390 430 492 514 656 824 917 1080 1140
2020-08-09 05:45 3.83 1110 3320 (2013) 296 (1941) 737 390 430 492 514 656 824 917 1080 1140
2020-08-09 04:45 3.83 1110 3320 (2013) 296 (1941) 737 390 430 492 514 656 824 917 1080 1140
2020-08-09 03:45 3.83 1110 3320 (2013) 296 (1941) 737 390 430 492 514 656 824 917 1080 1140
2020-08-09 02:45 3.83 1110 3320 (2013) 296 (1941) 737 390 430 492 514 656 824 917 1080 1140
2020-08-09 01:45 3.83 1110 3320 (2013) 296 (1941) 737 390 430 492 514 656 824 917 1080 1140
2020-08-09 00:45 3.83 1110 3320 (2013) 296 (1941) 737 390 430 492 514 656 824 917 1080 1140
2020-08-08 23:45 3.83 1110 3000 (2013) 311 (1941) 718 376 414 503 520 655 828 931 1060 1140
2020-08-08 22:45 3.83 1110 3000 (2013) 311 (1941) 718 376 414 503 520 655 828 931 1060 1140
2020-08-08 21:45 3.83 1110 3000 (2013) 311 (1941) 718 376 414 503 520 655 828 931 1060 1140
2020-08-08 20:45 3.83 1110 3000 (2013) 311 (1941) 718 376 414 503 520 655 828 931 1060 1140
2020-08-08 19:45 3.83 1110 3000 (2013) 311 (1941) 718 376 414 503 520 655 828 931 1060 1140
2020-08-08 18:45 3.84 1110 3000 (2013) 311 (1941) 718 376 414 503 520 655 828 931 1060 1140
2020-08-08 17:45 3.84 1110 3000 (2013) 311 (1941) 718 376 414 503 520 655 828 931 1060 1140
2020-08-08 16:45 3.81 1090 3000 (2013) 311 (1941) 718 376 414 503 520 655 828 931 1060 1140
2020-08-08 15:45 3.81 1090 3000 (2013) 311 (1941) 718 376 414 503 520 655 828 931 1060 1140
2020-08-08 14:45 3.79 1080 3000 (2013) 311 (1941) 718 376 414 503 520 655 828 931 1060 1140
2020-08-08 13:45 3.82 1100 3000 (2013) 311 (1941) 718 376 414 503 520 655 828 931 1060 1140
2020-08-08 12:45 3.83 1110 3000 (2013) 311 (1941) 718 376 414 503 520 655 828 931 1060 1140
2020-08-08 11:45 3.84 1110 3000 (2013) 311 (1941) 718 376 414 503 520 655 828 931 1060 1140
2020-08-08 10:45 3.84 1110 3000 (2013) 311 (1941) 718 376 414 503 520 655 828 931 1060 1140
2020-08-08 09:45 3.83 1110 3000 (2013) 311 (1941) 718 376 414 503 520 655 828 931 1060 1140
2020-08-08 08:45 3.84 1110 3000 (2013) 311 (1941) 718 376 414 503 520 655 828 931 1060 1140
2020-08-08 07:45 3.85 1120 3000 (2013) 311 (1941) 718 376 414 503 520 655 828 931 1060 1140
2020-08-08 06:45 3.84 1110 3000 (2013) 311 (1941) 718 376 414 503 520 655 828 931 1060 1140
2020-08-08 05:45 3.85 1120 3000 (2013) 311 (1941) 718 376 414 503 520 655 828 931 1060 1140
2020-08-08 04:45 3.84 1110 3000 (2013) 311 (1941) 718 376 414 503 520 655 828 931 1060 1140
2020-08-08 03:45 3.84 1110 3000 (2013) 311 (1941) 718 376 414 503 520 655 828 931 1060 1140
2020-08-08 02:45 3.84 1110 3000 (2013) 311 (1941) 718 376 414 503 520 655 828 931 1060 1140
2020-08-08 01:45 3.85 1120 3000 (2013) 311 (1941) 718 376 414 503 520 655 828 931 1060 1140
2020-08-08 00:45 3.85 1120 3000 (2013) 311 (1941) 718 376 414 503 520 655 828 931 1060 1140
2020-08-07 23:45 3.85 1120 3340 (2013) 249 (1936) 738 381 414 486 531 672 828 951 1070 1200
2020-08-07 22:45 3.85 1120 3340 (2013) 249 (1936) 738 381 414 486 531 672 828 951 1070 1200
2020-08-07 21:45 3.85 1120 3340 (2013) 249 (1936) 738 381 414 486 531 672 828 951 1070 1200
2020-08-07 20:45 3.86 1130 3340 (2013) 249 (1936) 738 381 414 486 531 672 828 951 1070 1200
2020-08-07 19:45 3.86 1130 3340 (2013) 249 (1936) 738 381 414 486 531 672 828 951 1070 1200
2020-08-07 18:45 3.86 1130 3340 (2013) 249 (1936) 738 381 414 486 531 672 828 951 1070 1200
2020-08-07 17:45 3.86 1130 3340 (2013) 249 (1936) 738 381 414 486 531 672 828 951 1070 1200
2020-08-07 16:45 3.86 1130 3340 (2013) 249 (1936) 738 381 414 486 531 672 828 951 1070 1200
2020-08-07 15:45 3.86 1130 3340 (2013) 249 (1936) 738 381 414 486 531 672 828 951 1070 1200
2020-08-07 14:45 3.87 1130 3340 (2013) 249 (1936) 738 381 414 486 531 672 828 951 1070 1200
2020-08-07 13:45 3.87 1130 3340 (2013) 249 (1936) 738 381 414 486 531 672 828 951 1070 1200
2020-08-07 12:45 3.86 1130 3340 (2013) 249 (1936) 738 381 414 486 531 672 828 951 1070 1200
2020-08-07 11:45 3.87 1130 3340 (2013) 249 (1936) 738 381 414 486 531 672 828 951 1070 1200
2020-08-07 10:45 3.83 1110 3340 (2013) 249 (1936) 738 381 414 486 531 672 828 951 1070 1200
2020-08-07 09:45 3.85 1120 3340 (2013) 249 (1936) 738 381 414 486 531 672 828 951 1070 1200
2020-08-07 08:45 3.86 1130 3340 (2013) 249 (1936) 738 381 414 486 531 672 828 951 1070 1200
2020-08-07 07:45 3.86 1130 3340 (2013) 249 (1936) 738 381 414 486 531 672 828 951 1070 1200
2020-08-07 06:45 3.86 1130 3340 (2013) 249 (1936) 738 381 414 486 531 672 828 951 1070 1200
2020-08-07 05:45 3.86 1130 3340 (2013) 249 (1936) 738 381 414 486 531 672 828 951 1070 1200
2020-08-07 04:45 3.86 1130 3340 (2013) 249 (1936) 738 381 414 486 531 672 828 951 1070 1200
2020-08-07 03:45 3.87 1130 3340 (2013) 249 (1936) 738 381 414 486 531 672 828 951 1070 1200
2020-08-07 02:45 3.86 1130 3340 (2013) 249 (1936) 738 381 414 486 531 672 828 951 1070 1200
2020-08-07 01:45 3.87 1130 3340 (2013) 249 (1936) 738 381 414 486 531 672 828 951 1070 1200
2020-08-07 00:45 3.87 1130 3340 (2013) 249 (1936) 738 381 414 486 531 672 828 951 1070 1200
2020-08-06 23:45 3.87 1130 2830 (2013) 249 (1936) 747 386 417 494 525 671 842 970 1080 1270
2020-08-06 22:45 3.87 1130 2830 (2013) 249 (1936) 747 386 417 494 525 671 842 970 1080 1270
2020-08-06 21:45 3.87 1130 2830 (2013) 249 (1936) 747 386 417 494 525 671 842 970 1080 1270
2020-08-06 20:45 3.87 1130 2830 (2013) 249 (1936) 747 386 417 494 525 671 842 970 1080 1270
2020-08-06 19:45 3.88 1140 2830 (2013) 249 (1936) 747 386 417 494 525 671 842 970 1080 1270
2020-08-06 18:45 3.88 1140 2830 (2013) 249 (1936) 747 386 417 494 525 671 842 970 1080 1270
2020-08-06 17:45 3.88 1140 2830 (2013) 249 (1936) 747 386 417 494 525 671 842 970 1080 1270
2020-08-06 16:45 3.89 1150 2830 (2013) 249 (1936) 747 386 417 494 525 671 842 970 1080 1270
2020-08-06 15:45 3.89 1150 2830 (2013) 249 (1936) 747 386 417 494 525 671 842 970 1080 1270
2020-08-06 14:45 3.89 1150 2830 (2013) 249 (1936) 747 386 417 494 525 671 842 970 1080 1270
2020-08-06 13:45 3.89 1150 2830 (2013) 249 (1936) 747 386 417 494 525 671 842 970 1080 1270
2020-08-06 12:45 3.89 1150 2830 (2013) 249 (1936) 747 386 417 494 525 671 842 970 1080 1270
2020-08-06 11:45 3.89 1150 2830 (2013) 249 (1936) 747 386 417 494 525 671 842 970 1080 1270
2020-08-06 10:45 3.88 1140 2830 (2013) 249 (1936) 747 386 417 494 525 671 842 970 1080 1270
2020-08-06 09:45 3.88 1140 2830 (2013) 249 (1936) 747 386 417 494 525 671 842 970 1080 1270
2020-08-06 08:45 3.88 1140 2830 (2013) 249 (1936) 747 386 417 494 525 671 842 970 1080 1270
2020-08-06 07:45 3.89 1150 2830 (2013) 249 (1936) 747 386 417 494 525 671 842 970 1080 1270
2020-08-06 06:45 3.88 1140 2830 (2013) 249 (1936) 747 386 417 494 525 671 842 970 1080 1270
2020-08-06 05:45 3.89 1150 2830 (2013) 249 (1936) 747 386 417 494 525 671 842 970 1080 1270
2020-08-06 04:45 3.89 1150 2830 (2013) 249 (1936) 747 386 417 494 525 671 842 970 1080 1270
2020-08-06 03:45 3.89 1150 2830 (2013) 249 (1936) 747 386 417 494 525 671 842 970 1080 1270
2020-08-06 02:45 3.89 1150 2830 (2013) 249 (1936) 747 386 417 494 525 671 842 970 1080 1270
2020-08-06 01:45 3.89 1150 2830 (2013) 249 (1936) 747 386 417 494 525 671 842 970 1080 1270
2020-08-06 00:45 3.90 1160 2830 (2013) 249 (1936) 747 386 417 494 525 671 842 970 1080 1270
2020-08-05 23:45 3.90 1160 2120 (2013) 272 (1936) 725 371 419 500 542 671 851 921 1080 1200
2020-08-05 22:45 3.90 1160 2120 (2013) 272 (1936) 725 371 419 500 542 671 851 921 1080 1200
2020-08-05 21:45 3.90 1160 2120 (2013) 272 (1936) 725 371 419 500 542 671 851 921 1080 1200
2020-08-05 20:45 3.91 1160 2120 (2013) 272 (1936) 725 371 419 500 542 671 851 921 1080 1200
2020-08-05 19:45 3.91 1160 2120 (2013) 272 (1936) 725 371 419 500 542 671 851 921 1080 1200
2020-08-05 18:45 3.91 1160 2120 (2013) 272 (1936) 725 371 419 500 542 671 851 921 1080 1200
2020-08-05 17:45 3.92 1170 2120 (2013) 272 (1936) 725 371 419 500 542 671 851 921 1080 1200
2020-08-05 16:45 3.92 1170 2120 (2013) 272 (1936) 725 371 419 500 542 671 851 921 1080 1200
2020-08-05 15:45 3.92 1170 2120 (2013) 272 (1936) 725 371 419 500 542 671 851 921 1080 1200
2020-08-05 14:45 3.92 1170 2120 (2013) 272 (1936) 725 371 419 500 542 671 851 921 1080 1200
2020-08-05 13:45 3.93 1180 2120 (2013) 272 (1936) 725 371 419 500 542 671 851 921 1080 1200
2020-08-05 12:45 3.92 1170 2120 (2013) 272 (1936) 725 371 419 500 542 671 851 921 1080 1200
2020-08-05 11:45 3.93 1180 2120 (2013) 272 (1936) 725 371 419 500 542 671 851 921 1080 1200
2020-08-05 10:45 3.92 1170 2120 (2013) 272 (1936) 725 371 419 500 542 671 851 921 1080 1200
2020-08-05 09:45 3.92 1170 2120 (2013) 272 (1936) 725 371 419 500 542 671 851 921 1080 1200
2020-08-05 08:45 3.93 1180 2120 (2013) 272 (1936) 725 371 419 500 542 671 851 921 1080 1200
2020-08-05 07:45 3.93 1180 2120 (2013) 272 (1936) 725 371 419 500 542 671 851 921 1080 1200
2020-08-05 06:45 3.94 1180 2120 (2013) 272 (1936) 725 371 419 500 542 671 851 921 1080 1200
2020-08-05 05:45 3.94 1180 2120 (2013) 272 (1936) 725 371 419 500 542 671 851 921 1080 1200
2020-08-05 04:45 3.94 1180 2120 (2013) 272 (1936) 725 371 419 500 542 671 851 921 1080 1200
2020-08-05 03:45 3.95 1190 2120 (2013) 272 (1936) 725 371 419 500 542 671 851 921 1080 1200
2020-08-05 02:45 3.95 1190 2120 (2013) 272 (1936) 725 371 419 500 542 671 851 921 1080 1200
2020-08-05 01:45 3.95 1190 2120 (2013) 272 (1936) 725 371 419 500 542 671 851 921 1080 1200
2020-08-05 00:45 3.96 1200 2120 (2013) 272 (1936) 725 371 419 500 542 671 851 921 1080 1200
2020-08-04 23:45 3.96 1200 1620 (1958) 272 (1936) 711 375 429 500 548 673 822 890 1070 1160
2020-08-04 22:45 3.97 1200 1620 (1958) 272 (1936) 711 375 429 500 548 673 822 890 1070 1160
2020-08-04 21:45 3.97 1200 1620 (1958) 272 (1936) 711 375 429 500 548 673 822 890 1070 1160
2020-08-04 20:45 3.98 1210 1620 (1958) 272 (1936) 711 375 429 500 548 673 822 890 1070 1160
2020-08-04 19:45 3.99 1220 1620 (1958) 272 (1936) 711 375 429 500 548 673 822 890 1070 1160
2020-08-04 18:45 3.99 1220 1620 (1958) 272 (1936) 711 375 429 500 548 673 822 890 1070 1160
2020-08-04 17:45 4.01 1230 1620 (1958) 272 (1936) 711 375 429 500 548 673 822 890 1070 1160
2020-08-04 16:45 4.02 1240 1620 (1958) 272 (1936) 711 375 429 500 548 673 822 890 1070 1160
2020-08-04 15:45 4.02 1240 1620 (1958) 272 (1936) 711 375 429 500 548 673 822 890 1070 1160
2020-08-04 14:45 4.02 1240 1620 (1958) 272 (1936) 711 375 429 500 548 673 822 890 1070 1160
2020-08-04 13:45 4.03 1250 1620 (1958) 272 (1936) 711 375 429 500 548 673 822 890 1070 1160
2020-08-04 12:45 4.03 1250 1620 (1958) 272 (1936) 711 375 429 500 548 673 822 890 1070 1160
2020-08-04 11:45 4.05 1260 1620 (1958) 272 (1936) 711 375 429 500 548 673 822 890 1070 1160
2020-08-04 10:45 4.05 1260 1620 (1958) 272 (1936) 711 375 429 500 548 673 822 890 1070 1160
2020-08-04 09:45 4.06 1270 1620 (1958) 272 (1936) 711 375 429 500 548 673 822 890 1070 1160
2020-08-04 08:45 4.07 1280 1620 (1958) 272 (1936) 711 375 429 500 548 673 822 890 1070 1160
2020-08-04 07:45 4.08 1280 1620 (1958) 272 (1936) 711 375 429 500 548 673 822 890 1070 1160
2020-08-04 06:45 4.09 1290 1620 (1958) 272 (1936) 711 375 429 500 548 673 822 890 1070 1160
2020-08-04 05:45 4.10 1300 1620 (1958) 272 (1936) 711 375 429 500 548 673 822 890 1070 1160
2020-08-04 04:45 4.11 1300 1620 (1958) 272 (1936) 711 375 429 500 548 673 822 890 1070 1160
2020-08-04 03:45 4.12 1310 1620 (1958) 272 (1936) 711 375 429 500 548 673 822 890 1070 1160
2020-08-04 02:45 4.12 1310 1620 (1958) 272 (1936) 711 375 429 500 548 673 822 890 1070 1160
2020-08-04 01:45 4.12 1310 1620 (1958) 272 (1936) 711 375 429 500 548 673 822 890 1070 1160
2020-08-04 00:45 4.12 1310 1620 (1958) 272 (1936) 711 375 429 500 548 673 822 890 1070 1160
2020-08-03 23:45 4.11 1300 1760 (1958) 286 (1936) 728 376 431 501 559 683 853 952 1070 1210
2020-08-03 22:45 4.10 1300 1760 (1958) 286 (1936) 728 376 431 501 559 683 853 952 1070 1210
2020-08-03 21:45 4.08 1280 1760 (1958) 286 (1936) 728 376 431 501 559 683 853 952 1070 1210
2020-08-03 20:45 4.07 1280 1760 (1958) 286 (1936) 728 376 431 501 559 683 853 952 1070 1210
2020-08-03 19:45 4.08 1280 1760 (1958) 286 (1936) 728 376 431 501 559 683 853 952 1070 1210
2020-08-03 18:45 4.08 1280 1760 (1958) 286 (1936) 728 376 431 501 559 683 853 952 1070 1210
2020-08-03 17:45 4.09 1290 1760 (1958) 286 (1936) 728 376 431 501 559 683 853 952 1070 1210
2020-08-03 16:45 4.10 1300 1760 (1958) 286 (1936) 728 376 431 501 559 683 853 952 1070 1210
2020-08-03 15:45 4.10 1300 1760 (1958) 286 (1936) 728 376 431 501 559 683 853 952 1070 1210
2020-08-03 14:45 4.12 1310 1760 (1958) 286 (1936) 728 376 431 501 559 683 853 952 1070 1210
2020-08-03 13:45 4.12 1310 1760 (1958) 286 (1936) 728 376 431 501 559 683 853 952 1070 1210
2020-08-03 12:45 4.12 1310 1760 (1958) 286 (1936) 728 376 431 501 559 683 853 952 1070 1210
2020-08-03 11:45 4.12 1310 1760 (1958) 286 (1936) 728 376 431 501 559 683 853 952 1070 1210
2020-08-03 10:45 4.11 1300 1760 (1958) 286 (1936) 728 376 431 501 559 683 853 952 1070 1210
2020-08-03 09:45 4.10 1300 1760 (1958) 286 (1936) 728 376 431 501 559 683 853 952 1070 1210
2020-08-03 08:45 4.07 1280 1760 (1958) 286 (1936) 728 376 431 501 559 683 853 952 1070 1210
2020-08-03 07:45 4.03 1250 1760 (1958) 286 (1936) 728 376 431 501 559 683 853 952 1070 1210
2020-08-03 06:45 4.00 1230 1760 (1958) 286 (1936) 728 376 431 501 559 683 853 952 1070 1210
2020-08-03 05:45 3.99 1220 1760 (1958) 286 (1936) 728 376 431 501 559 683 853 952 1070 1210
2020-08-03 04:45 3.97 1200 1760 (1958) 286 (1936) 728 376 431 501 559 683 853 952 1070 1210
2020-08-03 03:45 3.97 1200 1760 (1958) 286 (1936) 728 376 431 501 559 683 853 952 1070 1210
2020-08-03 02:45 3.96 1200 1760 (1958) 286 (1936) 728 376 431 501 559 683 853 952 1070 1210
2020-08-03 01:45 3.94 1180 1760 (1958) 286 (1936) 728 376 431 501 559 683 853 952 1070 1210
2020-08-03 00:45 3.93 1180 1760 (1958) 286 (1936) 728 376 431 501 559 683 853 952 1070 1210
2020-08-02 23:45 3.91 1160 2570 (1958) 262 (1936) 739 379 427 492 511 695 859 930 1080 1220
2020-08-02 22:45 3.91 1160 2570 (1958) 262 (1936) 739 379 427 492 511 695 859 930 1080 1220
2020-08-02 21:45 3.90 1160 2570 (1958) 262 (1936) 739 379 427 492 511 695 859 930 1080 1220
2020-08-02 20:45 3.91 1160 2570 (1958) 262 (1936) 739 379 427 492 511 695 859 930 1080 1220
2020-08-02 19:45 3.91 1160 2570 (1958) 262 (1936) 739 379 427 492 511 695 859 930 1080 1220
2020-08-02 18:45 3.91 1160 2570 (1958) 262 (1936) 739 379 427 492 511 695 859 930 1080 1220
2020-08-02 17:45 3.92 1170 2570 (1958) 262 (1936) 739 379 427 492 511 695 859 930 1080 1220
2020-08-02 16:45 3.89 1150 2570 (1958) 262 (1936) 739 379 427 492 511 695 859 930 1080 1220
2020-08-02 15:45 3.91 1160 2570 (1958) 262 (1936) 739 379 427 492 511 695 859 930 1080 1220
2020-08-02 14:45 3.93 1180 2570 (1958) 262 (1936) 739 379 427 492 511 695 859 930 1080 1220
2020-08-02 13:45 3.92 1170 2570 (1958) 262 (1936) 739 379 427 492 511 695 859 930 1080 1220
2020-08-02 12:45 3.92 1170 2570 (1958) 262 (1936) 739 379 427 492 511 695 859 930 1080 1220
2020-08-02 11:45 3.92 1170 2570 (1958) 262 (1936) 739 379 427 492 511 695 859 930 1080 1220
2020-08-02 10:45 3.91 1160 2570 (1958) 262 (1936) 739 379 427 492 511 695 859 930 1080 1220
2020-08-02 09:45 3.92 1170 2570 (1958) 262 (1936) 739 379 427 492 511 695 859 930 1080 1220
2020-08-02 08:45 3.91 1160 2570 (1958) 262 (1936) 739 379 427 492 511 695 859 930 1080 1220
2020-08-02 07:45 3.93 1180 2570 (1958) 262 (1936) 739 379 427 492 511 695 859 930 1080 1220
2020-08-02 06:45 3.93 1180 2570 (1958) 262 (1936) 739 379 427 492 511 695 859 930 1080 1220
2020-08-02 05:45 3.93 1180 2570 (1958) 262 (1936) 739 379 427 492 511 695 859 930 1080 1220
2020-08-02 04:45 3.93 1180 2570 (1958) 262 (1936) 739 379 427 492 511 695 859 930 1080 1220
2020-08-02 03:45 3.93 1180 2570 (1958) 262 (1936) 739 379 427 492 511 695 859 930 1080 1220
2020-08-02 02:45 3.93 1180 2570 (1958) 262 (1936) 739 379 427 492 511 695 859 930 1080 1220
2020-08-02 01:45 3.94 1180 2570 (1958) 262 (1936) 739 379 427 492 511 695 859 930 1080 1220
2020-08-02 00:45 3.94 1180 2570 (1958) 262 (1936) 739 379 427 492 511 695 859 930 1080 1220
2020-08-01 23:45 3.94 1180 1660 (1951) 258 (1936) 726 384 430 491 553 701 824 980 1110 1180
2020-08-01 22:45 3.94 1180 1660 (1951) 258 (1936) 726 384 430 491 553 701 824 980 1110 1180
2020-08-01 21:45 3.94 1180 1660 (1951) 258 (1936) 726 384 430 491 553 701 824 980 1110 1180
2020-08-01 20:45 3.95 1190 1660 (1951) 258 (1936) 726 384 430 491 553 701 824 980 1110 1180
2020-08-01 19:45 3.96 1200 1660 (1951) 258 (1936) 726 384 430 491 553 701 824 980 1110 1180
2020-08-01 18:45 3.96 1200 1660 (1951) 258 (1936) 726 384 430 491 553 701 824 980 1110 1180
2020-08-01 17:45 3.95 1190 1660 (1951) 258 (1936) 726 384 430 491 553 701 824 980 1110 1180
2020-08-01 16:45 3.98 1210 1660 (1951) 258 (1936) 726 384 430 491 553 701 824 980 1110 1180
2020-08-01 15:45 3.99 1220 1660 (1951) 258 (1936) 726 384 430 491 553 701 824 980 1110 1180
2020-08-01 14:45 3.94 1180 1660 (1951) 258 (1936) 726 384 430 491 553 701 824 980 1110 1180
2020-08-01 13:45 3.96 1200 1660 (1951) 258 (1936) 726 384 430 491 553 701 824 980 1110 1180
2020-08-01 12:45 3.97 1200 1660 (1951) 258 (1936) 726 384 430 491 553 701 824 980 1110 1180
2020-08-01 11:45 3.95 1190 1660 (1951) 258 (1936) 726 384 430 491 553 701 824 980 1110 1180
2020-08-01 10:45 3.97 1200 1660 (1951) 258 (1936) 726 384 430 491 553 701 824 980 1110 1180
2020-08-01 09:45 3.95 1190 1660 (1951) 258 (1936) 726 384 430 491 553 701 824 980 1110 1180
2020-08-01 08:45 3.96 1200 1660 (1951) 258 (1936) 726 384 430 491 553 701 824 980 1110 1180
2020-08-01 07:45 3.95 1190 1660 (1951) 258 (1936) 726 384 430 491 553 701 824 980 1110 1180
2020-08-01 06:45 3.94 1180 1660 (1951) 258 (1936) 726 384 430 491 553 701 824 980 1110 1180
2020-08-01 05:45 3.96 1200 1660 (1951) 258 (1936) 726 384 430 491 553 701 824 980 1110 1180
2020-08-01 04:45 3.96 1200 1660 (1951) 258 (1936) 726 384 430 491 553 701 824 980 1110 1180
2020-08-01 03:45 3.97 1200 1660 (1951) 258 (1936) 726 384 430 491 553 701 824 980 1110 1180
2020-08-01 02:45 3.97 1200 1660 (1951) 258 (1936) 726 384 430 491 553 701 824 980 1110 1180
2020-08-01 01:45 3.97 1200 1660 (1951) 258 (1936) 726 384 430 491 553 701 824 980 1110 1180
2020-08-01 00:45 3.97 1200 1660 (1951) 258 (1936) 726 384 430 491 553 701 824 980 1110 1180
2020-07-31 23:45 3.98 1210 2020 (2002) 253 (1936) 754 396 445 498 553 703 907 998 1120 1290
2020-07-31 22:45 3.99 1220 2020 (2002) 253 (1936) 754 396 445 498 553 703 907 998 1120 1290
2020-07-31 21:45 3.99 1220 2020 (2002) 253 (1936) 754 396 445 498 553 703 907 998 1120 1290
2020-07-31 20:45 3.99 1220 2020 (2002) 253 (1936) 754 396 445 498 553 703 907 998 1120 1290
2020-07-31 19:45 4.00 1230 2020 (2002) 253 (1936) 754 396 445 498 553 703 907 998 1120 1290
2020-07-31 18:45 4.01 1230 2020 (2002) 253 (1936) 754 396 445 498 553 703 907 998 1120 1290
2020-07-31 17:45 4.02 1240 2020 (2002) 253 (1936) 754 396 445 498 553 703 907 998 1120 1290
2020-07-31 16:45 4.01 1230 2020 (2002) 253 (1936) 754 396 445 498 553 703 907 998 1120 1290
2020-07-31 15:45 4.02 1240 2020 (2002) 253 (1936) 754 396 445 498 553 703 907 998 1120 1290
2020-07-31 14:45 4.03 1250 2020 (2002) 253 (1936) 754 396 445 498 553 703 907 998 1120 1290
2020-07-31 13:45 4.03 1250 2020 (2002) 253 (1936) 754 396 445 498 553 703 907 998 1120 1290
2020-07-31 12:45 4.02 1240 2020 (2002) 253 (1936) 754 396 445 498 553 703 907 998 1120 1290
2020-07-31 11:45 4.03 1250 2020 (2002) 253 (1936) 754 396 445 498 553 703 907 998 1120 1290
2020-07-31 10:45 4.03 1250 2020 (2002) 253 (1936) 754 396 445 498 553 703 907 998 1120 1290
2020-07-31 09:45 4.03 1250 2020 (2002) 253 (1936) 754 396 445 498 553 703 907 998 1120 1290
2020-07-31 08:45 4.04 1250 2020 (2002) 253 (1936) 754 396 445 498 553 703 907 998 1120 1290
2020-07-31 07:45 4.04 1250 2020 (2002) 253 (1936) 754 396 445 498 553 703 907 998 1120 1290
2020-07-31 06:45 4.04 1250 2020 (2002) 253 (1936) 754 396 445 498 553 703 907 998 1120 1290
2020-07-31 05:45 4.04 1250 2020 (2002) 253 (1936) 754 396 445 498 553 703 907 998 1120 1290
2020-07-31 04:45 4.04 1250 2020 (2002) 253 (1936) 754 396 445 498 553 703 907 998 1120 1290
2020-07-31 03:45 4.05 1260 2020 (2002) 253 (1936) 754 396 445 498 553 703 907 998 1120 1290
2020-07-31 02:45 4.05 1260 2020 (2002) 253 (1936) 754 396 445 498 553 703 907 998 1120 1290
2020-07-31 01:45 4.06 1270 2020 (2002) 253 (1936) 754 396 445 498 553 703 907 998 1120 1290
2020-07-31 00:45 4.06 1270 2020 (2002) 253 (1936) 754 396 445 498 553 703 907 998 1120 1290
2020-07-30 23:45 4.08 1280 1350 (2015) 258 (1936) 746 416 450 510 570 719 859 1000 1110 1270
2020-07-30 22:45 4.09 1290 1350 (2015) 258 (1936) 746 416 450 510 570 719 859 1000 1110 1270
2020-07-30 21:45 4.10 1300 1350 (2015) 258 (1936) 746 416 450 510 570 719 859 1000 1110 1270
2020-07-30 20:45 4.11 1300 1350 (2015) 258 (1936) 746 416 450 510 570 719 859 1000 1110 1270
2020-07-30 19:45 4.11 1300 1350 (2015) 258 (1936) 746 416 450 510 570 719 859 1000 1110 1270
2020-07-30 18:45 4.11 1300 1350 (2015) 258 (1936) 746 416 450 510 570 719 859 1000 1110 1270
2020-07-30 17:45 4.11 1300 1350 (2015) 258 (1936) 746 416 450 510 570 719 859 1000 1110 1270
2020-07-30 16:45 4.10 1300 1350 (2015) 258 (1936) 746 416 450 510 570 719 859 1000 1110 1270
2020-07-30 15:45 4.09 1290 1350 (2015) 258 (1936) 746 416 450 510 570 719 859 1000 1110 1270
2020-07-30 14:45 4.08 1280 1350 (2015) 258 (1936) 746 416 450 510 570 719 859 1000 1110 1270
2020-07-30 13:45 4.03 1250 1350 (2015) 258 (1936) 746 416 450 510 570 719 859 1000 1110 1270
2020-07-30 12:45 4.04 1250 1350 (2015) 258 (1936) 746 416 450 510 570 719 859 1000 1110 1270
2020-07-30 11:45 4.02 1240 1350 (2015) 258 (1936) 746 416 450 510 570 719 859 1000 1110 1270
2020-07-30 10:45 4.01 1230 1350 (2015) 258 (1936) 746 416 450 510 570 719 859 1000 1110 1270
2020-07-30 09:45 3.99 1220 1350 (2015) 258 (1936) 746 416 450 510 570 719 859 1000 1110 1270
2020-07-30 08:45 3.98 1210 1350 (2015) 258 (1936) 746 416 450 510 570 719 859 1000 1110 1270
2020-07-30 07:45 3.98 1210 1350 (2015) 258 (1936) 746 416 450 510 570 719 859 1000 1110 1270
2020-07-30 06:45 3.97 1200 1350 (2015) 258 (1936) 746 416 450 510 570 719 859 1000 1110 1270
2020-07-30 05:45 3.98 1210 1350 (2015) 258 (1936) 746 416 450 510 570 719 859 1000 1110 1270
2020-07-30 04:45 3.98 1210 1350 (2015) 258 (1936) 746 416 450 510 570 719 859 1000 1110 1270
2020-07-30 03:45 3.99 1220 1350 (2015) 258 (1936) 746 416 450 510 570 719 859 1000 1110 1270
2020-07-30 02:45 4.01 1230 1350 (2015) 258 (1936) 746 416 450 510 570 719 859 1000 1110 1270
2020-07-30 01:45 4.02 1240 1350 (2015) 258 (1936) 746 416 450 510 570 719 859 1000 1110 1270
2020-07-30 00:45 4.03 1250 1350 (2015) 258 (1936) 746 416 450 510 570 719 859 1000 1110 1270
2020-07-29 23:45 3.95 1190 2550 (1963) 276 (1936) 773 390 450 503 560 729 894 1010 1150 1310
2020-07-29 22:45 3.96 1200 2550 (1963) 276 (1936) 773 390 450 503 560 729 894 1010 1150 1310
2020-07-29 21:45 3.97 1200 2550 (1963) 276 (1936) 773 390 450 503 560 729 894 1010 1150 1310
2020-07-29 20:45 3.97 1200 2550 (1963) 276 (1936) 773 390 450 503 560 729 894 1010 1150 1310
2020-07-29 19:45 3.97 1200 2550 (1963) 276 (1936) 773 390 450 503 560 729 894 1010 1150 1310
2020-07-29 18:45 3.98 1210 2550 (1963) 276 (1936) 773 390 450 503 560 729 894 1010 1150 1310
2020-07-29 17:45 3.97 1200 2550 (1963) 276 (1936) 773 390 450 503 560 729 894 1010 1150 1310
2020-07-29 16:45 3.97 1200 2550 (1963) 276 (1936) 773 390 450 503 560 729 894 1010 1150 1310
2020-07-29 15:45 3.98 1210 2550 (1963) 276 (1936) 773 390 450 503 560 729 894 1010 1150 1310
2020-07-29 14:45 3.97 1200 2550 (1963) 276 (1936) 773 390 450 503 560 729 894 1010 1150 1310
2020-07-29 13:45 3.97 1200 2550 (1963) 276 (1936) 773 390 450 503 560 729 894 1010 1150 1310
2020-07-29 12:45 3.96 1200 2550 (1963) 276 (1936) 773 390 450 503 560 729 894 1010 1150 1310
2020-07-29 11:45 3.92 1170 2550 (1963) 276 (1936) 773 390 450 503 560 729 894 1010 1150 1310
2020-07-29 10:45 3.97 1200 2550 (1963) 276 (1936) 773 390 450 503 560 729 894 1010 1150 1310
2020-07-29 09:45 3.95 1190 2550 (1963) 276 (1936) 773 390 450 503 560 729 894 1010 1150 1310
2020-07-29 08:45 3.95 1190 2550 (1963) 276 (1936) 773 390 450 503 560 729 894 1010 1150 1310
2020-07-29 07:45 3.96 1200 2550 (1963) 276 (1936) 773 390 450 503 560 729 894 1010 1150 1310
2020-07-29 06:45 3.96 1200 2550 (1963) 276 (1936) 773 390 450 503 560 729 894 1010 1150 1310
2020-07-29 05:45 3.95 1190 2550 (1963) 276 (1936) 773 390 450 503 560 729 894 1010 1150 1310
2020-07-29 04:45 3.95 1190 2550 (1963) 276 (1936) 773 390 450 503 560 729 894 1010 1150 1310
2020-07-29 03:45 3.96 1200 2550 (1963) 276 (1936) 773 390 450 503 560 729 894 1010 1150 1310
2020-07-29 02:45 3.95 1190 2550 (1963) 276 (1936) 773 390 450 503 560 729 894 1010 1150 1310
2020-07-29 01:45 3.95 1190 2550 (1963) 276 (1936) 773 390 450 503 560 729 894 1010 1150 1310
2020-07-29 00:45 3.94 1180 2550 (1963) 276 (1936) 773 390 450 503 560 729 894 1010 1150 1310
2020-07-28 23:45 3.94 1180 1700 (2015) 267 (1936) 742 390 455 509 549 688 848 1010 1140 1200
2020-07-28 22:45 3.94 1180 1700 (2015) 267 (1936) 742 390 455 509 549 688 848 1010 1140 1200
2020-07-28 21:45 3.94 1180 1700 (2015) 267 (1936) 742 390 455 509 549 688 848 1010 1140 1200
2020-07-28 20:45 3.94 1180 1700 (2015) 267 (1936) 742 390 455 509 549 688 848 1010 1140 1200
2020-07-28 19:45 3.94 1180 1700 (2015) 267 (1936) 742 390 455 509 549 688 848 1010 1140 1200
2020-07-28 18:45 3.94 1180 1700 (2015) 267 (1936) 742 390 455 509 549 688 848 1010 1140 1200
2020-07-28 17:45 3.93 1180 1700 (2015) 267 (1936) 742 390 455 509 549 688 848 1010 1140 1200
2020-07-28 16:45 3.94 1180 1700 (2015) 267 (1936) 742 390 455 509 549 688 848 1010 1140 1200
2020-07-28 15:45 3.93 1180 1700 (2015) 267 (1936) 742 390 455 509 549 688 848 1010 1140 1200
2020-07-28 14:45 3.94 1180 1700 (2015) 267 (1936) 742 390 455 509 549 688 848 1010 1140 1200
2020-07-28 13:45 3.94 1180 1700 (2015) 267 (1936) 742 390 455 509 549 688 848 1010 1140 1200
2020-07-28 12:45 3.96 1200 1700 (2015) 267 (1936) 742 390 455 509 549 688 848 1010 1140 1200
2020-07-28 11:45 3.96 1200 1700 (2015) 267 (1936) 742 390 455 509 549 688 848 1010 1140 1200
2020-07-28 10:45 3.94 1180 1700 (2015) 267 (1936) 742 390 455 509 549 688 848 1010 1140 1200
2020-07-28 09:45 3.94 1180 1700 (2015) 267 (1936) 742 390 455 509 549 688 848 1010 1140 1200
2020-07-28 08:45 3.92 1170 1700 (2015) 267 (1936) 742 390 455 509 549 688 848 1010 1140 1200
2020-07-28 07:45 3.93 1180 1700 (2015) 267 (1936) 742 390 455 509 549 688 848 1010 1140 1200
2020-07-28 06:45 3.93 1180 1700 (2015) 267 (1936) 742 390 455 509 549 688 848 1010 1140 1200
2020-07-28 05:45 3.93 1180 1700 (2015) 267 (1936) 742 390 455 509 549 688 848 1010 1140 1200
2020-07-28 04:45 3.93 1180 1700 (2015) 267 (1936) 742 390 455 509 549 688 848 1010 1140 1200
2020-07-28 03:45 3.93 1180 1700 (2015) 267 (1936) 742 390 455 509 549 688 848 1010 1140 1200
2020-07-28 02:45 3.93 1180 1700 (2015) 267 (1936) 742 390 455 509 549 688 848 1010 1140 1200
2020-07-28 01:45 3.93 1180 1700 (2015) 267 (1936) 742 390 455 509 549 688 848 1010 1140 1200
2020-07-28 00:45 3.93 1180 1700 (2015) 267 (1936) 742 390 455 509 549 688 848 1010 1140 1200
2020-07-27 23:45 3.93 1180 1550 (2015) 295 (1936) 747 429 454 516 541 690 859 921 1150 1300
2020-07-27 22:45 3.94 1180 1550 (2015) 295 (1936) 747 429 454 516 541 690 859 921 1150 1300
2020-07-27 21:45 3.94 1180 1550 (2015) 295 (1936) 747 429 454 516 541 690 859 921 1150 1300
2020-07-27 20:45 3.94 1180 1550 (2015) 295 (1936) 747 429 454 516 541 690 859 921 1150 1300
2020-07-27 19:45 3.94 1180 1550 (2015) 295 (1936) 747 429 454 516 541 690 859 921 1150 1300
2020-07-27 18:45 3.94 1180 1550 (2015) 295 (1936) 747 429 454 516 541 690 859 921 1150 1300
2020-07-27 17:45 3.94 1180 1550 (2015) 295 (1936) 747 429 454 516 541 690 859 921 1150 1300
2020-07-27 16:45 3.96 1200 1550 (2015) 295 (1936) 747 429 454 516 541 690 859 921 1150 1300
2020-07-27 15:45 3.95 1190 1550 (2015) 295 (1936) 747 429 454 516 541 690 859 921 1150 1300
2020-07-27 14:45 3.95 1190 1550 (2015) 295 (1936) 747 429 454 516 541 690 859 921 1150 1300
2020-07-27 13:45 3.96 1200 1550 (2015) 295 (1936) 747 429 454 516 541 690 859 921 1150 1300
2020-07-27 12:45 3.95 1190 1550 (2015) 295 (1936) 747 429 454 516 541 690 859 921 1150 1300
2020-07-27 11:45 3.95 1190 1550 (2015) 295 (1936) 747 429 454 516 541 690 859 921 1150 1300
2020-07-27 10:45 3.94 1180 1550 (2015) 295 (1936) 747 429 454 516 541 690 859 921 1150 1300
2020-07-27 09:45 3.95 1190 1550 (2015) 295 (1936) 747 429 454 516 541 690 859 921 1150 1300
2020-07-27 08:45 3.95 1190 1550 (2015) 295 (1936) 747 429 454 516 541 690 859 921 1150 1300
2020-07-27 07:45 3.94 1180 1550 (2015) 295 (1936) 747 429 454 516 541 690 859 921 1150 1300
2020-07-27 06:45 3.95 1190 1550 (2015) 295 (1936) 747 429 454 516 541 690 859 921 1150 1300
2020-07-27 05:45 3.95 1190 1550 (2015) 295 (1936) 747 429 454 516 541 690 859 921 1150 1300
2020-07-27 04:45 3.95 1190 1550 (2015) 295 (1936) 747 429 454 516 541 690 859 921 1150 1300
2020-07-27 03:45 3.95 1190 1550 (2015) 295 (1936) 747 429 454 516 541 690 859 921 1150 1300
2020-07-27 02:45 3.95 1190 1550 (2015) 295 (1936) 747 429 454 516 541 690 859 921 1150 1300
2020-07-27 01:45 3.96 1200 1550 (2015) 295 (1936) 747 429 454 516 541 690 859 921 1150 1300
2020-07-27 00:45 3.96 1200 1550 (2015) 295 (1936) 747 429 454 516 541 690 859 921 1150 1300
2020-07-26 23:45 3.96 1200 1720 (2015) 305 (1936) 766 390 465 520 559 697 859 983 1170 1400
2020-07-26 22:45 3.96 1200 1720 (2015) 305 (1936) 766 390 465 520 559 697 859 983 1170 1400
2020-07-26 21:45 3.96 1200 1720 (2015) 305 (1936) 766 390 465 520 559 697 859 983 1170 1400
2020-07-26 20:45 3.96 1200 1720 (2015) 305 (1936) 766 390 465 520 559 697 859 983 1170 1400
2020-07-26 19:45 3.97 1200 1720 (2015) 305 (1936) 766 390 465 520 559 697 859 983 1170 1400
2020-07-26 18:45 3.97 1200 1720 (2015) 305 (1936) 766 390 465 520 559 697 859 983 1170 1400
2020-07-26 17:45 3.98 1210 1720 (2015) 305 (1936) 766 390 465 520 559 697 859 983 1170 1400
2020-07-26 16:45 3.98 1210 1720 (2015) 305 (1936) 766 390 465 520 559 697 859 983 1170 1400
2020-07-26 15:45 3.95 1190 1720 (2015) 305 (1936) 766 390 465 520 559 697 859 983 1170 1400
2020-07-26 14:45 3.94 1180 1720 (2015) 305 (1936) 766 390 465 520 559 697 859 983 1170 1400
2020-07-26 13:45 3.96 1200 1720 (2015) 305 (1936) 766 390 465 520 559 697 859 983 1170 1400
2020-07-26 12:45 3.98 1210 1720 (2015) 305 (1936) 766 390 465 520 559 697 859 983 1170 1400
2020-07-26 11:45 3.98 1210 1720 (2015) 305 (1936) 766 390 465 520 559 697 859 983 1170 1400
2020-07-26 10:45 3.97 1200 1720 (2015) 305 (1936) 766 390 465 520 559 697 859 983 1170 1400
2020-07-26 09:45 3.97 1200 1720 (2015) 305 (1936) 766 390 465 520 559 697 859 983 1170 1400
2020-07-26 08:45 3.97 1200 1720 (2015) 305 (1936) 766 390 465 520 559 697 859 983 1170 1400
2020-07-26 07:45 3.98 1210 1720 (2015) 305 (1936) 766 390 465 520 559 697 859 983 1170 1400
2020-07-26 06:45 3.98 1210 1720 (2015) 305 (1936) 766 390 465 520 559 697 859 983 1170 1400
2020-07-26 05:45 3.98 1210 1720 (2015) 305 (1936) 766 390 465 520 559 697 859 983 1170 1400
2020-07-26 04:45 3.98 1210 1720 (2015) 305 (1936) 766 390 465 520 559 697 859 983 1170 1400
2020-07-26 03:45 3.98 1210 1720 (2015) 305 (1936) 766 390 465 520 559 697 859 983 1170 1400
2020-07-26 02:45 3.99 1220 1720 (2015) 305 (1936) 766 390 465 520 559 697 859 983 1170 1400
2020-07-26 01:45 3.98 1210 1720 (2015) 305 (1936) 766 390 465 520 559 697 859 983 1170 1400
2020-07-26 00:45 3.99 1220 1720 (2015) 305 (1936) 766 390 465 520 559 697 859 983 1170 1400
2020-07-25 23:45 3.99 1220 2170 (2015) 295 (1936) 777 402 487 540 582 727 883 983 1180 1340
2020-07-25 22:45 3.99 1220 2170 (2015) 295 (1936) 777 402 487 540 582 727 883 983 1180 1340
2020-07-25 21:45 3.99 1220 2170 (2015) 295 (1936) 777 402 487 540 582 727 883 983 1180 1340
2020-07-25 20:45 3.99 1220 2170 (2015) 295 (1936) 777 402 487 540 582 727 883 983 1180 1340
2020-07-25 19:45 4.00 1230 2170 (2015) 295 (1936) 777 402 487 540 582 727 883 983 1180 1340
2020-07-25 18:45 4.00 1230 2170 (2015) 295 (1936) 777 402 487 540 582 727 883 983 1180 1340
2020-07-25 17:45 4.01 1230 2170 (2015) 295 (1936) 777 402 487 540 582 727 883 983 1180 1340
2020-07-25 16:45 4.00 1230 2170 (2015) 295 (1936) 777 402 487 540 582 727 883 983 1180 1340
2020-07-25 15:45 3.97 1200 2170 (2015) 295 (1936) 777 402 487 540 582 727 883 983 1180 1340
2020-07-25 14:45 3.98 1210 2170 (2015) 295 (1936) 777 402 487 540 582 727 883 983 1180 1340
2020-07-25 13:45 3.99 1220 2170 (2015) 295 (1936) 777 402 487 540 582 727 883 983 1180 1340
2020-07-25 12:45 3.97 1200 2170 (2015) 295 (1936) 777 402 487 540 582 727 883 983 1180 1340
2020-07-25 11:45 4.01 1230 2170 (2015) 295 (1936) 777 402 487 540 582 727 883 983 1180 1340
2020-07-25 10:45 4.01 1230 2170 (2015) 295 (1936) 777 402 487 540 582 727 883 983 1180 1340
2020-07-25 09:45 4.01 1230 2170 (2015) 295 (1936) 777 402 487 540 582 727 883 983 1180 1340
2020-07-25 08:45 4.01 1230 2170 (2015) 295 (1936) 777 402 487 540 582 727 883 983 1180 1340
2020-07-25 07:45 4.01 1230 2170 (2015) 295 (1936) 777 402 487 540 582 727 883 983 1180 1340
2020-07-25 06:45 4.01 1230 2170 (2015) 295 (1936) 777 402 487 540 582 727 883 983 1180 1340
2020-07-25 05:45 4.01 1230 2170 (2015) 295 (1936) 777 402 487 540 582 727 883 983 1180 1340
2020-07-25 04:45 4.02 1240 2170 (2015) 295 (1936) 777 402 487 540 582 727 883 983 1180 1340
2020-07-25 03:45 4.02 1240 2170 (2015) 295 (1936) 777 402 487 540 582 727 883 983 1180 1340
2020-07-25 02:45 4.02 1240 2170 (2015) 295 (1936) 777 402 487 540 582 727 883 983 1180 1340
2020-07-25 01:45 4.02 1240 2170 (2015) 295 (1936) 777 402 487 540 582 727 883 983 1180 1340
2020-07-25 00:45 4.03 1250 2170 (2015) 295 (1936) 777 402 487 540 582 727 883 983 1180 1340
2020-07-24 23:45 4.03 1250 2510 (2015) 281 (1936) 779 396 466 524 571 719 871 1000 1190 1250
2020-07-24 22:45 4.03 1250 2510 (2015) 281 (1936) 779 396 466 524 571 719 871 1000 1190 1250
2020-07-24 21:45 4.03 1250 2510 (2015) 281 (1936) 779 396 466 524 571 719 871 1000 1190 1250
2020-07-24 20:45 4.03 1250 2510 (2015) 281 (1936) 779 396 466 524 571 719 871 1000 1190 1250
2020-07-24 19:45 4.04 1250 2510 (2015) 281 (1936) 779 396 466 524 571 719 871 1000 1190 1250
2020-07-24 18:45 4.02 1240 2510 (2015) 281 (1936) 779 396 466 524 571 719 871 1000 1190 1250
2020-07-24 17:45 4.06 1270 2510 (2015) 281 (1936) 779 396 466 524 571 719 871 1000 1190 1250
2020-07-24 16:45 4.05 1260 2510 (2015) 281 (1936) 779 396 466 524 571 719 871 1000 1190 1250
2020-07-24 15:45 4.04 1250 2510 (2015) 281 (1936) 779 396 466 524 571 719 871 1000 1190 1250
2020-07-24 14:45 4.07 1280 2510 (2015) 281 (1936) 779 396 466 524 571 719 871 1000 1190 1250
2020-07-24 13:45 4.06 1270 2510 (2015) 281 (1936) 779 396 466 524 571 719 871 1000 1190 1250
2020-07-24 12:45 4.06 1270 2510 (2015) 281 (1936) 779 396 466 524 571 719 871 1000 1190 1250
2020-07-24 11:45 4.07 1280 2510 (2015) 281 (1936) 779 396 466 524 571 719 871 1000 1190 1250
2020-07-24 10:45 4.08 1280 2510 (2015) 281 (1936) 779 396 466 524 571 719 871 1000 1190 1250
2020-07-24 09:45 4.07 1280 2510 (2015) 281 (1936) 779 396 466 524 571 719 871 1000 1190 1250
2020-07-24 08:45 4.07 1280 2510 (2015) 281 (1936) 779 396 466 524 571 719 871 1000 1190 1250
2020-07-24 07:45 4.08 1280 2510 (2015) 281 (1936) 779 396 466 524 571 719 871 1000 1190 1250
2020-07-24 06:45 4.08 1280 2510 (2015) 281 (1936) 779 396 466 524 571 719 871 1000 1190 1250
2020-07-24 05:45 4.09 1290 2510 (2015) 281 (1936) 779 396 466 524 571 719 871 1000 1190 1250
2020-07-24 04:45 4.10 1300 2510 (2015) 281 (1936) 779 396 466 524 571 719 871 1000 1190 1250
2020-07-24 03:45 4.10 1300 2510 (2015) 281 (1936) 779 396 466 524 571 719 871 1000 1190 1250
2020-07-24 02:45 4.10 1300 2510 (2015) 281 (1936) 779 396 466 524 571 719 871 1000 1190 1250
2020-07-24 01:45 4.11 1300 2510 (2015) 281 (1936) 779 396 466 524 571 719 871 1000 1190 1250
2020-07-24 00:45 4.12 1310 2510 (2015) 281 (1936) 779 396 466 524 571 719 871 1000 1190 1250
2020-07-23 23:45 4.12 1310 1600 (2015) 276 (1936) 779 390 470 553 576 741 916 983 1200 1360
2020-07-23 22:45 4.12 1310 1600 (2015) 276 (1936) 779 390 470 553 576 741 916 983 1200 1360
2020-07-23 21:45 4.13 1320 1600 (2015) 276 (1936) 779 390 470 553 576 741 916 983 1200 1360
2020-07-23 20:45 4.14 1330 1600 (2015) 276 (1936) 779 390 470 553 576 741 916 983 1200 1360
2020-07-23 19:45 4.15 1330 1600 (2015) 276 (1936) 779 390 470 553 576 741 916 983 1200 1360
2020-07-23 18:45 4.16 1340 1600 (2015) 276 (1936) 779 390 470 553 576 741 916 983 1200 1360
2020-07-23 17:45 4.17 1350 1600 (2015) 276 (1936) 779 390 470 553 576 741 916 983 1200 1360
2020-07-23 16:45 4.18 1360 1600 (2015) 276 (1936) 779 390 470 553 576 741 916 983 1200 1360
2020-07-23 15:45 4.17 1350 1600 (2015) 276 (1936) 779 390 470 553 576 741 916 983 1200 1360
2020-07-23 14:45 4.19 1360 1600 (2015) 276 (1936) 779 390 470 553 576 741 916 983 1200 1360
2020-07-23 13:45 4.20 1370 1600 (2015) 276 (1936) 779 390 470 553 576 741 916 983 1200 1360
2020-07-23 12:45 4.17 1350 1600 (2015) 276 (1936) 779 390 470 553 576 741 916 983 1200 1360
2020-07-23 11:45 4.18 1360 1600 (2015) 276 (1936) 779 390 470 553 576 741 916 983 1200 1360
2020-07-23 10:45 4.16 1340 1600 (2015) 276 (1936) 779 390 470 553 576 741 916 983 1200 1360
2020-07-23 09:45 4.16 1340 1600 (2015) 276 (1936) 779 390 470 553 576 741 916 983 1200 1360
2020-07-23 08:45 4.14 1330 1600 (2015) 276 (1936) 779 390 470 553 576 741 916 983 1200 1360
2020-07-23 07:45 4.12 1310 1600 (2015) 276 (1936) 779 390 470 553 576 741 916 983 1200 1360
2020-07-23 06:45 4.10 1300 1600 (2015) 276 (1936) 779 390 470 553 576 741 916 983 1200 1360
2020-07-23 05:45 4.09 1290 1600 (2015) 276 (1936) 779 390 470 553 576 741 916 983 1200 1360
2020-07-23 04:45 4.08 1280 1600 (2015) 276 (1936) 779 390 470 553 576 741 916 983 1200 1360
2020-07-23 03:45 4.07 1280 1600 (2015) 276 (1936) 779 390 470 553 576 741 916 983 1200 1360
2020-07-23 02:45 4.07 1280 1600 (2015) 276 (1936) 779 390 470 553 576 741 916 983 1200 1360
2020-07-23 01:45 4.08 1280 1600 (2015) 276 (1936) 779 390 470 553 576 741 916 983 1200 1360
2020-07-23 00:45 4.08 1280 1600 (2015) 276 (1936) 779 390 470 553 576 741 916 983 1200 1360
2020-07-22 23:45 4.07 1280 2500 (1958) 286 (1936) 795 390 466 540 562 739 901 983 1200 1400
2020-07-22 22:45 4.06 1270 2500 (1958) 286 (1936) 795 390 466 540 562 739 901 983 1200 1400
2020-07-22 21:45 4.06 1270 2500 (1958) 286 (1936) 795 390 466 540 562 739 901 983 1200 1400
2020-07-22 20:45 4.06 1270 2500 (1958) 286 (1936) 795 390 466 540 562 739 901 983 1200 1400
2020-07-22 19:45 4.06 1270 2500 (1958) 286 (1936) 795 390 466 540 562 739 901 983 1200 1400
2020-07-22 18:45 4.05 1260 2500 (1958) 286 (1936) 795 390 466 540 562 739 901 983 1200 1400
2020-07-22 17:45 4.06 1270 2500 (1958) 286 (1936) 795 390 466 540 562 739 901 983 1200 1400
2020-07-22 16:45 4.06 1270 2500 (1958) 286 (1936) 795 390 466 540 562 739 901 983 1200 1400
2020-07-22 15:45 4.06 1270 2500 (1958) 286 (1936) 795 390 466 540 562 739 901 983 1200 1400
2020-07-22 14:45 4.07 1280 2500 (1958) 286 (1936) 795 390 466 540 562 739 901 983 1200 1400
2020-07-22 13:45 4.03 1250 2500 (1958) 286 (1936) 795 390 466 540 562 739 901 983 1200 1400
2020-07-22 12:45 4.05 1260 2500 (1958) 286 (1936) 795 390 466 540 562 739 901 983 1200 1400
2020-07-22 11:45 4.05 1260 2500 (1958) 286 (1936) 795 390 466 540 562 739 901 983 1200 1400
2020-07-22 10:45 4.03 1250 2500 (1958) 286 (1936) 795 390 466 540 562 739 901 983 1200 1400
2020-07-22 09:45 4.04 1250 2500 (1958) 286 (1936) 795 390 466 540 562 739 901 983 1200 1400
2020-07-22 08:45 4.04 1250 2500 (1958) 286 (1936) 795 390 466 540 562 739 901 983 1200 1400
2020-07-22 07:45 4.04 1250 2500 (1958) 286 (1936) 795 390 466 540 562 739 901 983 1200 1400
2020-07-22 06:45 4.04 1250 2500 (1958) 286 (1936) 795 390 466 540 562 739 901 983 1200 1400
2020-07-22 05:45 4.05 1260 2500 (1958) 286 (1936) 795 390 466 540 562 739 901 983 1200 1400
2020-07-22 04:45 4.05 1260 2500 (1958) 286 (1936) 795 390 466 540 562 739 901 983 1200 1400
2020-07-22 03:45 4.05 1260 2500 (1958) 286 (1936) 795 390 466 540 562 739 901 983 1200 1400
2020-07-22 02:45 4.05 1260 2500 (1958) 286 (1936) 795 390 466 540 562 739 901 983 1200 1400
2020-07-22 01:45 4.05 1260 2500 (1958) 286 (1936) 795 390 466 540 562 739 901 983 1200 1400
2020-07-22 00:45 4.05 1260 2500 (1958) 286 (1936) 795 390 466 540 562 739 901 983 1200 1400
2020-07-21 23:45 4.04 1250 1660 (1958) 376 (1954) 809 416 486 553 605 753 904 1020 1270 1530
2020-07-21 22:45 4.04 1250 1660 (1958) 376 (1954) 809 416 486 553 605 753 904 1020 1270 1530
2020-07-21 21:45 4.04 1250 1660 (1958) 376 (1954) 809 416 486 553 605 753 904 1020 1270 1530
2020-07-21 20:45 4.04 1250 1660 (1958) 376 (1954) 809 416 486 553 605 753 904 1020 1270 1530
2020-07-21 19:45 4.02 1240 1660 (1958) 376 (1954) 809 416 486 553 605 753 904 1020 1270 1530
2020-07-21 18:45 4.05 1260 1660 (1958) 376 (1954) 809 416 486 553 605 753 904 1020 1270 1530
2020-07-21 17:45 4.05 1260 1660 (1958) 376 (1954) 809 416 486 553 605 753 904 1020 1270 1530
2020-07-21 16:45 4.05 1260 1660 (1958) 376 (1954) 809 416 486 553 605 753 904 1020 1270 1530
2020-07-21 15:45 4.05 1260 1660 (1958) 376 (1954) 809 416 486 553 605 753 904 1020 1270 1530
2020-07-21 14:45 4.05 1260 1660 (1958) 376 (1954) 809 416 486 553 605 753 904 1020 1270 1530
2020-07-21 13:45 4.02 1240 1660 (1958) 376 (1954) 809 416 486 553 605 753 904 1020 1270 1530
2020-07-21 12:45 4.04 1250 1660 (1958) 376 (1954) 809 416 486 553 605 753 904 1020 1270 1530
2020-07-21 11:45 4.04 1250 1660 (1958) 376 (1954) 809 416 486 553 605 753 904 1020 1270 1530
2020-07-21 10:45 4.05 1260 1660 (1958) 376 (1954) 809 416 486 553 605 753 904 1020 1270 1530
2020-07-21 09:45 4.04 1250 1660 (1958) 376 (1954) 809 416 486 553 605 753 904 1020 1270 1530
2020-07-21 08:45 4.04 1250 1660 (1958) 376 (1954) 809 416 486 553 605 753 904 1020 1270 1530
2020-07-21 07:45 4.06 1270 1660 (1958) 376 (1954) 809 416 486 553 605 753 904 1020 1270 1530
2020-07-21 06:45 4.04 1250 1660 (1958) 376 (1954) 809 416 486 553 605 753 904 1020 1270 1530
2020-07-21 05:45 4.05 1260 1660 (1958) 376 (1954) 809 416 486 553 605 753 904 1020 1270 1530
2020-07-21 04:45 4.06 1270 1660 (1958) 376 (1954) 809 416 486 553 605 753 904 1020 1270 1530
2020-07-21 03:45 4.05 1260 1660 (1958) 376 (1954) 809 416 486 553 605 753 904 1020 1270 1530
2020-07-21 02:45 4.06 1270 1660 (1958) 376 (1954) 809 416 486 553 605 753 904 1020 1270 1530
2020-07-21 01:45 4.06 1270 1660 (1958) 376 (1954) 809 416 486 553 605 753 904 1020 1270 1530
2020-07-21 00:45 4.06 1270 1660 (1958) 376 (1954) 809 416 486 553 605 753 904 1020 1270 1530
2020-07-20 23:45 4.06 1270 2880 (1950) 305 (1936) 837 413 472 552 570 753 950 1060 1330 1440
2020-07-20 22:45 4.06 1270 2880 (1950) 305 (1936) 837 413 472 552 570 753 950 1060 1330 1440
2020-07-20 21:45 4.06 1270 2880 (1950) 305 (1936) 837 413 472 552 570 753 950 1060 1330 1440
2020-07-20 20:45 4.07 1280 2880 (1950) 305 (1936) 837 413 472 552 570 753 950 1060 1330 1440
2020-07-20 19:45 4.07 1280 2880 (1950) 305 (1936) 837 413 472 552 570 753 950 1060 1330 1440
2020-07-20 18:45 4.08 1280 2880 (1950) 305 (1936) 837 413 472 552 570 753 950 1060 1330 1440
2020-07-20 17:45 4.08 1280 2880 (1950) 305 (1936) 837 413 472 552 570 753 950 1060 1330 1440
2020-07-20 16:45 4.08 1280 2880 (1950) 305 (1936) 837 413 472 552 570 753 950 1060 1330 1440
2020-07-20 15:45 4.09 1290 2880 (1950) 305 (1936) 837 413 472 552 570 753 950 1060 1330 1440
2020-07-20 14:45 4.07 1280 2880 (1950) 305 (1936) 837 413 472 552 570 753 950 1060 1330 1440
2020-07-20 13:45 4.08 1280 2880 (1950) 305 (1936) 837 413 472 552 570 753 950 1060 1330 1440
2020-07-20 12:45 4.08 1280 2880 (1950) 305 (1936) 837 413 472 552 570 753 950 1060 1330 1440
2020-07-20 11:45 4.08 1280 2880 (1950) 305 (1936) 837 413 472 552 570 753 950 1060 1330 1440
2020-07-20 10:45 4.08 1280 2880 (1950) 305 (1936) 837 413 472 552 570 753 950 1060 1330 1440
2020-07-20 09:45 4.08 1280 2880 (1950) 305 (1936) 837 413 472 552 570 753 950 1060 1330 1440
2020-07-20 08:45 4.09 1290 2880 (1950) 305 (1936) 837 413 472 552 570 753 950 1060 1330 1440
2020-07-20 07:45 4.09 1290 2880 (1950) 305 (1936) 837 413 472 552 570 753 950 1060 1330 1440
2020-07-20 06:45 4.10 1300 2880 (1950) 305 (1936) 837 413 472 552 570 753 950 1060 1330 1440
2020-07-20 05:45 4.10 1300 2880 (1950) 305 (1936) 837 413 472 552 570 753 950 1060 1330 1440
2020-07-20 04:45 4.08 1280 2880 (1950) 305 (1936) 837 413 472 552 570 753 950 1060 1330 1440
2020-07-20 03:45 4.10 1300 2880 (1950) 305 (1936) 837 413 472 552 570 753 950 1060 1330 1440
2020-07-20 02:45 4.10 1300 2880 (1950) 305 (1936) 837 413 472 552 570 753 950 1060 1330 1440
2020-07-20 01:45 4.11 1300 2880 (1950) 305 (1936) 837 413 472 552 570 753 950 1060 1330 1440
2020-07-20 00:45 4.12 1310 2880 (1950) 305 (1936) 837 413 472 552 570 753 950 1060 1330 1440
2020-07-19 23:45 4.11 1300 2370 (2002) 290 (1936) 848 420 471 555 594 780 964 1080 1360 1590
2020-07-19 22:45 4.12 1310 2370 (2002) 290 (1936) 848 420 471 555 594 780 964 1080 1360 1590
2020-07-19 21:45 4.12 1310 2370 (2002) 290 (1936) 848 420 471 555 594 780 964 1080 1360 1590
2020-07-19 20:45 4.12 1310 2370 (2002) 290 (1936) 848 420 471 555 594 780 964 1080 1360 1590
2020-07-19 19:45 4.13 1320 2370 (2002) 290 (1936) 848 420 471 555 594 780 964 1080 1360 1590
2020-07-19 18:45 4.14 1330 2370 (2002) 290 (1936) 848 420 471 555 594 780 964 1080 1360 1590
2020-07-19 17:45 4.14 1330 2370 (2002) 290 (1936) 848 420 471 555 594 780 964 1080 1360 1590
2020-07-19 16:45 4.15 1330 2370 (2002) 290 (1936) 848 420 471 555 594 780 964 1080 1360 1590
2020-07-19 15:45 4.13 1320 2370 (2002) 290 (1936) 848 420 471 555 594 780 964 1080 1360 1590
2020-07-19 14:45 4.16 1340 2370 (2002) 290 (1936) 848 420 471 555 594 780 964 1080 1360 1590
2020-07-19 13:45 4.15 1330 2370 (2002) 290 (1936) 848 420 471 555 594 780 964 1080 1360 1590
2020-07-19 12:45 4.14 1330 2370 (2002) 290 (1936) 848 420 471 555 594 780 964 1080 1360 1590
2020-07-19 11:45 4.17 1350 2370 (2002) 290 (1936) 848 420 471 555 594 780 964 1080 1360 1590
2020-07-19 10:45 4.17 1350 2370 (2002) 290 (1936) 848 420 471 555 594 780 964 1080 1360 1590
2020-07-19 09:45 4.17 1350 2370 (2002) 290 (1936) 848 420 471 555 594 780 964 1080 1360 1590
2020-07-19 08:45 4.18 1360 2370 (2002) 290 (1936) 848 420 471 555 594 780 964 1080 1360 1590
2020-07-19 07:45 4.18 1360 2370 (2002) 290 (1936) 848 420 471 555 594 780 964 1080 1360 1590
2020-07-19 06:45 4.19 1360 2370 (2002) 290 (1936) 848 420 471 555 594 780 964 1080 1360 1590
2020-07-19 05:45 4.20 1370 2370 (2002) 290 (1936) 848 420 471 555 594 780 964 1080 1360 1590
2020-07-19 04:45 4.20 1370 2370 (2002) 290 (1936) 848 420 471 555 594 780 964 1080 1360 1590
2020-07-19 03:45 4.21 1380 2370 (2002) 290 (1936) 848 420 471 555 594 780 964 1080 1360 1590
2020-07-19 02:45 4.22 1380 2370 (2002) 290 (1936) 848 420 471 555 594 780 964 1080 1360 1590
2020-07-19 01:45 4.23 1390 2370 (2002) 290 (1936) 848 420 471 555 594 780 964 1080 1360 1590
2020-07-19 00:45 4.24 1400 2370 (2002) 290 (1936) 848 420 471 555 594 780 964 1080 1360 1590
2020-07-18 23:45 4.25 1410 1820 (1951) 281 (1936) 801 390 482 548 568 744 949 1030 1250 1490
2020-07-18 22:45 4.26 1410 1820 (1951) 281 (1936) 801 390 482 548 568 744 949 1030 1250 1490
2020-07-18 21:45 4.28 1430 1820 (1951) 281 (1936) 801 390 482 548 568 744 949 1030 1250 1490
2020-07-18 20:45 4.29 1440 1820 (1951) 281 (1936) 801 390 482 548 568 744 949 1030 1250 1490
2020-07-18 19:45 4.30 1440 1820 (1951) 281 (1936) 801 390 482 548 568 744 949 1030 1250 1490
2020-07-18 18:45 4.31 1450 1820 (1951) 281 (1936) 801 390 482 548 568 744 949 1030 1250 1490
2020-07-18 17:45 4.33 1470 1820 (1951) 281 (1936) 801 390 482 548 568 744 949 1030 1250 1490
2020-07-18 16:45 4.38 1500 1820 (1951) 281 (1936) 801 390 482 548 568 744 949 1030 1250 1490
2020-07-18 15:45 4.42 1530 1820 (1951) 281 (1936) 801 390 482 548 568 744 949 1030 1250 1490
2020-07-18 14:45 4.43 1540 1820 (1951) 281 (1936) 801 390 482 548 568 744 949 1030 1250 1490
2020-07-18 13:45 4.44 1550 1820 (1951) 281 (1936) 801 390 482 548 568 744 949 1030 1250 1490
2020-07-18 12:45 4.45 1560 1820 (1951) 281 (1936) 801 390 482 548 568 744 949 1030 1250 1490
2020-07-18 11:45 4.46 1560 1820 (1951) 281 (1936) 801 390 482 548 568 744 949 1030 1250 1490
2020-07-18 10:45 4.48 1580 1820 (1951) 281 (1936) 801 390 482 548 568 744 949 1030 1250 1490
2020-07-18 09:45 4.51 1600 1820 (1951) 281 (1936) 801 390 482 548 568 744 949 1030 1250 1490
2020-07-18 08:45 4.54 1620 1820 (1951) 281 (1936) 801 390 482 548 568 744 949 1030 1250 1490
2020-07-18 07:45 4.61 1680 1820 (1951) 281 (1936) 801 390 482 548 568 744 949 1030 1250 1490
2020-07-18 06:45 4.69 1740 1820 (1951) 281 (1936) 801 390 482 548 568 744 949 1030 1250 1490
2020-07-18 05:45 4.80 1830 1820 (1951) 281 (1936) 801 390 482 548 568 744 949 1030 1250 1490
2020-07-18 04:45 4.94 1940 1820 (1951) 281 (1936) 801 390 482 548 568 744 949 1030 1250 1490
2020-07-18 03:45 5.11 2080 1820 (1951) 281 (1936) 801 390 482 548 568 744 949 1030 1250 1490
2020-07-18 02:45 5.24 2180 1820 (1951) 281 (1936) 801 390 482 548 568 744 949 1030 1250 1490
2020-07-18 01:45 5.29 2230 1820 (1951) 281 (1936) 801 390 482 548 568 744 949 1030 1250 1490
2020-07-18 00:45 5.17 2130 1820 (1951) 281 (1936) 801 390 482 548 568 744 949 1030 1250 1490
2020-07-17 23:45 4.87 1880 1890 (1951) 305 (1936) 820 376 487 552 570 757 984 1050 1270 1540
2020-07-17 22:45 4.51 1600 1890 (1951) 305 (1936) 820 376 487 552 570 757 984 1050 1270 1540
2020-07-17 21:45 4.28 1430 1890 (1951) 305 (1936) 820 376 487 552 570 757 984 1050 1270 1540
2020-07-17 20:45 4.19 1360 1890 (1951) 305 (1936) 820 376 487 552 570 757 984 1050 1270 1540
2020-07-17 19:45 4.14 1330 1890 (1951) 305 (1936) 820 376 487 552 570 757 984 1050 1270 1540
2020-07-17 18:45 4.13 1320 1890 (1951) 305 (1936) 820 376 487 552 570 757 984 1050 1270 1540
2020-07-17 17:45 4.12 1310 1890 (1951) 305 (1936) 820 376 487 552 570 757 984 1050 1270 1540
2020-07-17 16:45 4.12 1310 1890 (1951) 305 (1936) 820 376 487 552 570 757 984 1050 1270 1540
2020-07-17 15:45 4.13 1320 1890 (1951) 305 (1936) 820 376 487 552 570 757 984 1050 1270 1540
2020-07-17 14:45 4.09 1290 1890 (1951) 305 (1936) 820 376 487 552 570 757 984 1050 1270 1540
2020-07-17 13:45 4.05 1260 1890 (1951) 305 (1936) 820 376 487 552 570 757 984 1050 1270 1540
2020-07-17 12:45 4.03 1250 1890 (1951) 305 (1936) 820 376 487 552 570 757 984 1050 1270 1540
2020-07-17 11:45 4.04 1250 1890 (1951) 305 (1936) 820 376 487 552 570 757 984 1050 1270 1540
2020-07-17 10:45 4.06 1270 1890 (1951) 305 (1936) 820 376 487 552 570 757 984 1050 1270 1540
2020-07-17 09:45 4.05 1260 1890 (1951) 305 (1936) 820 376 487 552 570 757 984 1050 1270 1540
2020-07-17 08:45 4.05 1260 1890 (1951) 305 (1936) 820 376 487 552 570 757 984 1050 1270 1540
2020-07-17 07:45 4.06 1270 1890 (1951) 305 (1936) 820 376 487 552 570 757 984 1050 1270 1540
2020-07-17 06:45 4.07 1280 1890 (1951) 305 (1936) 820 376 487 552 570 757 984 1050 1270 1540
2020-07-17 05:45 4.07 1280 1890 (1951) 305 (1936) 820 376 487 552 570 757 984 1050 1270 1540
2020-07-17 04:45 4.07 1280 1890 (1951) 305 (1936) 820 376 487 552 570 757 984 1050 1270 1540
2020-07-17 03:45 4.06 1270 1890 (1951) 305 (1936) 820 376 487 552 570 757 984 1050 1270 1540
2020-07-17 02:45 4.07 1280 1890 (1951) 305 (1936) 820 376 487 552 570 757 984 1050 1270 1540
2020-07-17 01:45 4.07 1280 1890 (1951) 305 (1936) 820 376 487 552 570 757 984 1050 1270 1540
2020-07-17 00:45 4.07 1280 1890 (1951) 305 (1936) 820 376 487 552 570 757 984 1050 1270 1540
2020-07-16 23:45 4.07 1280 2020 (1951) 300 (1936) 834 381 487 559 608 781 982 1080 1270 1460
2020-07-16 22:45 4.07 1280 2020 (1951) 300 (1936) 834 381 487 559 608 781 982 1080 1270 1460
2020-07-16 21:45 4.07 1280 2020 (1951) 300 (1936) 834 381 487 559 608 781 982 1080 1270 1460
2020-07-16 20:45 4.08 1280 2020 (1951) 300 (1936) 834 381 487 559 608 781 982 1080 1270 1460
2020-07-16 19:45 4.07 1280 2020 (1951) 300 (1936) 834 381 487 559 608 781 982 1080 1270 1460
2020-07-16 18:45 4.08 1280 2020 (1951) 300 (1936) 834 381 487 559 608 781 982 1080 1270 1460
2020-07-16 17:45 4.05 1260 2020 (1951) 300 (1936) 834 381 487 559 608 781 982 1080 1270 1460
2020-07-16 16:45 4.09 1290 2020 (1951) 300 (1936) 834 381 487 559 608 781 982 1080 1270 1460
2020-07-16 15:45 4.09 1290 2020 (1951) 300 (1936) 834 381 487 559 608 781 982 1080 1270 1460
2020-07-16 14:45 4.09 1290 2020 (1951) 300 (1936) 834 381 487 559 608 781 982 1080 1270 1460
2020-07-16 13:45 4.09 1290 2020 (1951) 300 (1936) 834 381 487 559 608 781 982 1080 1270 1460
2020-07-16 12:45 4.08 1280 2020 (1951) 300 (1936) 834 381 487 559 608 781 982 1080 1270 1460
2020-07-16 11:45 4.07 1280 2020 (1951) 300 (1936) 834 381 487 559 608 781 982 1080 1270 1460
2020-07-16 10:45 4.08 1280 2020 (1951) 300 (1936) 834 381 487 559 608 781 982 1080 1270 1460
2020-07-16 09:45 4.08 1280 2020 (1951) 300 (1936) 834 381 487 559 608 781 982 1080 1270 1460
2020-07-16 08:45 4.08 1280 2020 (1951) 300 (1936) 834 381 487 559 608 781 982 1080 1270 1460
2020-07-16 07:45 4.09 1290 2020 (1951) 300 (1936) 834 381 487 559 608 781 982 1080 1270 1460
2020-07-16 06:45 4.09 1290 2020 (1951) 300 (1936) 834 381 487 559 608 781 982 1080 1270 1460
2020-07-16 05:45 4.08 1280 2020 (1951) 300 (1936) 834 381 487 559 608 781 982 1080 1270 1460
2020-07-16 04:45 4.09 1290 2020 (1951) 300 (1936) 834 381 487 559 608 781 982 1080 1270 1460
2020-07-16 03:45 4.09 1290 2020 (1951) 300 (1936) 834 381 487 559 608 781 982 1080 1270 1460
2020-07-16 02:45 4.09 1290 2020 (1951) 300 (1936) 834 381 487 559 608 781 982 1080 1270 1460
2020-07-16 01:45 4.09 1290 2020 (1951) 300 (1936) 834 381 487 559 608 781 982 1080 1270 1460
2020-07-16 00:45 4.09 1290 2020 (1951) 300 (1936) 834 381 487 559 608 781 982 1080 1270 1460
2020-07-15 23:45 4.09 1290 2230 (1951) 262 (1936) 838 390 477 569 582 786 987 1080 1300 1570
2020-07-15 22:45 4.09 1290 2230 (1951) 262 (1936) 838 390 477 569 582 786 987 1080 1300 1570
2020-07-15 21:45 4.09 1290 2230 (1951) 262 (1936) 838 390 477 569 582 786 987 1080 1300 1570
2020-07-15 20:45 4.10 1300 2230 (1951) 262 (1936) 838 390 477 569 582 786 987 1080 1300 1570
2020-07-15 19:45 4.10 1300 2230 (1951) 262 (1936) 838 390 477 569 582 786 987 1080 1300 1570
2020-07-15 18:45 4.10 1300 2230 (1951) 262 (1936) 838 390 477 569 582 786 987 1080 1300 1570
2020-07-15 17:45 4.11 1300 2230 (1951) 262 (1936) 838 390 477 569 582 786 987 1080 1300 1570
2020-07-15 16:45 4.11 1300 2230 (1951) 262 (1936) 838 390 477 569 582 786 987 1080 1300 1570
2020-07-15 15:45 4.12 1310 2230 (1951) 262 (1936) 838 390 477 569 582 786 987 1080 1300 1570
2020-07-15 14:45 4.10 1300 2230 (1951) 262 (1936) 838 390 477 569 582 786 987 1080 1300 1570
2020-07-15 13:45 4.12 1310 2230 (1951) 262 (1936) 838 390 477 569 582 786 987 1080 1300 1570
2020-07-15 12:45 4.10 1300 2230 (1951) 262 (1936) 838 390 477 569 582 786 987 1080 1300 1570
2020-07-15 11:45 4.10 1300 2230 (1951) 262 (1936) 838 390 477 569 582 786 987 1080 1300 1570
2020-07-15 10:45 4.09 1290 2230 (1951) 262 (1936) 838 390 477 569 582 786 987 1080 1300 1570
2020-07-15 09:45 4.08 1280 2230 (1951) 262 (1936) 838 390 477 569 582 786 987 1080 1300 1570
2020-07-15 08:45 4.08 1280 2230 (1951) 262 (1936) 838 390 477 569 582 786 987 1080 1300 1570
2020-07-15 07:45 4.11 1300 2230 (1951) 262 (1936) 838 390 477 569 582 786 987 1080 1300 1570
2020-07-15 06:45 4.10 1300 2230 (1951) 262 (1936) 838 390 477 569 582 786 987 1080 1300 1570
2020-07-15 05:45 4.11 1300 2230 (1951) 262 (1936) 838 390 477 569 582 786 987 1080 1300 1570
2020-07-15 04:45 4.11 1300 2230 (1951) 262 (1936) 838 390 477 569 582 786 987 1080 1300 1570
2020-07-15 03:45 4.11 1300 2230 (1951) 262 (1936) 838 390 477 569 582 786 987 1080 1300 1570
2020-07-15 02:45 4.11 1300 2230 (1951) 262 (1936) 838 390 477 569 582 786 987 1080 1300 1570
2020-07-15 01:45 4.12 1310 2230 (1951) 262 (1936) 838 390 477 569 582 786 987 1080 1300 1570
2020-07-15 00:45 4.11 1300 2230 (1951) 262 (1936) 838 390 477 569 582 786 987 1080 1300 1570
2020-07-14 23:45 4.11 1300 2640 (1951) 300 (1936) 857 391 471 563 583 788 1030 1090 1330 1660
2020-07-14 22:45 4.11 1300 2640 (1951) 300 (1936) 857 391 471 563 583 788 1030 1090 1330 1660
2020-07-14 21:45 4.12 1310 2640 (1951) 300 (1936) 857 391 471 563 583 788 1030 1090 1330 1660
2020-07-14 20:45 4.12 1310 2640 (1951) 300 (1936) 857 391 471 563 583 788 1030 1090 1330 1660
2020-07-14 19:45 4.12 1310 2640 (1951) 300 (1936) 857 391 471 563 583 788 1030 1090 1330 1660
2020-07-14 18:45 4.12 1310 2640 (1951) 300 (1936) 857 391 471 563 583 788 1030 1090 1330 1660
2020-07-14 17:45 4.13 1320 2640 (1951) 300 (1936) 857 391 471 563 583 788 1030 1090 1330 1660
2020-07-14 16:45 4.11 1300 2640 (1951) 300 (1936) 857 391 471 563 583 788 1030 1090 1330 1660
2020-07-14 15:45 4.10 1300 2640 (1951) 300 (1936) 857 391 471 563 583 788 1030 1090 1330 1660
2020-07-14 14:45 4.13 1320 2640 (1951) 300 (1936) 857 391 471 563 583 788 1030 1090 1330 1660
2020-07-14 13:45 4.10 1300 2640 (1951) 300 (1936) 857 391 471 563 583 788 1030 1090 1330 1660
2020-07-14 12:45 4.08 1280 2640 (1951) 300 (1936) 857 391 471 563 583 788 1030 1090 1330 1660
2020-07-14 11:45 4.08 1280 2640 (1951) 300 (1936) 857 391 471 563 583 788 1030 1090 1330 1660
2020-07-14 10:45 4.11 1300 2640 (1951) 300 (1936) 857 391 471 563 583 788 1030 1090 1330 1660
2020-07-14 09:45 4.12 1310 2640 (1951) 300 (1936) 857 391 471 563 583 788 1030 1090 1330 1660
2020-07-14 08:45 4.12 1310 2640 (1951) 300 (1936) 857 391 471 563 583 788 1030 1090 1330 1660
2020-07-14 07:45 4.13 1320 2640 (1951) 300 (1936) 857 391 471 563 583 788 1030 1090 1330 1660
2020-07-14 06:45 4.13 1320 2640 (1951) 300 (1936) 857 391 471 563 583 788 1030 1090 1330 1660
2020-07-14 05:45 4.13 1320 2640 (1951) 300 (1936) 857 391 471 563 583 788 1030 1090 1330 1660
2020-07-14 04:45 4.13 1320 2640 (1951) 300 (1936) 857 391 471 563 583 788 1030 1090 1330 1660
2020-07-14 03:45 4.13 1320 2640 (1951) 300 (1936) 857 391 471 563 583 788 1030 1090 1330 1660
2020-07-14 02:45 4.13 1320 2640 (1951) 300 (1936) 857 391 471 563 583 788 1030 1090 1330 1660
2020-07-14 01:45 4.13 1320 2640 (1951) 300 (1936) 857 391 471 563 583 788 1030 1090 1330 1660
2020-07-14 00:45 4.14 1330 2640 (1951) 300 (1936) 857 391 471 563 583 788 1030 1090 1330 1660
2020-07-13 23:45 4.14 1330 2990 (1951) 314 (1936) 882 391 486 570 617 786 1040 1110 1340 1820
2020-07-13 22:45 4.14 1330 2990 (1951) 314 (1936) 882 391 486 570 617 786 1040 1110 1340 1820
2020-07-13 21:45 4.14 1330 2990 (1951) 314 (1936) 882 391 486 570 617 786 1040 1110 1340 1820
2020-07-13 20:45 4.14 1330 2990 (1951) 314 (1936) 882 391 486 570 617 786 1040 1110 1340 1820
2020-07-13 19:45 4.14 1330 2990 (1951) 314 (1936) 882 391 486 570 617 786 1040 1110 1340 1820
2020-07-13 18:45 4.15 1330 2990 (1951) 314 (1936) 882 391 486 570 617 786 1040 1110 1340 1820
2020-07-13 17:45 4.16 1340 2990 (1951) 314 (1936) 882 391 486 570 617 786 1040 1110 1340 1820
2020-07-13 16:45 4.16 1340 2990 (1951) 314 (1936) 882 391 486 570 617 786 1040 1110 1340 1820
2020-07-13 15:45 4.13 1320 2990 (1951) 314 (1936) 882 391 486 570 617 786 1040 1110 1340 1820
2020-07-13 14:45 4.17 1350 2990 (1951) 314 (1936) 882 391 486 570 617 786 1040 1110 1340 1820
2020-07-13 13:45 4.16 1340 2990 (1951) 314 (1936) 882 391 486 570 617 786 1040 1110 1340 1820
2020-07-13 12:45 4.16 1340 2990 (1951) 314 (1936) 882 391 486 570 617 786 1040 1110 1340 1820
2020-07-13 11:45 4.16 1340 2990 (1951) 314 (1936) 882 391 486 570 617 786 1040 1110 1340 1820
2020-07-13 10:45 4.16 1340 2990 (1951) 314 (1936) 882 391 486 570 617 786 1040 1110 1340 1820
2020-07-13 09:45 4.15 1330 2990 (1951) 314 (1936) 882 391 486 570 617 786 1040 1110 1340 1820
2020-07-13 08:45 4.15 1330 2990 (1951) 314 (1936) 882 391 486 570 617 786 1040 1110 1340 1820
2020-07-13 07:45 4.16 1340 2990 (1951) 314 (1936) 882 391 486 570 617 786 1040 1110 1340 1820
2020-07-13 06:45 4.16 1340 2990 (1951) 314 (1936) 882 391 486 570 617 786 1040 1110 1340 1820
2020-07-13 05:45 4.17 1350 2990 (1951) 314 (1936) 882 391 486 570 617 786 1040 1110 1340 1820
2020-07-13 04:45 4.17 1350 2990 (1951) 314 (1936) 882 391 486 570 617 786 1040 1110 1340 1820
2020-07-13 03:45 4.17 1350 2990 (1951) 314 (1936) 882 391 486 570 617 786 1040 1110 1340 1820
2020-07-13 02:45 4.17 1350 2990 (1951) 314 (1936) 882 391 486 570 617 786 1040 1110 1340 1820
2020-07-13 01:45 4.18 1360 2990 (1951) 314 (1936) 882 391 486 570 617 786 1040 1110 1340 1820
2020-07-13 00:45 4.18 1360 2990 (1951) 314 (1936) 882 391 486 570 617 786 1040 1110 1340 1820
2020-07-12 23:45 4.19 1360 4470 (1951) 309 (1936) 921 410 502 579 611 789 1040 1110 1470 1760
2020-07-12 22:45 4.20 1370 4470 (1951) 309 (1936) 921 410 502 579 611 789 1040 1110 1470 1760
2020-07-12 21:45 4.21 1380 4470 (1951) 309 (1936) 921 410 502 579 611 789 1040 1110 1470 1760
2020-07-12 20:45 4.20 1370 4470 (1951) 309 (1936) 921 410 502 579 611 789 1040 1110 1470 1760
2020-07-12 19:45 4.20 1370 4470 (1951) 309 (1936) 921 410 502 579 611 789 1040 1110 1470 1760
2020-07-12 18:45 4.20 1370 4470 (1951) 309 (1936) 921 410 502 579 611 789 1040 1110 1470 1760
2020-07-12 17:45 4.19 1360 4470 (1951) 309 (1936) 921 410 502 579 611 789 1040 1110 1470 1760
2020-07-12 16:45 4.19 1360 4470 (1951) 309 (1936) 921 410 502 579 611 789 1040 1110 1470 1760
2020-07-12 15:45 4.18 1360 4470 (1951) 309 (1936) 921 410 502 579 611 789 1040 1110 1470 1760
2020-07-12 14:45 4.16 1340 4470 (1951) 309 (1936) 921 410 502 579 611 789 1040 1110 1470 1760
2020-07-12 13:45 4.17 1350 4470 (1951) 309 (1936) 921 410 502 579 611 789 1040 1110 1470 1760
2020-07-12 12:45 4.18 1360 4470 (1951) 309 (1936) 921 410 502 579 611 789 1040 1110 1470 1760
2020-07-12 11:45 4.17 1350 4470 (1951) 309 (1936) 921 410 502 579 611 789 1040 1110 1470 1760
2020-07-12 10:45 4.18 1360 4470 (1951) 309 (1936) 921 410 502 579 611 789 1040 1110 1470 1760
2020-07-12 09:45 4.16 1340 4470 (1951) 309 (1936) 921 410 502 579 611 789 1040 1110 1470 1760
2020-07-12 08:45 4.18 1360 4470 (1951) 309 (1936) 921 410 502 579 611 789 1040 1110 1470 1760
2020-07-12 07:45 4.17 1350 4470 (1951) 309 (1936) 921 410 502 579 611 789 1040 1110 1470 1760
2020-07-12 06:45 4.17 1350 4470 (1951) 309 (1936) 921 410 502 579 611 789 1040 1110 1470 1760
2020-07-12 05:45 4.17 1350 4470 (1951) 309 (1936) 921 410 502 579 611 789 1040 1110 1470 1760
2020-07-12 04:45 4.17 1350 4470 (1951) 309 (1936) 921 410 502 579 611 789 1040 1110 1470 1760
2020-07-12 03:45 4.17 1350 4470 (1951) 309 (1936) 921 410 502 579 611 789 1040 1110 1470 1760
2020-07-12 02:45 4.18 1360 4470 (1951) 309 (1936) 921 410 502 579 611 789 1040 1110 1470 1760
2020-07-12 01:45 4.17 1350 4470 (1951) 309 (1936) 921 410 502 579 611 789 1040 1110 1470 1760
2020-07-12 00:45 4.18 1360 4470 (1951) 309 (1936) 921 410 502 579 611 789 1040 1110 1470 1760
2020-07-11 23:45 4.18 1360 6400 (1951) 314 (1936) 939 405 486 566 605 805 1050 1100 1350 1710
2020-07-11 22:45 4.18 1360 6400 (1951) 314 (1936) 939 405 486 566 605 805 1050 1100 1350 1710
2020-07-11 21:45 4.18 1360 6400 (1951) 314 (1936) 939 405 486 566 605 805 1050 1100 1350 1710
2020-07-11 20:45 4.18 1360 6400 (1951) 314 (1936) 939 405 486 566 605 805 1050 1100 1350 1710
2020-07-11 19:45 4.18 1360 6400 (1951) 314 (1936) 939 405 486 566 605 805 1050 1100 1350 1710
2020-07-11 18:45 4.19 1360 6400 (1951) 314 (1936) 939 405 486 566 605 805 1050 1100 1350 1710
2020-07-11 17:45 4.17 1350 6400 (1951) 314 (1936) 939 405 486 566 605 805 1050 1100 1350 1710
2020-07-11 16:45 4.20 1370 6400 (1951) 314 (1936) 939 405 486 566 605 805 1050 1100 1350 1710
2020-07-11 15:45 4.17 1350 6400 (1951) 314 (1936) 939 405 486 566 605 805 1050 1100 1350 1710
2020-07-11 14:45 4.20 1370 6400 (1951) 314 (1936) 939 405 486 566 605 805 1050 1100 1350 1710
2020-07-11 13:45 4.20 1370 6400 (1951) 314 (1936) 939 405 486 566 605 805 1050 1100 1350 1710
2020-07-11 12:45 4.19 1360 6400 (1951) 314 (1936) 939 405 486 566 605 805 1050 1100 1350 1710
2020-07-11 11:45 4.20 1370 6400 (1951) 314 (1936) 939 405 486 566 605 805 1050 1100 1350 1710
2020-07-11 10:45 4.19 1360 6400 (1951) 314 (1936) 939 405 486 566 605 805 1050 1100 1350 1710
2020-07-11 09:45 4.19 1360 6400 (1951) 314 (1936) 939 405 486 566 605 805 1050 1100 1350 1710
2020-07-11 08:45 4.20 1370 6400 (1951) 314 (1936) 939 405 486 566 605 805 1050 1100 1350 1710
2020-07-11 07:45 4.20 1370 6400 (1951) 314 (1936) 939 405 486 566 605 805 1050 1100 1350 1710
2020-07-11 06:45 4.20 1370 6400 (1951) 314 (1936) 939 405 486 566 605 805 1050 1100 1350 1710
2020-07-11 05:45 4.21 1380 6400 (1951) 314 (1936) 939 405 486 566 605 805 1050 1100 1350 1710
2020-07-11 04:45 4.21 1380 6400 (1951) 314 (1936) 939 405 486 566 605 805 1050 1100 1350 1710
2020-07-11 03:45 4.21 1380 6400 (1951) 314 (1936) 939 405 486 566 605 805 1050 1100 1350 1710
2020-07-11 02:45 4.20 1370 6400 (1951) 314 (1936) 939 405 486 566 605 805 1050 1100 1350 1710
2020-07-11 01:45 4.22 1380 6400 (1951) 314 (1936) 939 405 486 566 605 805 1050 1100 1350 1710
2020-07-11 00:45 4.21 1380 6400 (1951) 314 (1936) 939 405 486 566 605 805 1050 1100 1350 1710
2020-07-10 23:45 4.22 1380 3760 (1951) 300 (1936) 926 410 497 576 600 808 1070 1140 1340 2320
2020-07-10 22:45 4.22 1380 3760 (1951) 300 (1936) 926 410 497 576 600 808 1070 1140 1340 2320
2020-07-10 21:45 4.22 1380 3760 (1951) 300 (1936) 926 410 497 576 600 808 1070 1140 1340 2320
2020-07-10 20:45 4.22 1380 3760 (1951) 300 (1936) 926 410 497 576 600 808 1070 1140 1340 2320
2020-07-10 19:45 4.22 1380 3760 (1951) 300 (1936) 926 410 497 576 600 808 1070 1140 1340 2320
2020-07-10 18:45 4.23 1390 3760 (1951) 300 (1936) 926 410 497 576 600 808 1070 1140 1340 2320
2020-07-10 17:45 4.23 1390 3760 (1951) 300 (1936) 926 410 497 576 600 808 1070 1140 1340 2320
2020-07-10 16:45 4.23 1390 3760 (1951) 300 (1936) 926 410 497 576 600 808 1070 1140 1340 2320
2020-07-10 15:45 4.23 1390 3760 (1951) 300 (1936) 926 410 497 576 600 808 1070 1140 1340 2320
2020-07-10 14:45 4.24 1400 3760 (1951) 300 (1936) 926 410 497 576 600 808 1070 1140 1340 2320
2020-07-10 13:45 4.23 1390 3760 (1951) 300 (1936) 926 410 497 576 600 808 1070 1140 1340 2320
2020-07-10 12:45 4.22 1380 3760 (1951) 300 (1936) 926 410 497 576 600 808 1070 1140 1340 2320
2020-07-10 11:45 4.23 1390 3760 (1951) 300 (1936) 926 410 497 576 600 808 1070 1140 1340 2320
2020-07-10 10:45 4.23 1390 3760 (1951) 300 (1936) 926 410 497 576 600 808 1070 1140 1340 2320
2020-07-10 09:45 4.22 1380 3760 (1951) 300 (1936) 926 410 497 576 600 808 1070 1140 1340 2320
2020-07-10 08:45 4.22 1380 3760 (1951) 300 (1936) 926 410 497 576 600 808 1070 1140 1340 2320
2020-07-10 07:45 4.23 1390 3760 (1951) 300 (1936) 926 410 497 576 600 808 1070 1140 1340 2320
2020-07-10 06:45 4.23 1390 3760 (1951) 300 (1936) 926 410 497 576 600 808 1070 1140 1340 2320
2020-07-10 05:45 4.23 1390 3760 (1951) 300 (1936) 926 410 497 576 600 808 1070 1140 1340 2320
2020-07-10 04:45 4.23 1390 3760 (1951) 300 (1936) 926 410 497 576 600 808 1070 1140 1340 2320
2020-07-10 03:45 4.23 1390 3760 (1951) 300 (1936) 926 410 497 576 600 808 1070 1140 1340 2320
2020-07-10 02:45 4.23 1390 3760 (1951) 300 (1936) 926 410 497 576 600 808 1070 1140 1340 2320
2020-07-10 01:45 4.23 1390 3760 (1951) 300 (1936) 926 410 497 576 600 808 1070 1140 1340 2320
2020-07-10 00:45 4.24 1400 3760 (1951) 300 (1936) 926 410 497 576 600 808 1070 1140 1340 2320
2020-07-09 23:45 4.23 1390 3480 (1949) 314 (1936) 908 416 508 579 611 808 1070 1140 1310 1780
2020-07-09 22:45 4.22 1380 3480 (1949) 314 (1936) 908 416 508 579 611 808 1070 1140 1310 1780
2020-07-09 21:45 4.23 1390 3480 (1949) 314 (1936) 908 416 508 579 611 808 1070 1140 1310 1780
2020-07-09 20:45 4.24 1400 3480 (1949) 314 (1936) 908 416 508 579 611 808 1070 1140 1310 1780
2020-07-09 19:45 4.24 1400 3480 (1949) 314 (1936) 908 416 508 579 611 808 1070 1140 1310 1780
2020-07-09 18:45 4.24 1400 3480 (1949) 314 (1936) 908 416 508 579 611 808 1070 1140 1310 1780
2020-07-09 17:45 4.24 1400 3480 (1949) 314 (1936) 908 416 508 579 611 808 1070 1140 1310 1780
2020-07-09 16:45 4.25 1410 3480 (1949) 314 (1936) 908 416 508 579 611 808 1070 1140 1310 1780
2020-07-09 15:45 4.24 1400 3480 (1949) 314 (1936) 908 416 508 579 611 808 1070 1140 1310 1780
2020-07-09 14:45 4.25 1410 3480 (1949) 314 (1936) 908 416 508 579 611 808 1070 1140 1310 1780
2020-07-09 13:45 4.25 1410 3480 (1949) 314 (1936) 908 416 508 579 611 808 1070 1140 1310 1780
2020-07-09 12:45 4.25 1410 3480 (1949) 314 (1936) 908 416 508 579 611 808 1070 1140 1310 1780
2020-07-09 11:45 4.26 1410 3480 (1949) 314 (1936) 908 416 508 579 611 808 1070 1140 1310 1780
2020-07-09 10:45 4.25 1410 3480 (1949) 314 (1936) 908 416 508 579 611 808 1070 1140 1310 1780
2020-07-09 09:45 4.24 1400 3480 (1949) 314 (1936) 908 416 508 579 611 808 1070 1140 1310 1780
2020-07-09 08:45 4.25 1410 3480 (1949) 314 (1936) 908 416 508 579 611 808 1070 1140 1310 1780
2020-07-09 07:45 4.25 1410 3480 (1949) 314 (1936) 908 416 508 579 611 808 1070 1140 1310 1780
2020-07-09 06:45 4.25 1410 3480 (1949) 314 (1936) 908 416 508 579 611 808 1070 1140 1310 1780
2020-07-09 05:45 4.25 1410 3480 (1949) 314 (1936) 908 416 508 579 611 808 1070 1140 1310 1780
2020-07-09 04:45 4.26 1410 3480 (1949) 314 (1936) 908 416 508 579 611 808 1070 1140 1310 1780
2020-07-09 03:45 4.25 1410 3480 (1949) 314 (1936) 908 416 508 579 611 808 1070 1140 1310 1780
2020-07-09 02:45 4.25 1410 3480 (1949) 314 (1936) 908 416 508 579 611 808 1070 1140 1310 1780
2020-07-09 01:45 4.26 1410 3480 (1949) 314 (1936) 908 416 508 579 611 808 1070 1140 1310 1780
2020-07-09 00:45 4.26 1410 3480 (1949) 314 (1936) 908 416 508 579 611 808 1070 1140 1310 1780
2020-07-08 23:45 4.26 1410 4490 (1949) 281 (1936) 952 432 526 586 617 811 1020 1140 1420 1650
2020-07-08 22:45 4.26 1410 4490 (1949) 281 (1936) 952 432 526 586 617 811 1020 1140 1420 1650
2020-07-08 21:45 4.26 1410 4490 (1949) 281 (1936) 952 432 526 586 617 811 1020 1140 1420 1650
2020-07-08 20:45 4.25 1410 4490 (1949) 281 (1936) 952 432 526 586 617 811 1020 1140 1420 1650
2020-07-08 19:45 4.27 1420 4490 (1949) 281 (1936) 952 432 526 586 617 811 1020 1140 1420 1650
2020-07-08 18:45 4.27 1420 4490 (1949) 281 (1936) 952 432 526 586 617 811 1020 1140 1420 1650
2020-07-08 17:45 4.28 1430 4490 (1949) 281 (1936) 952 432 526 586 617 811 1020 1140 1420 1650
2020-07-08 16:45 4.28 1430 4490 (1949) 281 (1936) 952 432 526 586 617 811 1020 1140 1420 1650
2020-07-08 15:45 4.29 1440 4490 (1949) 281 (1936) 952 432 526 586 617 811 1020 1140 1420 1650
2020-07-08 14:45 4.28 1430 4490 (1949) 281 (1936) 952 432 526 586 617 811 1020 1140 1420 1650
2020-07-08 13:45 4.29 1440 4490 (1949) 281 (1936) 952 432 526 586 617 811 1020 1140 1420 1650
2020-07-08 12:45 4.28 1430 4490 (1949) 281 (1936) 952 432 526 586 617 811 1020 1140 1420 1650
2020-07-08 11:45 4.24 1400 4490 (1949) 281 (1936) 952 432 526 586 617 811 1020 1140 1420 1650
2020-07-08 10:45 4.28 1430 4490 (1949) 281 (1936) 952 432 526 586 617 811 1020 1140 1420 1650
2020-07-08 09:45 4.28 1430 4490 (1949) 281 (1936) 952 432 526 586 617 811 1020 1140 1420 1650
2020-07-08 08:45 4.27 1420 4490 (1949) 281 (1936) 952 432 526 586 617 811 1020 1140 1420 1650
2020-07-08 07:45 4.28 1430 4490 (1949) 281 (1936) 952 432 526 586 617 811 1020 1140 1420 1650
2020-07-08 06:45 4.28 1430 4490 (1949) 281 (1936) 952 432 526 586 617 811 1020 1140 1420 1650
2020-07-08 05:45 4.28 1430 4490 (1949) 281 (1936) 952 432 526 586 617 811 1020 1140 1420 1650
2020-07-08 04:45 4.28 1430 4490 (1949) 281 (1936) 952 432 526 586 617 811 1020 1140 1420 1650
2020-07-08 03:45 4.29 1440 4490 (1949) 281 (1936) 952 432 526 586 617 811 1020 1140 1420 1650
2020-07-08 02:45 4.29 1440 4490 (1949) 281 (1936) 952 432 526 586 617 811 1020 1140 1420 1650
2020-07-08 01:45 4.29 1440 4490 (1949) 281 (1936) 952 432 526 586 617 811 1020 1140 1420 1650
2020-07-08 00:45 4.29 1440 4490 (1949) 281 (1936) 952 432 526 586 617 811 1020 1140 1420 1650
2020-07-07 23:45 4.29 1440 2920 (1949) 295 (1936) 901 445 527 611 630 818 1070 1140 1410 1680
2020-07-07 22:45 4.30 1440 2920 (1949) 295 (1936) 901 445 527 611 630 818 1070 1140 1410 1680
2020-07-07 21:45 4.31 1450 2920 (1949) 295 (1936) 901 445 527 611 630 818 1070 1140 1410 1680
2020-07-07 20:45 4.31 1450 2920 (1949) 295 (1936) 901 445 527 611 630 818 1070 1140 1410 1680
2020-07-07 19:45 4.31 1450 2920 (1949) 295 (1936) 901 445 527 611 630 818 1070 1140 1410 1680
2020-07-07 18:45 4.32 1460 2920 (1949) 295 (1936) 901 445 527 611 630 818 1070 1140 1410 1680
2020-07-07 17:45 4.32 1460 2920 (1949) 295 (1936) 901 445 527 611 630 818 1070 1140 1410 1680
2020-07-07 16:45 4.32 1460 2920 (1949) 295 (1936) 901 445 527 611 630 818 1070 1140 1410 1680
2020-07-07 15:45 4.34 1470 2920 (1949) 295 (1936) 901 445 527 611 630 818 1070 1140 1410 1680
2020-07-07 14:45 4.34 1470 2920 (1949) 295 (1936) 901 445 527 611 630 818 1070 1140 1410 1680
2020-07-07 13:45 4.35 1480 2920 (1949) 295 (1936) 901 445 527 611 630 818 1070 1140 1410 1680
2020-07-07 12:45 4.35 1480 2920 (1949) 295 (1936) 901 445 527 611 630 818 1070 1140 1410 1680
2020-07-07 11:45 4.37 1500 2920 (1949) 295 (1936) 901 445 527 611 630 818 1070 1140 1410 1680
2020-07-07 10:45 4.37 1500 2920 (1949) 295 (1936) 901 445 527 611 630 818 1070 1140 1410 1680
2020-07-07 09:45 4.37 1500 2920 (1949) 295 (1936) 901 445 527 611 630 818 1070 1140 1410 1680
2020-07-07 08:45 4.36 1490 2920 (1949) 295 (1936) 901 445 527 611 630 818 1070 1140 1410 1680
2020-07-07 07:45 4.36 1490 2920 (1949) 295 (1936) 901 445 527 611 630 818 1070 1140 1410 1680
2020-07-07 06:45 4.35 1480 2920 (1949) 295 (1936) 901 445 527 611 630 818 1070 1140 1410 1680
2020-07-07 05:45 4.34 1470 2920 (1949) 295 (1936) 901 445 527 611 630 818 1070 1140 1410 1680
2020-07-07 04:45 4.33 1470 2920 (1949) 295 (1936) 901 445 527 611 630 818 1070 1140 1410 1680
2020-07-07 03:45 4.32 1460 2920 (1949) 295 (1936) 901 445 527 611 630 818 1070 1140 1410 1680
2020-07-07 02:45 4.32 1460 2920 (1949) 295 (1936) 901 445 527 611 630 818 1070 1140 1410 1680
2020-07-07 01:45 4.31 1450 2920 (1949) 295 (1936) 901 445 527 611 630 818 1070 1140 1410 1680
2020-07-07 00:45 4.31 1450 2920 (1949) 295 (1936) 901 445 527 611 630 818 1070 1140 1410 1680
2020-07-06 23:45 4.33 1470 2100 (1976) 309 (1936) 915 481 539 609 641 838 1090 1170 1440 1780
2020-07-06 22:45 4.34 1470 2100 (1976) 309 (1936) 915 481 539 609 641 838 1090 1170 1440 1780
2020-07-06 21:45 4.35 1480 2100 (1976) 309 (1936) 915 481 539 609 641 838 1090 1170 1440 1780
2020-07-06 20:45 4.34 1470 2100 (1976) 309 (1936) 915 481 539 609 641 838 1090 1170 1440 1780
2020-07-06 19:45 4.32 1460 2100 (1976) 309 (1936) 915 481 539 609 641 838 1090 1170 1440 1780
2020-07-06 18:45 4.32 1460 2100 (1976) 309 (1936) 915 481 539 609 641 838 1090 1170 1440 1780
2020-07-06 17:45 4.32 1460 2100 (1976) 309 (1936) 915 481 539 609 641 838 1090 1170 1440 1780
2020-07-06 16:45 4.32 1460 2100 (1976) 309 (1936) 915 481 539 609 641 838 1090 1170 1440 1780
2020-07-06 15:45 4.32 1460 2100 (1976) 309 (1936) 915 481 539 609 641 838 1090 1170 1440 1780
2020-07-06 14:45 4.32 1460 2100 (1976) 309 (1936) 915 481 539 609 641 838 1090 1170 1440 1780
2020-07-06 13:45 4.31 1450 2100 (1976) 309 (1936) 915 481 539 609 641 838 1090 1170 1440 1780
2020-07-06 12:45 4.33 1470 2100 (1976) 309 (1936) 915 481 539 609 641 838 1090 1170 1440 1780
2020-07-06 11:45 4.32 1460 2100 (1976) 309 (1936) 915 481 539 609 641 838 1090 1170 1440 1780
2020-07-06 10:45 4.32 1460 2100 (1976) 309 (1936) 915 481 539 609 641 838 1090 1170 1440 1780
2020-07-06 09:45 4.32 1460 2100 (1976) 309 (1936) 915 481 539 609 641 838 1090 1170 1440 1780
2020-07-06 08:45 4.32 1460 2100 (1976) 309 (1936) 915 481 539 609 641 838 1090 1170 1440 1780
2020-07-06 07:45 4.32 1460 2100 (1976) 309 (1936) 915 481 539 609 641 838 1090 1170 1440 1780
2020-07-06 06:45 4.32 1460 2100 (1976) 309 (1936) 915 481 539 609 641 838 1090 1170 1440 1780
2020-07-06 05:45 4.33 1470 2100 (1976) 309 (1936) 915 481 539 609 641 838 1090 1170 1440 1780
2020-07-06 04:45 4.32 1460 2100 (1976) 309 (1936) 915 481 539 609 641 838 1090 1170 1440 1780
2020-07-06 03:45 4.33 1470 2100 (1976) 309 (1936) 915 481 539 609 641 838 1090 1170 1440 1780
2020-07-06 02:45 4.33 1470 2100 (1976) 309 (1936) 915 481 539 609 641 838 1090 1170 1440 1780
2020-07-06 01:45 4.33 1470 2100 (1976) 309 (1936) 915 481 539 609 641 838 1090 1170 1440 1780
2020-07-06 00:45 4.33 1470 2100 (1976) 309 (1936) 915 481 539 609 641 838 1090 1170 1440 1780
2020-07-05 23:45 4.34 1470 3810 (1976) 309 (1936) 983 519 559 619 653 898 1140 1220 1540 2090
2020-07-05 22:45 4.33 1470 3810 (1976) 309 (1936) 983 519 559 619 653 898 1140 1220 1540 2090
2020-07-05 21:45 4.34 1470 3810 (1976) 309 (1936) 983 519 559 619 653 898 1140 1220 1540 2090
2020-07-05 20:45 4.34 1470 3810 (1976) 309 (1936) 983 519 559 619 653 898 1140 1220 1540 2090
2020-07-05 19:45 4.34 1470 3810 (1976) 309 (1936) 983 519 559 619 653 898 1140 1220 1540 2090
2020-07-05 18:45 4.35 1480 3810 (1976) 309 (1936) 983 519 559 619 653 898 1140 1220 1540 2090
2020-07-05 17:45 4.36 1490 3810 (1976) 309 (1936) 983 519 559 619 653 898 1140 1220 1540 2090
2020-07-05 16:45 4.35 1480 3810 (1976) 309 (1936) 983 519 559 619 653 898 1140 1220 1540 2090
2020-07-05 15:45 4.36 1490 3810 (1976) 309 (1936) 983 519 559 619 653 898 1140 1220 1540 2090
2020-07-05 14:45 4.34 1470 3810 (1976) 309 (1936) 983 519 559 619 653 898 1140 1220 1540 2090
2020-07-05 13:45 4.34 1470 3810 (1976) 309 (1936) 983 519 559 619 653 898 1140 1220 1540 2090
2020-07-05 12:45 4.35 1480 3810 (1976) 309 (1936) 983 519 559 619 653 898 1140 1220 1540 2090
2020-07-05 11:45 4.35 1480 3810 (1976) 309 (1936) 983 519 559 619 653 898 1140 1220 1540 2090
2020-07-05 10:45 4.35 1480 3810 (1976) 309 (1936) 983 519 559 619 653 898 1140 1220 1540 2090
2020-07-05 09:45 4.35 1480 3810 (1976) 309 (1936) 983 519 559 619 653 898 1140 1220 1540 2090
2020-07-05 08:45 4.35 1480 3810 (1976) 309 (1936) 983 519 559 619 653 898 1140 1220 1540 2090
2020-07-05 07:45 4.36 1490 3810 (1976) 309 (1936) 983 519 559 619 653 898 1140 1220 1540 2090
2020-07-05 06:45 4.35 1480 3810 (1976) 309 (1936) 983 519 559 619 653 898 1140 1220 1540 2090
2020-07-05 05:45 4.36 1490 3810 (1976) 309 (1936) 983 519 559 619 653 898 1140 1220 1540 2090
2020-07-05 04:45 4.36 1490 3810 (1976) 309 (1936) 983 519 559 619 653 898 1140 1220 1540 2090
2020-07-05 03:45 4.36 1490 3810 (1976) 309 (1936) 983 519 559 619 653 898 1140 1220 1540 2090
2020-07-05 02:45 4.36 1490 3810 (1976) 309 (1936) 983 519 559 619 653 898 1140 1220 1540 2090
2020-07-05 01:45 4.36 1490 3810 (1976) 309 (1936) 983 519 559 619 653 898 1140 1220 1540 2090
2020-07-05 00:45 4.37 1500 3810 (1976) 309 (1936) 983 519 559 619 653 898 1140 1220 1540 2090
2020-07-04 23:45 4.37 1500 6510 (1976) 363 (1936) 998 420 539 607 665 859 1110 1150 1430 2050
2020-07-04 22:45 4.37 1500 6510 (1976) 363 (1936) 998 420 539 607 665 859 1110 1150 1430 2050
2020-07-04 21:45 4.37 1500 6510 (1976) 363 (1936) 998 420 539 607 665 859 1110 1150 1430 2050
2020-07-04 20:45 4.35 1480 6510 (1976) 363 (1936) 998 420 539 607 665 859 1110 1150 1430 2050
2020-07-04 19:45 4.37 1500 6510 (1976) 363 (1936) 998 420 539 607 665 859 1110 1150 1430 2050
2020-07-04 18:45 4.35 1480 6510 (1976) 363 (1936) 998 420 539 607 665 859 1110 1150 1430 2050
2020-07-04 17:45 4.36 1490 6510 (1976) 363 (1936) 998 420 539 607 665 859 1110 1150 1430 2050
2020-07-04 16:45 4.37 1500 6510 (1976) 363 (1936) 998 420 539 607 665 859 1110 1150 1430 2050
2020-07-04 15:45 4.36 1490 6510 (1976) 363 (1936) 998 420 539 607 665 859 1110 1150 1430 2050
2020-07-04 14:45 4.38 1500 6510 (1976) 363 (1936) 998 420 539 607 665 859 1110 1150 1430 2050
2020-07-04 13:45 4.36 1490 6510 (1976) 363 (1936) 998 420 539 607 665 859 1110 1150 1430 2050
2020-07-04 12:45 4.36 1490 6510 (1976) 363 (1936) 998 420 539 607 665 859 1110 1150 1430 2050
2020-07-04 11:45 4.37 1500 6510 (1976) 363 (1936) 998 420 539 607 665 859 1110 1150 1430 2050
2020-07-04 10:45 4.36 1490 6510 (1976) 363 (1936) 998 420 539 607 665 859 1110 1150 1430 2050
2020-07-04 09:45 4.39 1510 6510 (1976) 363 (1936) 998 420 539 607 665 859 1110 1150 1430 2050
2020-07-04 08:45 4.39 1510 6510 (1976) 363 (1936) 998 420 539 607 665 859 1110 1150 1430 2050
2020-07-04 07:45 4.39 1510 6510 (1976) 363 (1936) 998 420 539 607 665 859 1110 1150 1430 2050
2020-07-04 06:45 4.39 1510 6510 (1976) 363 (1936) 998 420 539 607 665 859 1110 1150 1430 2050
2020-07-04 05:45 4.40 1520 6510 (1976) 363 (1936) 998 420 539 607 665 859 1110 1150 1430 2050
2020-07-04 04:45 4.40 1520 6510 (1976) 363 (1936) 998 420 539 607 665 859 1110 1150 1430 2050
2020-07-04 03:45 4.40 1520 6510 (1976) 363 (1936) 998 420 539 607 665 859 1110 1150 1430 2050
2020-07-04 02:45 4.40 1520 6510 (1976) 363 (1936) 998 420 539 607 665 859 1110 1150 1430 2050
2020-07-04 01:45 4.41 1530 6510 (1976) 363 (1936) 998 420 539 607 665 859 1110 1150 1430 2050
2020-07-04 00:45 4.42 1530 6510 (1976) 363 (1936) 998 420 539 607 665 859 1110 1150 1430 2050
2020-07-03 23:45 4.43 1540 2640 (2015) 363 (1936) 952 420 547 606 665 862 1150 1240 1510 1780
2020-07-03 22:45 4.44 1550 2640 (2015) 363 (1936) 952 420 547 606 665 862 1150 1240 1510 1780
2020-07-03 21:45 4.44 1550 2640 (2015) 363 (1936) 952 420 547 606 665 862 1150 1240 1510 1780
2020-07-03 20:45 4.43 1540 2640 (2015) 363 (1936) 952 420 547 606 665 862 1150 1240 1510 1780
2020-07-03 19:45 4.45 1560 2640 (2015) 363 (1936) 952 420 547 606 665 862 1150 1240 1510 1780
2020-07-03 18:45 4.45 1560 2640 (2015) 363 (1936) 952 420 547 606 665 862 1150 1240 1510 1780
2020-07-03 17:45 4.43 1540 2640 (2015) 363 (1936) 952 420 547 606 665 862 1150 1240 1510 1780
2020-07-03 16:45 4.40 1520 2640 (2015) 363 (1936) 952 420 547 606 665 862 1150 1240 1510 1780
2020-07-03 15:45 4.42 1530 2640 (2015) 363 (1936) 952 420 547 606 665 862 1150 1240 1510 1780
2020-07-03 14:45 4.43 1540 2640 (2015) 363 (1936) 952 420 547 606 665 862 1150 1240 1510 1780
2020-07-03 13:45 4.43 1540 2640 (2015) 363 (1936) 952 420 547 606 665 862 1150 1240 1510 1780
2020-07-03 12:45 4.43 1540 2640 (2015) 363 (1936) 952 420 547 606 665 862 1150 1240 1510 1780
2020-07-03 11:45 4.43 1540 2640 (2015) 363 (1936) 952 420 547 606 665 862 1150 1240 1510 1780
2020-07-03 10:45 4.43 1540 2640 (2015) 363 (1936) 952 420 547 606 665 862 1150 1240 1510 1780
2020-07-03 09:45 4.43 1540 2640 (2015) 363 (1936) 952 420 547 606 665 862 1150 1240 1510 1780
2020-07-03 08:45 4.44 1550 2640 (2015) 363 (1936) 952 420 547 606 665 862 1150 1240 1510 1780
2020-07-03 07:45 4.43 1540 2640 (2015) 363 (1936) 952 420 547 606 665 862 1150 1240 1510 1780
2020-07-03 06:45 4.43 1540 2640 (2015) 363 (1936) 952 420 547 606 665 862 1150 1240 1510 1780
2020-07-03 05:45 4.44 1550 2640 (2015) 363 (1936) 952 420 547 606 665 862 1150 1240 1510 1780
2020-07-03 04:45 4.44 1550 2640 (2015) 363 (1936) 952 420 547 606 665 862 1150 1240 1510 1780
2020-07-03 03:45 4.45 1560 2640 (2015) 363 (1936) 952 420 547 606 665 862 1150 1240 1510 1780
2020-07-03 02:45 4.45 1560 2640 (2015) 363 (1936) 952 420 547 606 665 862 1150 1240 1510 1780
2020-07-03 01:45 4.45 1560 2640 (2015) 363 (1936) 952 420 547 606 665 862 1150 1240 1510 1780
2020-07-03 00:45 4.45 1560 2640 (2015) 363 (1936) 952 420 547 606 665 862 1150 1240 1510 1780
2020-07-02 23:45 4.46 1560 2400 (1945) 390 (1932) 937 430 533 617 631 862 1090 1180 1440 1620
2020-07-02 22:45 4.46 1560 2400 (1945) 390 (1932) 937 430 533 617 631 862 1090 1180 1440 1620
2020-07-02 21:45 4.46 1560 2400 (1945) 390 (1932) 937 430 533 617 631 862 1090 1180 1440 1620
2020-07-02 20:45 4.47 1570 2400 (1945) 390 (1932) 937 430 533 617 631 862 1090 1180 1440 1620
2020-07-02 19:45 4.47 1570 2400 (1945) 390 (1932) 937 430 533 617 631 862 1090 1180 1440 1620
2020-07-02 18:45 4.48 1580 2400 (1945) 390 (1932) 937 430 533 617 631 862 1090 1180 1440 1620
2020-07-02 17:45 4.48 1580 2400 (1945) 390 (1932) 937 430 533 617 631 862 1090 1180 1440 1620
2020-07-02 16:45 4.48 1580 2400 (1945) 390 (1932) 937 430 533 617 631 862 1090 1180 1440 1620
2020-07-02 15:45 4.49 1590 2400 (1945) 390 (1932) 937 430 533 617 631 862 1090 1180 1440 1620
2020-07-02 14:45 4.47 1570 2400 (1945) 390 (1932) 937 430 533 617 631 862 1090 1180 1440 1620
2020-07-02 13:45 4.48 1580 2400 (1945) 390 (1932) 937 430 533 617 631 862 1090 1180 1440 1620
2020-07-02 12:45 4.48 1580 2400 (1945) 390 (1932) 937 430 533 617 631 862 1090 1180 1440 1620
2020-07-02 11:45 4.47 1570 2400 (1945) 390 (1932) 937 430 533 617 631 862 1090 1180 1440 1620
2020-07-02 10:45 4.48 1580 2400 (1945) 390 (1932) 937 430 533 617 631 862 1090 1180 1440 1620
2020-07-02 09:45 4.47 1570 2400 (1945) 390 (1932) 937 430 533 617 631 862 1090 1180 1440 1620
2020-07-02 08:45 4.48 1580 2400 (1945) 390 (1932) 937 430 533 617 631 862 1090 1180 1440 1620
2020-07-02 07:45 4.49 1590 2400 (1945) 390 (1932) 937 430 533 617 631 862 1090 1180 1440 1620
2020-07-02 06:45 4.49 1590 2400 (1945) 390 (1932) 937 430 533 617 631 862 1090 1180 1440 1620
2020-07-02 05:45 4.49 1590 2400 (1945) 390 (1932) 937 430 533 617 631 862 1090 1180 1440 1620
2020-07-02 04:45 4.50 1590 2400 (1945) 390 (1932) 937 430 533 617 631 862 1090 1180 1440 1620
2020-07-02 03:45 4.50 1590 2400 (1945) 390 (1932) 937 430 533 617 631 862 1090 1180 1440 1620
2020-07-02 02:45 4.50 1590 2400 (1945) 390 (1932) 937 430 533 617 631 862 1090 1180 1440 1620
2020-07-02 01:45 4.50 1590 2400 (1945) 390 (1932) 937 430 533 617 631 862 1090 1180 1440 1620
2020-07-02 00:45 4.49 1590 2400 (1945) 390 (1932) 937 430 533 617 631 862 1090 1180 1440 1620
2020-07-01 23:45 4.49 1590 2780 (2014) 335 (1941) 969 430 518 630 669 862 1110 1200 1470 1960
2020-07-01 22:45 4.49 1590 2780 (2014) 335 (1941) 969 430 518 630 669 862 1110 1200 1470 1960
2020-07-01 21:45 4.49 1590 2780 (2014) 335 (1941) 969 430 518 630 669 862 1110 1200 1470 1960
2020-07-01 20:45 4.50 1590 2780 (2014) 335 (1941) 969 430 518 630 669 862 1110 1200 1470 1960
2020-07-01 19:45 4.51 1600 2780 (2014) 335 (1941) 969 430 518 630 669 862 1110 1200 1470 1960
2020-07-01 18:45 4.52 1610 2780 (2014) 335 (1941) 969 430 518 630 669 862 1110 1200 1470 1960
2020-07-01 17:45 4.52 1610 2780 (2014) 335 (1941) 969 430 518 630 669 862 1110 1200 1470 1960
2020-07-01 16:45 4.52 1610 2780 (2014) 335 (1941) 969 430 518 630 669 862 1110 1200 1470 1960
2020-07-01 15:45 4.49 1590 2780 (2014) 335 (1941) 969 430 518 630 669 862 1110 1200 1470 1960
2020-07-01 14:45 4.48 1580 2780 (2014) 335 (1941) 969 430 518 630 669 862 1110 1200 1470 1960
2020-07-01 13:45 4.45 1560 2780 (2014) 335 (1941) 969 430 518 630 669 862 1110 1200 1470 1960
2020-07-01 12:45 4.47 1570 2780 (2014) 335 (1941) 969 430 518 630 669 862 1110 1200 1470 1960
2020-07-01 11:45 4.47 1570 2780 (2014) 335 (1941) 969 430 518 630 669 862 1110 1200 1470 1960
2020-07-01 10:45 4.47 1570 2780 (2014) 335 (1941) 969 430 518 630 669 862 1110 1200 1470 1960
2020-07-01 09:45 4.47 1570 2780 (2014) 335 (1941) 969 430 518 630 669 862 1110 1200 1470 1960
2020-07-01 08:45 4.48 1580 2780 (2014) 335 (1941) 969 430 518 630 669 862 1110 1200 1470 1960
2020-07-01 07:45 4.47 1570 2780 (2014) 335 (1941) 969 430 518 630 669 862 1110 1200 1470 1960
2020-07-01 06:45 4.48 1580 2780 (2014) 335 (1941) 969 430 518 630 669 862 1110 1200 1470 1960
2020-07-01 05:45 4.48 1580 2780 (2014) 335 (1941) 969 430 518 630 669 862 1110 1200 1470 1960
2020-07-01 04:45 4.48 1580 2780 (2014) 335 (1941) 969 430 518 630 669 862 1110 1200 1470 1960
2020-07-01 03:45 4.48 1580 2780 (2014) 335 (1941) 969 430 518 630 669 862 1110 1200 1470 1960
2020-07-01 02:45 4.48 1580 2780 (2014) 335 (1941) 969 430 518 630 669 862 1110 1200 1470 1960
2020-07-01 01:45 4.49 1590 2780 (2014) 335 (1941) 969 430 518 630 669 862 1110 1200 1470 1960
2020-07-01 00:45 4.48 1580 2780 (2014) 335 (1941) 969 430 518 630 669 862 1110 1200 1470 1960
2020-06-30 23:45 4.49 1590 4090 (2014) 305 (1936) 998 430 520 627 656 878 1130 1250 1500 1660
2020-06-30 22:45 4.48 1580 4090 (2014) 305 (1936) 998 430 520 627 656 878 1130 1250 1500 1660
2020-06-30 21:45 4.49 1590 4090 (2014) 305 (1936) 998 430 520 627 656 878 1130 1250 1500 1660
2020-06-30 20:45 4.49 1590 4090 (2014) 305 (1936) 998 430 520 627 656 878 1130 1250 1500 1660
2020-06-30 19:45 4.49 1590 4090 (2014) 305 (1936) 998 430 520 627 656 878 1130 1250 1500 1660
2020-06-30 18:45 4.47 1570 4090 (2014) 305 (1936) 998 430 520 627 656 878 1130 1250 1500 1660
2020-06-30 17:45 4.50 1590 4090 (2014) 305 (1936) 998 430 520 627 656 878 1130 1250 1500 1660
2020-06-30 16:45 4.50 1590 4090 (2014) 305 (1936) 998 430 520 627 656 878 1130 1250 1500 1660
2020-06-30 15:45 4.50 1590 4090 (2014) 305 (1936) 998 430 520 627 656 878 1130 1250 1500 1660
2020-06-30 14:45 4.51 1600 4090 (2014) 305 (1936) 998 430 520 627 656 878 1130 1250 1500 1660
2020-06-30 13:45 4.50 1590 4090 (2014) 305 (1936) 998 430 520 627 656 878 1130 1250 1500 1660
2020-06-30 12:45 4.51 1600 4090 (2014) 305 (1936) 998 430 520 627 656 878 1130 1250 1500 1660
2020-06-30 11:45 4.51 1600 4090 (2014) 305 (1936) 998 430 520 627 656 878 1130 1250 1500 1660
2020-06-30 10:45 4.51 1600 4090 (2014) 305 (1936) 998 430 520 627 656 878 1130 1250 1500 1660
2020-06-30 09:45 4.51 1600 4090 (2014) 305 (1936) 998 430 520 627 656 878 1130 1250 1500 1660
2020-06-30 08:45 4.51 1600 4090 (2014) 305 (1936) 998 430 520 627 656 878 1130 1250 1500 1660
2020-06-30 07:45 4.51 1600 4090 (2014) 305 (1936) 998 430 520 627 656 878 1130 1250 1500 1660
2020-06-30 06:45 4.52 1610 4090 (2014) 305 (1936) 998 430 520 627 656 878 1130 1250 1500 1660
2020-06-30 05:45 4.51 1600 4090 (2014) 305 (1936) 998 430 520 627 656 878 1130 1250 1500 1660
2020-06-30 04:45 4.51 1600 4090 (2014) 305 (1936) 998 430 520 627 656 878 1130 1250 1500 1660
2020-06-30 03:45 4.52 1610 4090 (2014) 305 (1936) 998 430 520 627 656 878 1130 1250 1500 1660
2020-06-30 02:45 4.51 1600 4090 (2014) 305 (1936) 998 430 520 627 656 878 1130 1250 1500 1660
2020-06-30 01:45 4.52 1610 4090 (2014) 305 (1936) 998 430 520 627 656 878 1130 1250 1500 1660
2020-06-30 00:45 4.51 1600 4090 (2014) 305 (1936) 998 430 520 627 656 878 1130 1250 1500 1660
2020-06-29 23:45 4.52 1610 2330 (1945) 314 (1936) 955 405 534 630 664 915 1200 1250 1370 1560
2020-06-29 22:45 4.52 1610 2330 (1945) 314 (1936) 955 405 534 630 664 915 1200 1250 1370 1560
2020-06-29 21:45 4.52 1610 2330 (1945) 314 (1936) 955 405 534 630 664 915 1200 1250 1370 1560
2020-06-29 20:45 4.52 1610 2330 (1945) 314 (1936) 955 405 534 630 664 915 1200 1250 1370 1560
2020-06-29 19:45 4.53 1620 2330 (1945) 314 (1936) 955 405 534 630 664 915 1200 1250 1370 1560
2020-06-29 18:45 4.53 1620 2330 (1945) 314 (1936) 955 405 534 630 664 915 1200 1250 1370 1560
2020-06-29 17:45 4.53 1620 2330 (1945) 314 (1936) 955 405 534 630 664 915 1200 1250 1370 1560
2020-06-29 16:45 4.53 1620 2330 (1945) 314 (1936) 955 405 534 630 664 915 1200 1250 1370 1560
2020-06-29 15:45 4.53 1620 2330 (1945) 314 (1936) 955 405 534 630 664 915 1200 1250 1370 1560
2020-06-29 14:45 4.53 1620 2330 (1945) 314 (1936) 955 405 534 630 664 915 1200 1250 1370 1560
2020-06-29 13:45 4.54 1620 2330 (1945) 314 (1936) 955 405 534 630 664 915 1200 1250 1370 1560
2020-06-29 12:45 4.53 1620 2330 (1945) 314 (1936) 955 405 534 630 664 915 1200 1250 1370 1560
2020-06-29 11:45 4.54 1620 2330 (1945) 314 (1936) 955 405 534 630 664 915 1200 1250 1370 1560
2020-06-29 10:45 4.54 1620 2330 (1945) 314 (1936) 955 405 534 630 664 915 1200 1250 1370 1560
2020-06-29 09:45 4.54 1620 2330 (1945) 314 (1936) 955 405 534 630 664 915 1200 1250 1370 1560
2020-06-29 08:45 4.54 1620 2330 (1945) 314 (1936) 955 405 534 630 664 915 1200 1250 1370 1560
2020-06-29 07:45 4.54 1620 2330 (1945) 314 (1936) 955 405 534 630 664 915 1200 1250 1370 1560
2020-06-29 06:45 4.54 1620 2330 (1945) 314 (1936) 955 405 534 630 664 915 1200 1250 1370 1560
2020-06-29 05:45 4.54 1620 2330 (1945) 314 (1936) 955 405 534 630 664 915 1200 1250 1370 1560
2020-06-29 04:45 4.54 1620 2330 (1945) 314 (1936) 955 405 534 630 664 915 1200 1250 1370 1560
2020-06-29 03:45 4.55 1630 2330 (1945) 314 (1936) 955 405 534 630 664 915 1200 1250 1370 1560
2020-06-29 02:45 4.55 1630 2330 (1945) 314 (1936) 955 405 534 630 664 915 1200 1250 1370 1560
2020-06-29 01:45 4.55 1630 2330 (1945) 314 (1936) 955 405 534 630 664 915 1200 1250 1370 1560
2020-06-29 00:45 4.55 1630 2330 (1945) 314 (1936) 955 405 534 630 664 915 1200 1250 1370 1560
2020-06-28 23:45 4.55 1630 2990 (1948) 300 (1936) 995 445 542 638 684 952 1180 1300 1480 1800
2020-06-28 22:45 4.55 1630 2990 (1948) 300 (1936) 995 445 542 638 684 952 1180 1300 1480 1800
2020-06-28 21:45 4.56 1640 2990 (1948) 300 (1936) 995 445 542 638 684 952 1180 1300 1480 1800
2020-06-28 20:45 4.56 1640 2990 (1948) 300 (1936) 995 445 542 638 684 952 1180 1300 1480 1800
2020-06-28 19:45 4.56 1640 2990 (1948) 300 (1936) 995 445 542 638 684 952 1180 1300 1480 1800
2020-06-28 18:45 4.57 1650 2990 (1948) 300 (1936) 995 445 542 638 684 952 1180 1300 1480 1800
2020-06-28 17:45 4.54 1620 2990 (1948) 300 (1936) 995 445 542 638 684 952 1180 1300 1480 1800
2020-06-28 16:45 4.56 1640 2990 (1948) 300 (1936) 995 445 542 638 684 952 1180 1300 1480 1800
2020-06-28 15:45 4.57 1650 2990 (1948) 300 (1936) 995 445 542 638 684 952 1180 1300 1480 1800
2020-06-28 14:45 4.58 1660 2990 (1948) 300 (1936) 995 445 542 638 684 952 1180 1300 1480 1800
2020-06-28 13:45 4.57 1650 2990 (1948) 300 (1936) 995 445 542 638 684 952 1180 1300 1480 1800
2020-06-28 12:45 4.58 1660 2990 (1948) 300 (1936) 995 445 542 638 684 952 1180 1300 1480 1800
2020-06-28 11:45 4.58 1660 2990 (1948) 300 (1936) 995 445 542 638 684 952 1180 1300 1480 1800
2020-06-28 10:45 4.57 1650 2990 (1948) 300 (1936) 995 445 542 638 684 952 1180 1300 1480 1800
2020-06-28 09:45 4.57 1650 2990 (1948) 300 (1936) 995 445 542 638 684 952 1180 1300 1480 1800
2020-06-28 08:45 4.56 1640 2990 (1948) 300 (1936) 995 445 542 638 684 952 1180 1300 1480 1800
2020-06-28 07:45 4.58 1660 2990 (1948) 300 (1936) 995 445 542 638 684 952 1180 1300 1480 1800
2020-06-28 06:45 4.58 1660 2990 (1948) 300 (1936) 995 445 542 638 684 952 1180 1300 1480 1800
2020-06-28 05:45 4.58 1660 2990 (1948) 300 (1936) 995 445 542 638 684 952 1180 1300 1480 1800
2020-06-28 04:45 4.58 1660 2990 (1948) 300 (1936) 995 445 542 638 684 952 1180 1300 1480 1800
2020-06-28 03:45 4.58 1660 2990 (1948) 300 (1936) 995 445 542 638 684 952 1180 1300 1480 1800
2020-06-28 02:45 4.58 1660 2990 (1948) 300 (1936) 995 445 542 638 684 952 1180 1300 1480 1800
2020-06-28 01:45 4.58 1660 2990 (1948) 300 (1936) 995 445 542 638 684 952 1180 1300 1480 1800
2020-06-28 00:45 4.58 1660 2990 (1948) 300 (1936) 995 445 542 638 684 952 1180 1300 1480 1800
2020-06-27 23:45 4.59 1660 2400 (1945) 314 (1936) 976 450 552 630 659 922 1150 1260 1530 1740
2020-06-27 22:45 4.59 1660 2400 (1945) 314 (1936) 976 450 552 630 659 922 1150 1260 1530 1740
2020-06-27 21:45 4.59 1660 2400 (1945) 314 (1936) 976 450 552 630 659 922 1150 1260 1530 1740
2020-06-27 20:45 4.59 1660 2400 (1945) 314 (1936) 976 450 552 630 659 922 1150 1260 1530 1740
2020-06-27 19:45 4.59 1660 2400 (1945) 314 (1936) 976 450 552 630 659 922 1150 1260 1530 1740
2020-06-27 18:45 4.60 1670 2400 (1945) 314 (1936) 976 450 552 630 659 922 1150 1260 1530 1740
2020-06-27 17:45 4.58 1660 2400 (1945) 314 (1936) 976 450 552 630 659 922 1150 1260 1530 1740
2020-06-27 16:45 4.58 1660 2400 (1945) 314 (1936) 976 450 552 630 659 922 1150 1260 1530 1740
2020-06-27 15:45 4.61 1680 2400 (1945) 314 (1936) 976 450 552 630 659 922 1150 1260 1530 1740
2020-06-27 14:45 4.62 1690 2400 (1945) 314 (1936) 976 450 552 630 659 922 1150 1260 1530 1740
2020-06-27 13:45 4.60 1670 2400 (1945) 314 (1936) 976 450 552 630 659 922 1150 1260 1530 1740
2020-06-27 12:45 4.57 1650 2400 (1945) 314 (1936) 976 450 552 630 659 922 1150 1260 1530 1740
2020-06-27 11:45 4.61 1680 2400 (1945) 314 (1936) 976 450 552 630 659 922 1150 1260 1530 1740
2020-06-27 10:45 4.61 1680 2400 (1945) 314 (1936) 976 450 552 630 659 922 1150 1260 1530 1740
2020-06-27 09:45 4.62 1690 2400 (1945) 314 (1936) 976 450 552 630 659 922 1150 1260 1530 1740
2020-06-27 08:45 4.62 1690 2400 (1945) 314 (1936) 976 450 552 630 659 922 1150 1260 1530 1740
2020-06-27 07:45 4.61 1680 2400 (1945) 314 (1936) 976 450 552 630 659 922 1150 1260 1530 1740
2020-06-27 06:45 4.61 1680 2400 (1945) 314 (1936) 976 450 552 630 659 922 1150 1260 1530 1740
2020-06-27 05:45 4.62 1690 2400 (1945) 314 (1936) 976 450 552 630 659 922 1150 1260 1530 1740
2020-06-27 04:45 4.61 1680 2400 (1945) 314 (1936) 976 450 552 630 659 922 1150 1260 1530 1740
2020-06-27 03:45 4.61 1680 2400 (1945) 314 (1936) 976 450 552 630 659 922 1150 1260 1530 1740
2020-06-27 02:45 4.62 1690 2400 (1945) 314 (1936) 976 450 552 630 659 922 1150 1260 1530 1740
2020-06-27 01:45 4.61 1680 2400 (1945) 314 (1936) 976 450 552 630 659 922 1150 1260 1530 1740
2020-06-27 00:45 4.61 1680 2400 (1945) 314 (1936) 976 450 552 630 659 922 1150 1260 1530 1740
2020-06-26 23:45 4.62 1690 2540 (1945) 314 (1936) 992 450 542 644 676 921 1170 1280 1550 1970
2020-06-26 22:45 4.62 1690 2540 (1945) 314 (1936) 992 450 542 644 676 921 1170 1280 1550 1970
2020-06-26 21:45 4.62 1690 2540 (1945) 314 (1936) 992 450 542 644 676 921 1170 1280 1550 1970
2020-06-26 20:45 4.62 1690 2540 (1945) 314 (1936) 992 450 542 644 676 921 1170 1280 1550 1970
2020-06-26 19:45 4.63 1690 2540 (1945) 314 (1936) 992 450 542 644 676 921 1170 1280 1550 1970
2020-06-26 18:45 4.63 1690 2540 (1945) 314 (1936) 992 450 542 644 676 921 1170 1280 1550 1970
2020-06-26 17:45 4.63 1690 2540 (1945) 314 (1936) 992 450 542 644 676 921 1170 1280 1550 1970
2020-06-26 16:45 4.62 1690 2540 (1945) 314 (1936) 992 450 542 644 676 921 1170 1280 1550 1970
2020-06-26 15:45 4.64 1700 2540 (1945) 314 (1936) 992 450 542 644 676 921 1170 1280 1550 1970
2020-06-26 14:45 4.63 1690 2540 (1945) 314 (1936) 992 450 542 644 676 921 1170 1280 1550 1970
2020-06-26 13:45 4.65 1710 2540 (1945) 314 (1936) 992 450 542 644 676 921 1170 1280 1550 1970
2020-06-26 12:45 4.62 1690 2540 (1945) 314 (1936) 992 450 542 644 676 921 1170 1280 1550 1970
2020-06-26 11:45 4.65 1710 2540 (1945) 314 (1936) 992 450 542 644 676 921 1170 1280 1550 1970
2020-06-26 10:45 4.64 1700 2540 (1945) 314 (1936) 992 450 542 644 676 921 1170 1280 1550 1970
2020-06-26 09:45 4.64 1700 2540 (1945) 314 (1936) 992 450 542 644 676 921 1170 1280 1550 1970
2020-06-26 08:45 4.65 1710 2540 (1945) 314 (1936) 992 450 542 644 676 921 1170 1280 1550 1970
2020-06-26 07:45 4.65 1710 2540 (1945) 314 (1936) 992 450 542 644 676 921 1170 1280 1550 1970
2020-06-26 06:45 4.66 1720 2540 (1945) 314 (1936) 992 450 542 644 676 921 1170 1280 1550 1970
2020-06-26 05:45 4.66 1720 2540 (1945) 314 (1936) 992 450 542 644 676 921 1170 1280 1550 1970
2020-06-26 04:45 4.65 1710 2540 (1945) 314 (1936) 992 450 542 644 676 921 1170 1280 1550 1970
2020-06-26 03:45 4.66 1720 2540 (1945) 314 (1936) 992 450 542 644 676 921 1170 1280 1550 1970
2020-06-26 02:45 4.66 1720 2540 (1945) 314 (1936) 992 450 542 644 676 921 1170 1280 1550 1970
2020-06-26 01:45 4.66 1720 2540 (1945) 314 (1936) 992 450 542 644 676 921 1170 1280 1550 1970
2020-06-26 00:45 4.67 1730 2540 (1945) 314 (1936) 992 450 542 644 676 921 1170 1280 1550 1970
2020-06-25 23:45 4.67 1730 4640 (1976) 305 (1936) 1050 450 558 662 695 960 1210 1320 1570 1830
2020-06-25 22:45 4.67 1730 4640 (1976) 305 (1936) 1050 450 558 662 695 960 1210 1320 1570 1830
2020-06-25 21:45 4.67 1730 4640 (1976) 305 (1936) 1050 450 558 662 695 960 1210 1320 1570 1830
2020-06-25 20:45 4.67 1730 4640 (1976) 305 (1936) 1050 450 558 662 695 960 1210 1320 1570 1830
2020-06-25 19:45 4.68 1730 4640 (1976) 305 (1936) 1050 450 558 662 695 960 1210 1320 1570 1830
2020-06-25 18:45 4.68 1730 4640 (1976) 305 (1936) 1050 450 558 662 695 960 1210 1320 1570 1830
2020-06-25 17:45 4.70 1750 4640 (1976) 305 (1936) 1050 450 558 662 695 960 1210 1320 1570 1830
2020-06-25 16:45 4.70 1750 4640 (1976) 305 (1936) 1050 450 558 662 695 960 1210 1320 1570 1830
2020-06-25 15:45 4.69 1740 4640 (1976) 305 (1936) 1050 450 558 662 695 960 1210 1320 1570 1830
2020-06-25 14:45 4.70 1750 4640 (1976) 305 (1936) 1050 450 558 662 695 960 1210 1320 1570 1830
2020-06-25 13:45 4.70 1750 4640 (1976) 305 (1936) 1050 450 558 662 695 960 1210 1320 1570 1830
2020-06-25 12:45 4.70 1750 4640 (1976) 305 (1936) 1050 450 558 662 695 960 1210 1320 1570 1830
2020-06-25 11:45 4.70 1750 4640 (1976) 305 (1936) 1050 450 558 662 695 960 1210 1320 1570 1830
2020-06-25 10:45 4.70 1750 4640 (1976) 305 (1936) 1050 450 558 662 695 960 1210 1320 1570 1830
2020-06-25 09:45 4.70 1750 4640 (1976) 305 (1936) 1050 450 558 662 695 960 1210 1320 1570 1830
2020-06-25 08:45 4.70 1750 4640 (1976) 305 (1936) 1050 450 558 662 695 960 1210 1320 1570 1830
2020-06-25 07:45 4.70 1750 4640 (1976) 305 (1936) 1050 450 558 662 695 960 1210 1320 1570 1830
2020-06-25 06:45 4.71 1760 4640 (1976) 305 (1936) 1050 450 558 662 695 960 1210 1320 1570 1830
2020-06-25 05:45 4.71 1760 4640 (1976) 305 (1936) 1050 450 558 662 695 960 1210 1320 1570 1830
2020-06-25 04:45 4.71 1760 4640 (1976) 305 (1936) 1050 450 558 662 695 960 1210 1320 1570 1830
2020-06-25 03:45 4.71 1760 4640 (1976) 305 (1936) 1050 450 558 662 695 960 1210 1320 1570 1830
2020-06-25 02:45 4.72 1760 4640 (1976) 305 (1936) 1050 450 558 662 695 960 1210 1320 1570 1830
2020-06-25 01:45 4.71 1760 4640 (1976) 305 (1936) 1050 450 558 662 695 960 1210 1320 1570 1830
2020-06-25 00:45 4.72 1760 4640 (1976) 305 (1936) 1050 450 558 662 695 960 1210 1320 1570 1830
2020-06-24 23:45 4.72 1760 6990 (1976) 314 (1936) 1130 450 548 663 707 949 1270 1330 1650 2460
2020-06-24 22:45 4.73 1770 6990 (1976) 314 (1936) 1130 450 548 663 707 949 1270 1330 1650 2460
2020-06-24 21:45 4.72 1760 6990 (1976) 314 (1936) 1130 450 548 663 707 949 1270 1330 1650 2460
2020-06-24 20:45 4.73 1770 6990 (1976) 314 (1936) 1130 450 548 663 707 949 1270 1330 1650 2460
2020-06-24 19:45 4.74 1780 6990 (1976) 314 (1936) 1130 450 548 663 707 949 1270 1330 1650 2460
2020-06-24 18:45 4.74 1780 6990 (1976) 314 (1936) 1130 450 548 663 707 949 1270 1330 1650 2460
2020-06-24 17:45 4.76 1800 6990 (1976) 314 (1936) 1130 450 548 663 707 949 1270 1330 1650 2460
2020-06-24 16:45 4.77 1800 6990 (1976) 314 (1936) 1130 450 548 663 707 949 1270 1330 1650 2460
2020-06-24 15:45 4.76 1800 6990 (1976) 314 (1936) 1130 450 548 663 707 949 1270 1330 1650 2460
2020-06-24 14:45 4.76 1800 6990 (1976) 314 (1936) 1130 450 548 663 707 949 1270 1330 1650 2460
2020-06-24 13:45 4.76 1800 6990 (1976) 314 (1936) 1130 450 548 663 707 949 1270 1330 1650 2460
2020-06-24 12:45 4.78 1810 6990 (1976) 314 (1936) 1130 450 548 663 707 949 1270 1330 1650 2460
2020-06-24 11:45 4.77 1800 6990 (1976) 314 (1936) 1130 450 548 663 707 949 1270 1330 1650 2460
2020-06-24 10:45 4.76 1800 6990 (1976) 314 (1936) 1130 450 548 663 707 949 1270 1330 1650 2460
2020-06-24 09:45 4.76 1800 6990 (1976) 314 (1936) 1130 450 548 663 707 949 1270 1330 1650 2460
2020-06-24 08:45 4.77 1800 6990 (1976) 314 (1936) 1130 450 548 663 707 949 1270 1330 1650 2460
2020-06-24 07:45 4.77 1800 6990 (1976) 314 (1936) 1130 450 548 663 707 949 1270 1330 1650 2460
2020-06-24 06:45 4.77 1800 6990 (1976) 314 (1936) 1130 450 548 663 707 949 1270 1330 1650 2460
2020-06-24 05:45 4.77 1800 6990 (1976) 314 (1936) 1130 450 548 663 707 949 1270 1330 1650 2460
2020-06-24 04:45 4.78 1810 6990 (1976) 314 (1936) 1130 450 548 663 707 949 1270 1330 1650 2460
2020-06-24 03:45 4.77 1800 6990 (1976) 314 (1936) 1130 450 548 663 707 949 1270 1330 1650 2460
2020-06-24 02:45 4.78 1810 6990 (1976) 314 (1936) 1130 450 548 663 707 949 1270 1330 1650 2460
2020-06-24 01:45 4.78 1810 6990 (1976) 314 (1936) 1130 450 548 663 707 949 1270 1330 1650 2460
2020-06-24 00:45 4.79 1820 6990 (1976) 314 (1936) 1130 450 548 663 707 949 1270 1330 1650 2460
2020-06-23 23:45 4.79 1820 3170 (1945) 337 (1936) 1020 450 553 690 715 983 1200 1300 1580 1890
2020-06-23 22:45 4.80 1830 3170 (1945) 337 (1936) 1020 450 553 690 715 983 1200 1300 1580 1890
2020-06-23 21:45 4.80 1830 3170 (1945) 337 (1936) 1020 450 553 690 715 983 1200 1300 1580 1890
2020-06-23 20:45 4.81 1840 3170 (1945) 337 (1936) 1020 450 553 690 715 983 1200 1300 1580 1890
2020-06-23 19:45 4.81 1840 3170 (1945) 337 (1936) 1020 450 553 690 715 983 1200 1300 1580 1890
2020-06-23 18:45 4.82 1840 3170 (1945) 337 (1936) 1020 450 553 690 715 983 1200 1300 1580 1890
2020-06-23 17:45 4.83 1850 3170 (1945) 337 (1936) 1020 450 553 690 715 983 1200 1300 1580 1890
2020-06-23 16:45 4.82 1840 3170 (1945) 337 (1936) 1020 450 553 690 715 983 1200 1300 1580 1890
2020-06-23 15:45 4.82 1840 3170 (1945) 337 (1936) 1020 450 553 690 715 983 1200 1300 1580 1890
2020-06-23 14:45 4.83 1850 3170 (1945) 337 (1936) 1020 450 553 690 715 983 1200 1300 1580 1890
2020-06-23 13:45 4.83 1850 3170 (1945) 337 (1936) 1020 450 553 690 715 983 1200 1300 1580 1890
2020-06-23 12:45 4.84 1860 3170 (1945) 337 (1936) 1020 450 553 690 715 983 1200 1300 1580 1890
2020-06-23 11:45 4.83 1850 3170 (1945) 337 (1936) 1020 450 553 690 715 983 1200 1300 1580 1890
2020-06-23 10:45 4.83 1850 3170 (1945) 337 (1936) 1020 450 553 690 715 983 1200 1300 1580 1890
2020-06-23 09:45 4.83 1850 3170 (1945) 337 (1936) 1020 450 553 690 715 983 1200 1300 1580 1890
2020-06-23 08:45 4.84 1860 3170 (1945) 337 (1936) 1020 450 553 690 715 983 1200 1300 1580 1890
2020-06-23 07:45 4.84 1860 3170 (1945) 337 (1936) 1020 450 553 690 715 983 1200 1300 1580 1890
2020-06-23 06:45 4.84 1860 3170 (1945) 337 (1936) 1020 450 553 690 715 983 1200 1300 1580 1890
2020-06-23 05:45 4.84 1860 3170 (1945) 337 (1936) 1020 450 553 690 715 983 1200 1300 1580 1890
2020-06-23 04:45 4.84 1860 3170 (1945) 337 (1936) 1020 450 553 690 715 983 1200 1300 1580 1890
2020-06-23 03:45 4.84 1860 3170 (1945) 337 (1936) 1020 450 553 690 715 983 1200 1300 1580 1890
2020-06-23 02:45 4.84 1860 3170 (1945) 337 (1936) 1020 450 553 690 715 983 1200 1300 1580 1890
2020-06-23 01:45 4.84 1860 3170 (1945) 337 (1936) 1020 450 553 690 715 983 1200 1300 1580 1890
2020-06-23 00:45 4.85 1870 3170 (1945) 337 (1936) 1020 450 553 690 715 983 1200 1300 1580 1890
2020-06-22 23:45 4.85 1870 3450 (1945) 363 (1936) 1030 450 571 683 704 982 1220 1310 1570 2000
2020-06-22 22:45 4.86 1870 3450 (1945) 363 (1936) 1030 450 571 683 704 982 1220 1310 1570 2000
2020-06-22 21:45 4.86 1870 3450 (1945) 363 (1936) 1030 450 571 683 704 982 1220 1310 1570 2000
2020-06-22 20:45 4.86 1870 3450 (1945) 363 (1936) 1030 450 571 683 704 982 1220 1310 1570 2000
2020-06-22 19:45 4.87 1880 3450 (1945) 363 (1936) 1030 450 571 683 704 982 1220 1310 1570 2000
2020-06-22 18:45 4.87 1880 3450 (1945) 363 (1936) 1030 450 571 683 704 982 1220 1310 1570 2000
2020-06-22 17:45 4.88 1890 3450 (1945) 363 (1936) 1030 450 571 683 704 982 1220 1310 1570 2000
2020-06-22 16:45 4.89 1900 3450 (1945) 363 (1936) 1030 450 571 683 704 982 1220 1310 1570 2000
2020-06-22 15:45 4.88 1890 3450 (1945) 363 (1936) 1030 450 571 683 704 982 1220 1310 1570 2000
2020-06-22 14:45 4.89 1900 3450 (1945) 363 (1936) 1030 450 571 683 704 982 1220 1310 1570 2000
2020-06-22 13:45 4.89 1900 3450 (1945) 363 (1936) 1030 450 571 683 704 982 1220 1310 1570 2000
2020-06-22 12:45 4.90 1910 3450 (1945) 363 (1936) 1030 450 571 683 704 982 1220 1310 1570 2000
2020-06-22 11:45 4.88 1890 3450 (1945) 363 (1936) 1030 450 571 683 704 982 1220 1310 1570 2000
2020-06-22 10:45 4.88 1890 3450 (1945) 363 (1936) 1030 450 571 683 704 982 1220 1310 1570 2000
2020-06-22 09:45 4.89 1900 3450 (1945) 363 (1936) 1030 450 571 683 704 982 1220 1310 1570 2000
2020-06-22 08:45 4.90 1910 3450 (1945) 363 (1936) 1030 450 571 683 704 982 1220 1310 1570 2000
2020-06-22 07:45 4.91 1910 3450 (1945) 363 (1936) 1030 450 571 683 704 982 1220 1310 1570 2000
2020-06-22 06:45 4.91 1910 3450 (1945) 363 (1936) 1030 450 571 683 704 982 1220 1310 1570 2000
2020-06-22 05:45 4.91 1910 3450 (1945) 363 (1936) 1030 450 571 683 704 982 1220 1310 1570 2000
2020-06-22 04:45 4.92 1920 3450 (1945) 363 (1936) 1030 450 571 683 704 982 1220 1310 1570 2000
2020-06-22 03:45 4.93 1930 3450 (1945) 363 (1936) 1030 450 571 683 704 982 1220 1310 1570 2000
2020-06-22 02:45 4.94 1940 3450 (1945) 363 (1936) 1030 450 571 683 704 982 1220 1310 1570 2000
2020-06-22 01:45 4.94 1940 3450 (1945) 363 (1936) 1030 450 571 683 704 982 1220 1310 1570 2000
2020-06-22 00:45 4.95 1950 3450 (1945) 363 (1936) 1030 450 571 683 704 982 1220 1310 1570 2000
2020-06-21 23:45 4.96 1960 3960 (1945) 337 (1936) 1070 450 571 681 722 976 1240 1330 1660 2110
2020-06-21 22:45 4.97 1960 3960 (1945) 337 (1936) 1070 450 571 681 722 976 1240 1330 1660 2110
2020-06-21 21:45 4.98 1970 3960 (1945) 337 (1936) 1070 450 571 681 722 976 1240 1330 1660 2110
2020-06-21 20:45 4.99 1980 3960 (1945) 337 (1936) 1070 450 571 681 722 976 1240 1330 1660 2110
2020-06-21 19:45 5.00 1990 3960 (1945) 337 (1936) 1070 450 571 681 722 976 1240 1330 1660 2110
2020-06-21 18:45 5.02 2000 3960 (1945) 337 (1936) 1070 450 571 681 722 976 1240 1330 1660 2110
2020-06-21 17:45 5.03 2010 3960 (1945) 337 (1936) 1070 450 571 681 722 976 1240 1330 1660 2110
2020-06-21 16:45 5.04 2020 3960 (1945) 337 (1936) 1070 450 571 681 722 976 1240 1330 1660 2110
2020-06-21 15:45 5.03 2010 3960 (1945) 337 (1936) 1070 450 571 681 722 976 1240 1330 1660 2110
2020-06-21 14:45 5.05 2030 3960 (1945) 337 (1936) 1070 450 571 681 722 976 1240 1330 1660 2110
2020-06-21 13:45 5.08 2050 3960 (1945) 337 (1936) 1070 450 571 681 722 976 1240 1330 1660 2110
2020-06-21 12:45 5.09 2060 3960 (1945) 337 (1936) 1070 450 571 681 722 976 1240 1330 1660 2110
2020-06-21 11:45 5.09 2060 3960 (1945) 337 (1936) 1070 450 571 681 722 976 1240 1330 1660 2110
2020-06-21 10:45 5.10 2070 3960 (1945) 337 (1936) 1070 450 571 681 722 976 1240 1330 1660 2110
2020-06-21 09:45 5.11 2080 3960 (1945) 337 (1936) 1070 450 571 681 722 976 1240 1330 1660 2110
2020-06-21 08:45 5.08 2050 3960 (1945) 337 (1936) 1070 450 571 681 722 976 1240 1330 1660 2110
2020-06-21 07:45 5.10 2070 3960 (1945) 337 (1936) 1070 450 571 681 722 976 1240 1330 1660 2110
2020-06-21 06:45 5.10 2070 3960 (1945) 337 (1936) 1070 450 571 681 722 976 1240 1330 1660 2110
2020-06-21 05:45 5.09 2060 3960 (1945) 337 (1936) 1070 450 571 681 722 976 1240 1330 1660 2110
2020-06-21 04:45 5.06 2040 3960 (1945) 337 (1936) 1070 450 571 681 722 976 1240 1330 1660 2110
2020-06-21 03:45 5.02 2000 3960 (1945) 337 (1936) 1070 450 571 681 722 976 1240 1330 1660 2110
2020-06-21 02:45 5.00 1990 3960 (1945) 337 (1936) 1070 450 571 681 722 976 1240 1330 1660 2110
2020-06-21 01:45 4.95 1950 3960 (1945) 337 (1936) 1070 450 571 681 722 976 1240 1330 1660 2110
2020-06-21 00:45 4.95 1950 3960 (1945) 337 (1936) 1070 450 571 681 722 976 1240 1330 1660 2110
2020-06-20 23:45 4.94 1940 4780 (1945) 351 (2001) 1110 450 588 683 734 960 1280 1370 1700 2300
2020-06-20 22:45 4.96 1960 4780 (1945) 351 (2001) 1110 450 588 683 734 960 1280 1370 1700 2300
2020-06-20 21:45 4.96 1960 4780 (1945) 351 (2001) 1110 450 588 683 734 960 1280 1370 1700 2300
2020-06-20 20:45 4.95 1950 4780 (1945) 351 (2001) 1110 450 588 683 734 960 1280 1370 1700 2300
2020-06-20 19:45 4.93 1930 4780 (1945) 351 (2001) 1110 450 588 683 734 960 1280 1370 1700 2300
2020-06-20 18:45 4.91 1910 4780 (1945) 351 (2001) 1110 450 588 683 734 960 1280 1370 1700 2300
2020-06-20 17:45 4.92 1920 4780 (1945) 351 (2001) 1110 450 588 683 734 960 1280 1370 1700 2300
2020-06-20 16:45 4.89 1900 4780 (1945) 351 (2001) 1110 450 588 683 734 960 1280 1370 1700 2300
2020-06-20 15:45 4.88 1890 4780 (1945) 351 (2001) 1110 450 588 683 734 960 1280 1370 1700 2300
2020-06-20 14:45 4.95 1950 4780 (1945) 351 (2001) 1110 450 588 683 734 960 1280 1370 1700 2300
2020-06-20 13:45 4.93 1930 4780 (1945) 351 (2001) 1110 450 588 683 734 960 1280 1370 1700 2300
2020-06-20 12:45 4.94 1940 4780 (1945) 351 (2001) 1110 450 588 683 734 960 1280 1370 1700 2300
2020-06-20 11:45 4.94 1940 4780 (1945) 351 (2001) 1110 450 588 683 734 960 1280 1370 1700 2300
2020-06-20 10:45 4.94 1940 4780 (1945) 351 (2001) 1110 450 588 683 734 960 1280 1370 1700 2300
2020-06-20 09:45 4.94 1940 4780 (1945) 351 (2001) 1110 450 588 683 734 960 1280 1370 1700 2300
2020-06-20 08:45 4.93 1930 4780 (1945) 351 (2001) 1110 450 588 683 734 960 1280 1370 1700 2300
2020-06-20 07:45 4.94 1940 4780 (1945) 351 (2001) 1110 450 588 683 734 960 1280 1370 1700 2300
2020-06-20 06:45 4.95 1950 4780 (1945) 351 (2001) 1110 450 588 683 734 960 1280 1370 1700 2300
2020-06-20 05:45 4.95 1950 4780 (1945) 351 (2001) 1110 450 588 683 734 960 1280 1370 1700 2300
2020-06-20 04:45 4.95 1950 4780 (1945) 351 (2001) 1110 450 588 683 734 960 1280 1370 1700 2300
2020-06-20 03:45 4.96 1960 4780 (1945) 351 (2001) 1110 450 588 683 734 960 1280 1370 1700 2300
2020-06-20 02:45 4.94 1940 4780 (1945) 351 (2001) 1110 450 588 683 734 960 1280 1370 1700 2300
2020-06-20 01:45 4.95 1950 4780 (1945) 351 (2001) 1110 450 588 683 734 960 1280 1370 1700 2300
2020-06-20 00:45 4.96 1960 4780 (1945) 351 (2001) 1110 450 588 683 734 960 1280 1370 1700 2300
2020-06-19 23:45 4.96 1960 7150 (1948) 337 (1936) 1200 466 594 690 744 981 1330 1430 1730 2180
2020-06-19 22:45 4.97 1960 7150 (1948) 337 (1936) 1200 466 594 690 744 981 1330 1430 1730 2180
2020-06-19 21:45 4.97 1960 7150 (1948) 337 (1936) 1200 466 594 690 744 981 1330 1430 1730 2180
2020-06-19 20:45 4.97 1960 7150 (1948) 337 (1936) 1200 466 594 690 744 981 1330 1430 1730 2180
2020-06-19 19:45 4.97 1960 7150 (1948) 337 (1936) 1200 466 594 690 744 981 1330 1430 1730 2180
2020-06-19 18:45 4.99 1980 7150 (1948) 337 (1936) 1200 466 594 690 744 981 1330 1430 1730 2180
2020-06-19 17:45 4.99 1980 7150 (1948) 337 (1936) 1200 466 594 690 744 981 1330 1430 1730 2180
2020-06-19 16:45 5.00 1990 7150 (1948) 337 (1936) 1200 466 594 690 744 981 1330 1430 1730 2180
2020-06-19 15:45 5.00 1990 7150 (1948) 337 (1936) 1200 466 594 690 744 981 1330 1430 1730 2180
2020-06-19 14:45 4.98 1970 7150 (1948) 337 (1936) 1200 466 594 690 744 981 1330 1430 1730 2180
2020-06-19 13:45 5.00 1990 7150 (1948) 337 (1936) 1200 466 594 690 744 981 1330 1430 1730 2180
2020-06-19 12:45 5.00 1990 7150 (1948) 337 (1936) 1200 466 594 690 744 981 1330 1430 1730 2180
2020-06-19 11:45 5.00 1990 7150 (1948) 337 (1936) 1200 466 594 690 744 981 1330 1430 1730 2180
2020-06-19 10:45 5.01 2000 7150 (1948) 337 (1936) 1200 466 594 690 744 981 1330 1430 1730 2180
2020-06-19 09:45 5.01 2000 7150 (1948) 337 (1936) 1200 466 594 690 744 981 1330 1430 1730 2180
2020-06-19 08:45 5.01 2000 7150 (1948) 337 (1936) 1200 466 594 690 744 981 1330 1430 1730 2180
2020-06-19 07:45 5.01 2000 7150 (1948) 337 (1936) 1200 466 594 690 744 981 1330 1430 1730 2180
2020-06-19 06:45 5.01 2000 7150 (1948) 337 (1936) 1200 466 594 690 744 981 1330 1430 1730 2180
2020-06-19 05:45 5.02 2000 7150 (1948) 337 (1936) 1200 466 594 690 744 981 1330 1430 1730 2180
2020-06-19 04:45 5.01 2000 7150 (1948) 337 (1936) 1200 466 594 690 744 981 1330 1430 1730 2180
2020-06-19 03:45 5.02 2000 7150 (1948) 337 (1936) 1200 466 594 690 744 981 1330 1430 1730 2180
2020-06-19 02:45 5.02 2000 7150 (1948) 337 (1936) 1200 466 594 690 744 981 1330 1430 1730 2180
2020-06-19 01:45 5.02 2000 7150 (1948) 337 (1936) 1200 466 594 690 744 981 1330 1430 1730 2180
2020-06-19 00:45 5.03 2010 7150 (1948) 337 (1936) 1200 466 594 690 744 981 1330 1430 1730 2180
2020-06-18 23:45 5.04 2020 8250 (1945) 361 (2001) 1220 450 525 707 757 1010 1400 1420 1890 2470
2020-06-18 22:45 5.03 2010 8250 (1945) 361 (2001) 1220 450 525 707 757 1010 1400 1420 1890 2470
2020-06-18 21:45 5.04 2020 8250 (1945) 361 (2001) 1220 450 525 707 757 1010 1400 1420 1890 2470
2020-06-18 20:45 5.04 2020 8250 (1945) 361 (2001) 1220 450 525 707 757 1010 1400 1420 1890 2470
2020-06-18 19:45 5.05 2030 8250 (1945) 361 (2001) 1220 450 525 707 757 1010 1400 1420 1890 2470
2020-06-18 18:45 5.06 2040 8250 (1945) 361 (2001) 1220 450 525 707 757 1010 1400 1420 1890 2470
2020-06-18 17:45 5.07 2040 8250 (1945) 361 (2001) 1220 450 525 707 757 1010 1400 1420 1890 2470
2020-06-18 16:45 5.07 2040 8250 (1945) 361 (2001) 1220 450 525 707 757 1010 1400 1420 1890 2470
2020-06-18 15:45 5.06 2040 8250 (1945) 361 (2001) 1220 450 525 707 757 1010 1400 1420 1890 2470
2020-06-18 14:45 5.08 2050 8250 (1945) 361 (2001) 1220 450 525 707 757 1010 1400 1420 1890 2470
2020-06-18 13:45 5.07 2040 8250 (1945) 361 (2001) 1220 450 525 707 757 1010 1400 1420 1890 2470
2020-06-18 12:45 5.08 2050 8250 (1945) 361 (2001) 1220 450 525 707 757 1010 1400 1420 1890 2470
2020-06-18 11:45 5.07 2040 8250 (1945) 361 (2001) 1220 450 525 707 757 1010 1400 1420 1890 2470
2020-06-18 10:45 5.04 2020 8250 (1945) 361 (2001) 1220 450 525 707 757 1010 1400 1420 1890 2470
2020-06-18 09:45 5.08 2050 8250 (1945) 361 (2001) 1220 450 525 707 757 1010 1400 1420 1890 2470
2020-06-18 08:45 5.08 2050 8250 (1945) 361 (2001) 1220 450 525 707 757 1010 1400 1420 1890 2470
2020-06-18 07:45 5.08 2050 8250 (1945) 361 (2001) 1220 450 525 707 757 1010 1400 1420 1890 2470
2020-06-18 06:45 5.09 2060 8250 (1945) 361 (2001) 1220 450 525 707 757 1010 1400 1420 1890 2470
2020-06-18 05:45 5.09 2060 8250 (1945) 361 (2001) 1220 450 525 707 757 1010 1400 1420 1890 2470
2020-06-18 04:45 5.09 2060 8250 (1945) 361 (2001) 1220 450 525 707 757 1010 1400 1420 1890 2470
2020-06-18 03:45 5.10 2070 8250 (1945) 361 (2001) 1220 450 525 707 757 1010 1400 1420 1890 2470
2020-06-18 02:45 5.10 2070 8250 (1945) 361 (2001) 1220 450 525 707 757 1010 1400 1420 1890 2470
2020-06-18 01:45 5.10 2070 8250 (1945) 361 (2001) 1220 450 525 707 757 1010 1400 1420 1890 2470
2020-06-18 00:45 5.11 2080 8250 (1945) 361 (2001) 1220 450 525 707 757 1010 1400 1420 1890 2470
2020-06-17 23:45 5.11 2080 7520 (1945) 363 (1936) 1180 450 542 710 760 1030 1400 1460 1660 1990
2020-06-17 22:45 5.11 2080 7520 (1945) 363 (1936) 1180 450 542 710 760 1030 1400 1460 1660 1990
2020-06-17 21:45 5.12 2090 7520 (1945) 363 (1936) 1180 450 542 710 760 1030 1400 1460 1660 1990
2020-06-17 20:45 5.12 2090 7520 (1945) 363 (1936) 1180 450 542 710 760 1030 1400 1460 1660 1990
2020-06-17 19:45 5.13 2090 7520 (1945) 363 (1936) 1180 450 542 710 760 1030 1400 1460 1660 1990
2020-06-17 18:45 5.14 2100 7520 (1945) 363 (1936) 1180 450 542 710 760 1030 1400 1460 1660 1990
2020-06-17 17:45 5.14 2100 7520 (1945) 363 (1936) 1180 450 542 710 760 1030 1400 1460 1660 1990
2020-06-17 16:45 5.15 2110 7520 (1945) 363 (1936) 1180 450 542 710 760 1030 1400 1460 1660 1990
2020-06-17 15:45 5.15 2110 7520 (1945) 363 (1936) 1180 450 542 710 760 1030 1400 1460 1660 1990
2020-06-17 14:45 5.15 2110 7520 (1945) 363 (1936) 1180 450 542 710 760 1030 1400 1460 1660 1990
2020-06-17 13:30 5.15 2110 7520 (1945) 363 (1936) 1180 450 542 710 760 1030 1400 1460 1660 1990
2020-06-17 12:45 5.15 2110 7520 (1945) 363 (1936) 1180 450 542 710 760 1030 1400 1460 1660 1990
2020-06-17 11:45 5.15 2110 7520 (1945) 363 (1936) 1180 450 542 710 760 1030 1400 1460 1660 1990
2020-06-17 10:45 5.14 2100 7520 (1945) 363 (1936) 1180 450 542 710 760 1030 1400 1460 1660 1990
2020-06-17 09:45 5.15 2110 7520 (1945) 363 (1936) 1180 450 542 710 760 1030 1400 1460 1660 1990
2020-06-17 08:45 5.16 2120 7520 (1945) 363 (1936) 1180 450 542 710 760 1030 1400 1460 1660 1990
2020-06-17 07:45 5.17 2130 7520 (1945) 363 (1936) 1180 450 542 710 760 1030 1400 1460 1660 1990
2020-06-17 06:45 5.17 2130 7520 (1945) 363 (1936) 1180 450 542 710 760 1030 1400 1460 1660 1990
2020-06-17 05:45 5.18 2130 7520 (1945) 363 (1936) 1180 450 542 710 760 1030 1400 1460 1660 1990
2020-06-17 04:45 5.18 2130 7520 (1945) 363 (1936) 1180 450 542 710 760 1030 1400 1460 1660 1990
2020-06-17 03:45 5.19 2140 7520 (1945) 363 (1936) 1180 450 542 710 760 1030 1400 1460 1660 1990
2020-06-17 02:45 5.19 2140 7520 (1945) 363 (1936) 1180 450 542 710 760 1030 1400 1460 1660 1990
2020-06-17 01:45 5.19 2140 7520 (1945) 363 (1936) 1180 450 542 710 760 1030 1400 1460 1660 1990
2020-06-17 00:45 5.19 2140 7520 (1945) 363 (1936) 1180 450 542 710 760 1030 1400 1460 1660 1990
2020-06-16 23:45 5.20 2150 3600 (1945) 382 (2001) 1140 492 577 715 760 1010 1400 1490 1820 2090
2020-06-16 22:45 5.20 2150 3600 (1945) 382 (2001) 1140 492 577 715 760 1010 1400 1490 1820 2090
2020-06-16 21:45 5.21 2160 3600 (1945) 382 (2001) 1140 492 577 715 760 1010 1400 1490 1820 2090
2020-06-16 20:45 5.21 2160 3600 (1945) 382 (2001) 1140 492 577 715 760 1010 1400 1490 1820 2090
2020-06-16 19:45 5.22 2170 3600 (1945) 382 (2001) 1140 492 577 715 760 1010 1400 1490 1820 2090
2020-06-16 18:45 5.23 2180 3600 (1945) 382 (2001) 1140 492 577 715 760 1010 1400 1490 1820 2090
2020-06-16 17:45 5.24 2180 3600 (1945) 382 (2001) 1140 492 577 715 760 1010 1400 1490 1820 2090
2020-06-16 16:45 5.25 2190 3600 (1945) 382 (2001) 1140 492 577 715 760 1010 1400 1490 1820 2090
2020-06-16 15:45 5.25 2190 3600 (1945) 382 (2001) 1140 492 577 715 760 1010 1400 1490 1820 2090
2020-06-16 14:45 5.26 2200 3600 (1945) 382 (2001) 1140 492 577 715 760 1010 1400 1490 1820 2090
2020-06-16 13:45 5.26 2200 3600 (1945) 382 (2001) 1140 492 577 715 760 1010 1400 1490 1820 2090
2020-06-16 12:45 5.26 2200 3600 (1945) 382 (2001) 1140 492 577 715 760 1010 1400 1490 1820 2090
2020-06-16 11:45 5.26 2200 3600 (1945) 382 (2001) 1140 492 577 715 760 1010 1400 1490 1820 2090
2020-06-16 10:45 5.26 2200 3600 (1945) 382 (2001) 1140 492 577 715 760 1010 1400 1490 1820 2090
2020-06-16 09:45 5.25 2190 3600 (1945) 382 (2001) 1140 492 577 715 760 1010 1400 1490 1820 2090
2020-06-16 08:45 5.27 2210 3600 (1945) 382 (2001) 1140 492 577 715 760 1010 1400 1490 1820 2090
2020-06-16 07:45 5.28 2220 3600 (1945) 382 (2001) 1140 492 577 715 760 1010 1400 1490 1820 2090
2020-06-16 06:45 5.28 2220 3600 (1945) 382 (2001) 1140 492 577 715 760 1010 1400 1490 1820 2090
2020-06-16 05:45 5.28 2220 3600 (1945) 382 (2001) 1140 492 577 715 760 1010 1400 1490 1820 2090
2020-06-16 04:45 5.29 2230 3600 (1945) 382 (2001) 1140 492 577 715 760 1010 1400 1490 1820 2090
2020-06-16 03:45 5.30 2230 3600 (1945) 382 (2001) 1140 492 577 715 760 1010 1400 1490 1820 2090
2020-06-16 02:45 5.30 2230 3600 (1945) 382 (2001) 1140 492 577 715 760 1010 1400 1490 1820 2090
2020-06-16 01:45 5.30 2230 3600 (1945) 382 (2001) 1140 492 577 715 760 1010 1400 1490 1820 2090
2020-06-16 00:45 5.31 2240 3600 (1945) 382 (2001) 1140 492 577 715 760 1010 1400 1490 1820 2090
2020-06-15 23:45 5.31 2240 5210 (1974) 363 (1936) 1180 498 630 722 760 1010 1370 1510 1890 2160
2020-06-15 22:45 5.31 2240 5210 (1974) 363 (1936) 1180 498 630 722 760 1010 1370 1510 1890 2160
2020-06-15 21:45 5.33 2260 5210 (1974) 363 (1936) 1180 498 630 722 760 1010 1370 1510 1890 2160
2020-06-15 20:45 5.33 2260 5210 (1974) 363 (1936) 1180 498 630 722 760 1010 1370 1510 1890 2160
2020-06-15 19:45 5.34 2270 5210 (1974) 363 (1936) 1180 498 630 722 760 1010 1370 1510 1890 2160
2020-06-15 18:45 5.35 2280 5210 (1974) 363 (1936) 1180 498 630 722 760 1010 1370 1510 1890 2160
2020-06-15 17:45 5.36 2290 5210 (1974) 363 (1936) 1180 498 630 722 760 1010 1370 1510 1890 2160
2020-06-15 16:45 5.36 2290 5210 (1974) 363 (1936) 1180 498 630 722 760 1010 1370 1510 1890 2160
2020-06-15 15:45 5.37 2290 5210 (1974) 363 (1936) 1180 498 630 722 760 1010 1370 1510 1890 2160
2020-06-15 14:45 5.39 2310 5210 (1974) 363 (1936) 1180 498 630 722 760 1010 1370 1510 1890 2160
2020-06-15 13:45 5.39 2310 5210 (1974) 363 (1936) 1180 498 630 722 760 1010 1370 1510 1890 2160
2020-06-15 12:45 5.38 2300 5210 (1974) 363 (1936) 1180 498 630 722 760 1010 1370 1510 1890 2160
2020-06-15 11:45 5.39 2310 5210 (1974) 363 (1936) 1180 498 630 722 760 1010 1370 1510 1890 2160
2020-06-15 10:45 5.39 2310 5210 (1974) 363 (1936) 1180 498 630 722 760 1010 1370 1510 1890 2160
2020-06-15 09:45 5.39 2310 5210 (1974) 363 (1936) 1180 498 630 722 760 1010 1370 1510 1890 2160
2020-06-15 08:45 5.40 2320 5210 (1974) 363 (1936) 1180 498 630 722 760 1010 1370 1510 1890 2160
2020-06-15 07:45 5.40 2320 5210 (1974) 363 (1936) 1180 498 630 722 760 1010 1370 1510 1890 2160
2020-06-15 06:45 5.41 2330 5210 (1974) 363 (1936) 1180 498 630 722 760 1010 1370 1510 1890 2160
2020-06-15 05:45 5.42 2340 5210 (1974) 363 (1936) 1180 498 630 722 760 1010 1370 1510 1890 2160
2020-06-15 04:45 5.43 2340 5210 (1974) 363 (1936) 1180 498 630 722 760 1010 1370 1510 1890 2160
2020-06-15 03:45 5.43 2340 5210 (1974) 363 (1936) 1180 498 630 722 760 1010 1370 1510 1890 2160
2020-06-15 02:45 5.43 2340 5210 (1974) 363 (1936) 1180 498 630 722 760 1010 1370 1510 1890 2160
2020-06-15 01:45 5.43 2340 5210 (1974) 363 (1936) 1180 498 630 722 760 1010 1370 1510 1890 2160
2020-06-15 00:45 5.45 2360 5210 (1974) 363 (1936) 1180 498 630 722 760 1010 1370 1510 1890 2160
2020-06-14 23:45 5.46 2370 5340 (1945) 339 (2001) 1150 450 553 707 767 1040 1360 1470 1920 2230
2020-06-14 22:45 5.46 2370 5340 (1945) 339 (2001) 1150 450 553 707 767 1040 1360 1470 1920 2230
2020-06-14 21:45 5.47 2380 5340 (1945) 339 (2001) 1150 450 553 707 767 1040 1360 1470 1920 2230
2020-06-14 20:45 5.47 2380 5340 (1945) 339 (2001) 1150 450 553 707 767 1040 1360 1470 1920 2230
2020-06-14 19:45 5.48 2390 5340 (1945) 339 (2001) 1150 450 553 707 767 1040 1360 1470 1920 2230
2020-06-14 18:45 5.47 2380 5340 (1945) 339 (2001) 1150 450 553 707 767 1040 1360 1470 1920 2230
2020-06-14 17:45 5.50 2400 5340 (1945) 339 (2001) 1150 450 553 707 767 1040 1360 1470 1920 2230
2020-06-14 16:45 5.51 2410 5340 (1945) 339 (2001) 1150 450 553 707 767 1040 1360 1470 1920 2230
2020-06-14 15:45 5.53 2430 5340 (1945) 339 (2001) 1150 450 553 707 767 1040 1360 1470 1920 2230
2020-06-14 14:45 5.51 2410 5340 (1945) 339 (2001) 1150 450 553 707 767 1040 1360 1470 1920 2230
2020-06-14 13:45 5.50 2400 5340 (1945) 339 (2001) 1150 450 553 707 767 1040 1360 1470 1920 2230
2020-06-14 12:45 5.54 2440 5340 (1945) 339 (2001) 1150 450 553 707 767 1040 1360 1470 1920 2230
2020-06-14 11:45 5.53 2430 5340 (1945) 339 (2001) 1150 450 553 707 767 1040 1360 1470 1920 2230
2020-06-14 10:45 5.54 2440 5340 (1945) 339 (2001) 1150 450 553 707 767 1040 1360 1470 1920 2230
2020-06-14 09:45 5.55 2450 5340 (1945) 339 (2001) 1150 450 553 707 767 1040 1360 1470 1920 2230
2020-06-14 08:45 5.55 2450 5340 (1945) 339 (2001) 1150 450 553 707 767 1040 1360 1470 1920 2230
2020-06-14 07:45 5.57 2460 5340 (1945) 339 (2001) 1150 450 553 707 767 1040 1360 1470 1920 2230
2020-06-14 06:45 5.57 2460 5340 (1945) 339 (2001) 1150 450 553 707 767 1040 1360 1470 1920 2230
2020-06-14 05:45 5.57 2460 5340 (1945) 339 (2001) 1150 450 553 707 767 1040 1360 1470 1920 2230
2020-06-14 04:45 5.58 2470 5340 (1945) 339 (2001) 1150 450 553 707 767 1040 1360 1470 1920 2230
2020-06-14 03:45 5.59 2480 5340 (1945) 339 (2001) 1150 450 553 707 767 1040 1360 1470 1920 2230
2020-06-14 02:45 5.60 2490 5340 (1945) 339 (2001) 1150 450 553 707 767 1040 1360 1470 1920 2230
2020-06-14 01:45 5.60 2490 5340 (1945) 339 (2001) 1150 450 553 707 767 1040 1360 1470 1920 2230
2020-06-14 00:45 5.61 2500 5340 (1945) 339 (2001) 1150 450 553 707 767 1040 1360 1470 1920 2230
2020-06-13 23:45 5.62 2510 6840 (1945) 332 (2001) 1230 450 565 728 780 1050 1420 1580 2030 2500
2020-06-13 22:45 5.63 2520 6840 (1945) 332 (2001) 1230 450 565 728 780 1050 1420 1580 2030 2500
2020-06-13 21:45 5.65 2530 6840 (1945) 332 (2001) 1230 450 565 728 780 1050 1420 1580 2030 2500
2020-06-13 20:45 5.65 2530 6840 (1945) 332 (2001) 1230 450 565 728 780 1050 1420 1580 2030 2500
2020-06-13 19:45 5.66 2540 6840 (1945) 332 (2001) 1230 450 565 728 780 1050 1420 1580 2030 2500
2020-06-13 18:45 5.68 2560 6840 (1945) 332 (2001) 1230 450 565 728 780 1050 1420 1580 2030 2500
2020-06-13 17:45 5.66 2540 6840 (1945) 332 (2001) 1230 450 565 728 780 1050 1420 1580 2030 2500
2020-06-13 16:45 5.68 2560 6840 (1945) 332 (2001) 1230 450 565 728 780 1050 1420 1580 2030 2500
2020-06-13 15:45 5.66 2540 6840 (1945) 332 (2001) 1230 450 565 728 780 1050 1420 1580 2030 2500
2020-06-13 14:45 5.70 2580 6840 (1945) 332 (2001) 1230 450 565 728 780 1050 1420 1580 2030 2500
2020-06-13 13:45 5.70 2580 6840 (1945) 332 (2001) 1230 450 565 728 780 1050 1420 1580 2030 2500
2020-06-13 12:45 5.72 2590 6840 (1945) 332 (2001) 1230 450 565 728 780 1050 1420 1580 2030 2500
2020-06-13 11:45 5.72 2590 6840 (1945) 332 (2001) 1230 450 565 728 780 1050 1420 1580 2030 2500
2020-06-13 10:45 5.70 2580 6840 (1945) 332 (2001) 1230 450 565 728 780 1050 1420 1580 2030 2500
2020-06-13 09:45 5.74 2610 6840 (1945) 332 (2001) 1230 450 565 728 780 1050 1420 1580 2030 2500
2020-06-13 08:45 5.74 2610 6840 (1945) 332 (2001) 1230 450 565 728 780 1050 1420 1580 2030 2500
2020-06-13 07:45 5.77 2640 6840 (1945) 332 (2001) 1230 450 565 728 780 1050 1420 1580 2030 2500
2020-06-13 06:45 5.77 2640 6840 (1945) 332 (2001) 1230 450 565 728 780 1050 1420 1580 2030 2500
2020-06-13 05:45 5.79 2660 6840 (1945) 332 (2001) 1230 450 565 728 780 1050 1420 1580 2030 2500
2020-06-13 04:45 5.79 2660 6840 (1945) 332 (2001) 1230 450 565 728 780 1050 1420 1580 2030 2500
2020-06-13 03:45 5.81 2670 6840 (1945) 332 (2001) 1230 450 565 728 780 1050 1420 1580 2030 2500
2020-06-13 02:45 5.83 2690 6840 (1945) 332 (2001) 1230 450 565 728 780 1050 1420 1580 2030 2500
2020-06-13 01:45 5.83 2690 6840 (1945) 332 (2001) 1230 450 565 728 780 1050 1420 1580 2030 2500
2020-06-13 00:45 5.84 2700 6840 (1945) 332 (2001) 1230 450 565 728 780 1050 1420 1580 2030 2500
2020-06-12 23:45 5.87 2730 13500 (1945) 335 (2001) 1320 450 582 749 761 1080 1460 1500 2030 2570
2020-06-12 22:45 5.87 2730 13500 (1945) 335 (2001) 1320 450 582 749 761 1080 1460 1500 2030 2570
2020-06-12 21:45 5.88 2740 13500 (1945) 335 (2001) 1320 450 582 749 761 1080 1460 1500 2030 2570
2020-06-12 20:45 5.90 2750 13500 (1945) 335 (2001) 1320 450 582 749 761 1080 1460 1500 2030 2570
2020-06-12 19:45 5.91 2760 13500 (1945) 335 (2001) 1320 450 582 749 761 1080 1460 1500 2030 2570
2020-06-12 18:45 5.93 2780 13500 (1945) 335 (2001) 1320 450 582 749 761 1080 1460 1500 2030 2570
2020-06-12 17:45 5.95 2800 13500 (1945) 335 (2001) 1320 450 582 749 761 1080 1460 1500 2030 2570
2020-06-12 16:45 5.96 2810 13500 (1945) 335 (2001) 1320 450 582 749 761 1080 1460 1500 2030 2570
2020-06-12 15:45 5.94 2790 13500 (1945) 335 (2001) 1320 450 582 749 761 1080 1460 1500 2030 2570
2020-06-12 14:45 5.99 2830 13500 (1945) 335 (2001) 1320 450 582 749 761 1080 1460 1500 2030 2570
2020-06-12 13:45 6.01 2850 13500 (1945) 335 (2001) 1320 450 582 749 761 1080 1460 1500 2030 2570
2020-06-12 12:45 6.02 2860 13500 (1945) 335 (2001) 1320 450 582 749 761 1080 1460 1500 2030 2570
2020-06-12 11:45 6.03 2870 13500 (1945) 335 (2001) 1320 450 582 749 761 1080 1460 1500 2030 2570
2020-06-12 10:45 6.06 2900 13500 (1945) 335 (2001) 1320 450 582 749 761 1080 1460 1500 2030 2570
2020-06-12 09:45 6.06 2900 13500 (1945) 335 (2001) 1320 450 582 749 761 1080 1460 1500 2030 2570
2020-06-12 08:45 6.08 2910 13500 (1945) 335 (2001) 1320 450 582 749 761 1080 1460 1500 2030 2570
2020-06-12 07:45 6.10 2930 13500 (1945) 335 (2001) 1320 450 582 749 761 1080 1460 1500 2030 2570
2020-06-12 06:45 6.12 2950 13500 (1945) 335 (2001) 1320 450 582 749 761 1080 1460 1500 2030 2570
2020-06-12 05:45 6.14 2970 13500 (1945) 335 (2001) 1320 450 582 749 761 1080 1460 1500 2030 2570
2020-06-12 04:45 6.16 2990 13500 (1945) 335 (2001) 1320 450 582 749 761 1080 1460 1500 2030 2570
2020-06-12 03:45 6.18 3000 13500 (1945) 335 (2001) 1320 450 582 749 761 1080 1460 1500 2030 2570
2020-06-12 02:45 6.21 3030 13500 (1945) 335 (2001) 1320 450 582 749 761 1080 1460 1500 2030 2570
2020-06-12 01:45 6.23 3050 13500 (1945) 335 (2001) 1320 450 582 749 761 1080 1460 1500 2030 2570
2020-06-12 00:45 6.25 3070 13500 (1945) 335 (2001) 1320 450 582 749 761 1080 1460 1500 2030 2570
2020-06-11 23:45 6.28 3100 15200 (1945) 340 (2001) 1400 450 594 752 770 1050 1440 1590 2020 3400
2020-06-11 22:45 6.30 3110 15200 (1945) 340 (2001) 1400 450 594 752 770 1050 1440 1590 2020 3400
2020-06-11 21:45 6.33 3140 15200 (1945) 340 (2001) 1400 450 594 752 770 1050 1440 1590 2020 3400
2020-06-11 20:45 6.36 3170 15200 (1945) 340 (2001) 1400 450 594 752 770 1050 1440 1590 2020 3400
2020-06-11 19:45 6.39 3200 15200 (1945) 340 (2001) 1400 450 594 752 770 1050 1440 1590 2020 3400
2020-06-11 18:45 6.43 3230 15200 (1945) 340 (2001) 1400 450 594 752 770 1050 1440 1590 2020 3400
2020-06-11 17:45 6.45 3250 15200 (1945) 340 (2001) 1400 450 594 752 770 1050 1440 1590 2020 3400
2020-06-11 16:45 6.49 3290 15200 (1945) 340 (2001) 1400 450 594 752 770 1050 1440 1590 2020 3400
2020-06-11 15:45 6.50 3300 15200 (1945) 340 (2001) 1400 450 594 752 770 1050 1440 1590 2020 3400
2020-06-11 14:45 6.56 3360 15200 (1945) 340 (2001) 1400 450 594 752 770 1050 1440 1590 2020 3400
2020-06-11 13:45 6.58 3370 15200 (1945) 340 (2001) 1400 450 594 752 770 1050 1440 1590 2020 3400
2020-06-11 12:45 6.62 3410 15200 (1945) 340 (2001) 1400 450 594 752 770 1050 1440 1590 2020 3400
2020-06-11 11:45 6.64 3430 15200 (1945) 340 (2001) 1400 450 594 752 770 1050 1440 1590 2020 3400
2020-06-11 10:45 6.68 3470 15200 (1945) 340 (2001) 1400 450 594 752 770 1050 1440 1590 2020 3400
2020-06-11 09:45 6.72 3510 15200 (1945) 340 (2001) 1400 450 594 752 770 1050 1440 1590 2020 3400
2020-06-11 08:45 6.76 3550 15200 (1945) 340 (2001) 1400 450 594 752 770 1050 1440 1590 2020 3400
2020-06-11 07:45 6.82 3600 15200 (1945) 340 (2001) 1400 450 594 752 770 1050 1440 1590 2020 3400
2020-06-11 06:45 6.85 3630 15200 (1945) 340 (2001) 1400 450 594 752 770 1050 1440 1590 2020 3400
2020-06-11 05:45 6.90 3680 15200 (1945) 340 (2001) 1400 450 594 752 770 1050 1440 1590 2020 3400
2020-06-11 04:45 6.95 3730 15200 (1945) 340 (2001) 1400 450 594 752 770 1050 1440 1590 2020 3400
2020-06-11 03:45 6.99 3770 15200 (1945) 340 (2001) 1400 450 594 752 770 1050 1440 1590 2020 3400
2020-06-11 02:45 7.06 3830 15200 (1945) 340 (2001) 1400 450 594 752 770 1050 1440 1590 2020 3400
2020-06-11 01:45 7.11 3880 15200 (1945) 340 (2001) 1400 450 594 752 770 1050 1440 1590 2020 3400
2020-06-11 00:45 7.17 3940 15200 (1945) 340 (2001) 1400 450 594 752 770 1050 1440 1590 2020 3400
2020-06-10 23:45 7.22 3990 8110 (1974) 341 (2001) 1400 510 600 748 789 1070 1460 1680 2160 3460
2020-06-10 22:45 7.28 4050 8110 (1974) 341 (2001) 1400 510 600 748 789 1070 1460 1680 2160 3460
2020-06-10 21:45 7.36 4130 8110 (1974) 341 (2001) 1400 510 600 748 789 1070 1460 1680 2160 3460
2020-06-10 20:45 7.43 4200 8110 (1974) 341 (2001) 1400 510 600 748 789 1070 1460 1680 2160 3460
2020-06-10 19:45 7.51 4280 8110 (1974) 341 (2001) 1400 510 600 748 789 1070 1460 1680 2160 3460
2020-06-10 18:45 7.59 4360 8110 (1974) 341 (2001) 1400 510 600 748 789 1070 1460 1680 2160 3460
2020-06-10 17:45 7.71 4480 8110 (1974) 341 (2001) 1400 510 600 748 789 1070 1460 1680 2160 3460
2020-06-10 16:45 7.80 4570 8110 (1974) 341 (2001) 1400 510 600 748 789 1070 1460 1680 2160 3460
2020-06-10 15:45 7.95 4720 8110 (1974) 341 (2001) 1400 510 600 748 789 1070 1460 1680 2160 3460
2020-06-10 14:45 8.07 4830 8110 (1974) 341 (2001) 1400 510 600 748 789 1070 1460 1680 2160 3460
2020-06-10 13:45 8.25 5000 8110 (1974) 341 (2001) 1400 510 600 748 789 1070 1460 1680 2160 3460
2020-06-10 12:45 8.40 5150 8110 (1974) 341 (2001) 1400 510 600 748 789 1070 1460 1680 2160 3460
2020-06-10 11:45 8.58 5330 8110 (1974) 341 (2001) 1400 510 600 748 789 1070 1460 1680 2160 3460
2020-06-10 10:45 8.74 5490 8110 (1974) 341 (2001) 1400 510 600 748 789 1070 1460 1680 2160 3460
2020-06-10 09:45 8.86 5610 8110 (1974) 341 (2001) 1400 510 600 748 789 1070 1460 1680 2160 3460
2020-06-10 08:45 8.94 5690 8110 (1974) 341 (2001) 1400 510 600 748 789 1070 1460 1680 2160 3460
2020-06-10 07:45 8.97 5720 8110 (1974) 341 (2001) 1400 510 600 748 789 1070 1460 1680 2160 3460
2020-06-10 06:45 8.94 5690 8110 (1974) 341 (2001) 1400 510 600 748 789 1070 1460 1680 2160 3460
2020-06-10 05:45 8.88 5630 8110 (1974) 341 (2001) 1400 510 600 748 789 1070 1460 1680 2160 3460
2020-06-10 04:45 8.77 5520 8110 (1974) 341 (2001) 1400 510 600 748 789 1070 1460 1680 2160 3460
2020-06-10 03:45 8.60 5350 8110 (1974) 341 (2001) 1400 510 600 748 789 1070 1460 1680 2160 3460
2020-06-10 02:45 8.41 5160 8110 (1974) 341 (2001) 1400 510 600 748 789 1070 1460 1680 2160 3460
2020-06-10 01:45 8.18 4940 8110 (1974) 341 (2001) 1400 510 600 748 789 1070 1460 1680 2160 3460
2020-06-10 00:45 7.96 4720 8110 (1974) 341 (2001) 1400 510 600 748 789 1070 1460 1680 2160 3460
2020-06-09 23:45 7.73 4500 9840 (1945) 344 (2001) 1340 450 611 754 785 1050 1540 1680 2160 2710
2020-06-09 22:45 7.54 4310 9840 (1945) 344 (2001) 1340 450 611 754 785 1050 1540 1680 2160 2710
2020-06-09 21:45 7.36 4130 9840 (1945) 344 (2001) 1340 450 611 754 785 1050 1540 1680 2160 2710
2020-06-09 20:45 7.24 4010 9840 (1945) 344 (2001) 1340 450 611 754 785 1050 1540 1680 2160 2710
2020-06-09 19:45 7.13 3900 9840 (1945) 344 (2001) 1340 450 611 754 785 1050 1540 1680 2160 2710
2020-06-09 18:45 7.03 3810 9840 (1945) 344 (2001) 1340 450 611 754 785 1050 1540 1680 2160 2710
2020-06-09 17:45 6.91 3690 9840 (1945) 344 (2001) 1340 450 611 754 785 1050 1540 1680 2160 2710
2020-06-09 16:45 6.78 3560 9840 (1945) 344 (2001) 1340 450 611 754 785 1050 1540 1680 2160 2710
2020-06-09 15:45 6.66 3450 9840 (1945) 344 (2001) 1340 450 611 754 785 1050 1540 1680 2160 2710
2020-06-09 14:45 6.52 3320 9840 (1945) 344 (2001) 1340 450 611 754 785 1050 1540 1680 2160 2710
2020-06-09 13:45 6.40 3210 9840 (1945) 344 (2001) 1340 450 611 754 785 1050 1540 1680 2160 2710
2020-06-09 12:45 6.30 3110 9840 (1945) 344 (2001) 1340 450 611 754 785 1050 1540 1680 2160 2710
2020-06-09 11:45 6.22 3040 9840 (1945) 344 (2001) 1340 450 611 754 785 1050 1540 1680 2160 2710
2020-06-09 10:45 6.16 2990 9840 (1945) 344 (2001) 1340 450 611 754 785 1050 1540 1680 2160 2710
2020-06-09 09:45 6.09 2920 9840 (1945) 344 (2001) 1340 450 611 754 785 1050 1540 1680 2160 2710
2020-06-09 08:45 6.05 2890 9840 (1945) 344 (2001) 1340 450 611 754 785 1050 1540 1680 2160 2710
2020-06-09 07:45 6.00 2840 9840 (1945) 344 (2001) 1340 450 611 754 785 1050 1540 1680 2160 2710
2020-06-09 06:45 5.93 2780 9840 (1945) 344 (2001) 1340 450 611 754 785 1050 1540 1680 2160 2710
2020-06-09 05:45 5.87 2730 9840 (1945) 344 (2001) 1340 450 611 754 785 1050 1540 1680 2160 2710
2020-06-09 04:45 5.80 2660 9840 (1945) 344 (2001) 1340 450 611 754 785 1050 1540 1680 2160 2710
2020-06-09 03:45 5.70 2580 9840 (1945) 344 (2001) 1340 450 611 754 785 1050 1540 1680 2160 2710
2020-06-09 02:45 5.65 2530 9840 (1945) 344 (2001) 1340 450 611 754 785 1050 1540 1680 2160 2710
2020-06-09 01:45 5.56 2460 9840 (1945) 344 (2001) 1340 450 611 754 785 1050 1540 1680 2160 2710
2020-06-09 00:45 5.53 2430 9840 (1945) 344 (2001) 1340 450 611 754 785 1050 1540 1680 2160 2710
2020-06-08 23:45 5.48 2390 4580 (1974) 355 (2001) 1220 510 629 766 817 1090 1400 1690 2090 2590
2020-06-08 22:45 5.43 2340 4580 (1974) 355 (2001) 1220 510 629 766 817 1090 1400 1690 2090 2590
2020-06-08 21:45 5.42 2340 4580 (1974) 355 (2001) 1220 510 629 766 817 1090 1400 1690 2090 2590
2020-06-08 20:45 5.38 2300 4580 (1974) 355 (2001) 1220 510 629 766 817 1090 1400 1690 2090 2590
2020-06-08 19:45 5.33 2260 4580 (1974) 355 (2001) 1220 510 629 766 817 1090 1400 1690 2090 2590
2020-06-08 18:45 5.33 2260 4580 (1974) 355 (2001) 1220 510 629 766 817 1090 1400 1690 2090 2590
2020-06-08 17:45 5.31 2240 4580 (1974) 355 (2001) 1220 510 629 766 817 1090 1400 1690 2090 2590
2020-06-08 16:45 5.31 2240 4580 (1974) 355 (2001) 1220 510 629 766 817 1090 1400 1690 2090 2590
2020-06-08 15:45 5.30 2230 4580 (1974) 355 (2001) 1220 510 629 766 817 1090 1400 1690 2090 2590
2020-06-08 14:45 5.32 2250 4580 (1974) 355 (2001) 1220 510 629 766 817 1090 1400 1690 2090 2590
2020-06-08 13:45 5.31 2240 4580 (1974) 355 (2001) 1220 510 629 766 817 1090 1400 1690 2090 2590
2020-06-08 12:45 5.33 2260 4580 (1974) 355 (2001) 1220 510 629 766 817 1090 1400 1690 2090 2590
2020-06-08 11:45 5.33 2260 4580 (1974) 355 (2001) 1220 510 629 766 817 1090 1400 1690 2090 2590
2020-06-08 10:45 5.33 2260 4580 (1974) 355 (2001) 1220 510 629 766 817 1090 1400 1690 2090 2590
2020-06-08 09:45 5.33 2260 4580 (1974) 355 (2001) 1220 510 629 766 817 1090 1400 1690 2090 2590
2020-06-08 08:45 5.33 2260 4580 (1974) 355 (2001) 1220 510 629 766 817 1090 1400 1690 2090 2590
2020-06-08 07:45 5.34 2270 4580 (1974) 355 (2001) 1220 510 629 766 817 1090 1400 1690 2090 2590
2020-06-08 06:45 5.35 2280 4580 (1974) 355 (2001) 1220 510 629 766 817 1090 1400 1690 2090 2590
2020-06-08 05:45 5.35 2280 4580 (1974) 355 (2001) 1220 510 629 766 817 1090 1400 1690 2090 2590
2020-06-08 04:45 5.36 2290 4580 (1974) 355 (2001) 1220 510 629 766 817 1090 1400 1690 2090 2590
2020-06-08 03:45 5.35 2280 4580 (1974) 355 (2001) 1220 510 629 766 817 1090 1400 1690 2090 2590
2020-06-08 02:45 5.36 2290 4580 (1974) 355 (2001) 1220 510 629 766 817 1090 1400 1690 2090 2590
2020-06-08 01:45 5.37 2290 4580 (1974) 355 (2001) 1220 510 629 766 817 1090 1400 1690 2090 2590
2020-06-08 00:45 5.37 2290 4580 (1974) 355 (2001) 1220 510 629 766 817 1090 1400 1690 2090 2590
2020-06-07 23:45 5.38 2300 5030 (1974) 356 (2001) 1280 510 617 760 812 1110 1450 1710 2230 2880
2020-06-07 22:45 5.38 2300 5030 (1974) 356 (2001) 1280 510 617 760 812 1110 1450 1710 2230 2880
2020-06-07 21:45 5.39 2310 5030 (1974) 356 (2001) 1280 510 617 760 812 1110 1450 1710 2230 2880
2020-06-07 20:45 5.40 2320 5030 (1974) 356 (2001) 1280 510 617 760 812 1110 1450 1710 2230 2880
2020-06-07 19:45 5.40 2320 5030 (1974) 356 (2001) 1280 510 617 760 812 1110 1450 1710 2230 2880
2020-06-07 18:45 5.41 2330 5030 (1974) 356 (2001) 1280 510 617 760 812 1110 1450 1710 2230 2880
2020-06-07 17:45 5.38 2300 5030 (1974) 356 (2001) 1280 510 617 760 812 1110 1450 1710 2230 2880
2020-06-07 16:45 5.43 2340 5030 (1974) 356 (2001) 1280 510 617 760 812 1110 1450 1710 2230 2880
2020-06-07 15:45 5.44 2350 5030 (1974) 356 (2001) 1280 510 617 760 812 1110 1450 1710 2230 2880
2020-06-07 14:45 5.41 2330 5030 (1974) 356 (2001) 1280 510 617 760 812 1110 1450 1710 2230 2880
2020-06-07 13:45 5.40 2320 5030 (1974) 356 (2001) 1280 510 617 760 812 1110 1450 1710 2230 2880
2020-06-07 12:45 5.43 2340 5030 (1974) 356 (2001) 1280 510 617 760 812 1110 1450 1710 2230 2880
2020-06-07 11:45 5.45 2360 5030 (1974) 356 (2001) 1280 510 617 760 812 1110 1450 1710 2230 2880
2020-06-07 10:45 5.45 2360 5030 (1974) 356 (2001) 1280 510 617 760 812 1110 1450 1710 2230 2880
2020-06-07 09:45 5.46 2370 5030 (1974) 356 (2001) 1280 510 617 760 812 1110 1450 1710 2230 2880
2020-06-07 08:45 5.45 2360 5030 (1974) 356 (2001) 1280 510 617 760 812 1110 1450 1710 2230 2880
2020-06-07 07:45 5.47 2380 5030 (1974) 356 (2001) 1280 510 617 760 812 1110 1450 1710 2230 2880
2020-06-07 06:45 5.47 2380 5030 (1974) 356 (2001) 1280 510 617 760 812 1110 1450 1710 2230 2880
2020-06-07 05:45 5.48 2390 5030 (1974) 356 (2001) 1280 510 617 760 812 1110 1450 1710 2230 2880
2020-06-07 04:45 5.48 2390 5030 (1974) 356 (2001) 1280 510 617 760 812 1110 1450 1710 2230 2880
2020-06-07 03:45 5.49 2400 5030 (1974) 356 (2001) 1280 510 617 760 812 1110 1450 1710 2230 2880
2020-06-07 02:45 5.50 2400 5030 (1974) 356 (2001) 1280 510 617 760 812 1110 1450 1710 2230 2880
2020-06-07 01:45 5.51 2410 5030 (1974) 356 (2001) 1280 510 617 760 812 1110 1450 1710 2230 2880
2020-06-07 00:45 5.51 2410 5030 (1974) 356 (2001) 1280 510 617 760 812 1110 1450 1710 2230 2880
2020-06-06 23:45 5.52 2420 3940 (2015) 337 (1936) 1300 510 635 761 826 1110 1460 1690 2220 3460
2020-06-06 22:45 5.52 2420 3940 (2015) 337 (1936) 1300 510 635 761 826 1110 1460 1690 2220 3460
2020-06-06 21:45 5.54 2440 3940 (2015) 337 (1936) 1300 510 635 761 826 1110 1460 1690 2220 3460
2020-06-06 20:45 5.54 2440 3940 (2015) 337 (1936) 1300 510 635 761 826 1110 1460 1690 2220 3460
2020-06-06 19:45 5.55 2450 3940 (2015) 337 (1936) 1300 510 635 761 826 1110 1460 1690 2220 3460
2020-06-06 18:45 5.54 2440 3940 (2015) 337 (1936) 1300 510 635 761 826 1110 1460 1690 2220 3460
2020-06-06 17:45 5.56 2460 3940 (2015) 337 (1936) 1300 510 635 761 826 1110 1460 1690 2220 3460
2020-06-06 16:45 5.56 2460 3940 (2015) 337 (1936) 1300 510 635 761 826 1110 1460 1690 2220 3460
2020-06-06 15:45 5.60 2490 3940 (2015) 337 (1936) 1300 510 635 761 826 1110 1460 1690 2220 3460
2020-06-06 14:45 5.58 2470 3940 (2015) 337 (1936) 1300 510 635 761 826 1110 1460 1690 2220 3460
2020-06-06 13:45 5.58 2470 3940 (2015) 337 (1936) 1300 510 635 761 826 1110 1460 1690 2220 3460
2020-06-06 12:45 5.62 2510 3940 (2015) 337 (1936) 1300 510 635 761 826 1110 1460 1690 2220 3460
2020-06-06 11:45 5.63 2520 3940 (2015) 337 (1936) 1300 510 635 761 826 1110 1460 1690 2220 3460
2020-06-06 10:45 5.64 2520 3940 (2015) 337 (1936) 1300 510 635 761 826 1110 1460 1690 2220 3460
2020-06-06 09:45 5.65 2530 3940 (2015) 337 (1936) 1300 510 635 761 826 1110 1460 1690 2220 3460
2020-06-06 08:45 5.66 2540 3940 (2015) 337 (1936) 1300 510 635 761 826 1110 1460 1690 2220 3460
2020-06-06 07:45 5.67 2550 3940 (2015) 337 (1936) 1300 510 635 761 826 1110 1460 1690 2220 3460
2020-06-06 06:45 5.68 2560 3940 (2015) 337 (1936) 1300 510 635 761 826 1110 1460 1690 2220 3460
2020-06-06 05:45 5.70 2580 3940 (2015) 337 (1936) 1300 510 635 761 826 1110 1460 1690 2220 3460
2020-06-06 04:45 5.71 2590 3940 (2015) 337 (1936) 1300 510 635 761 826 1110 1460 1690 2220 3460
2020-06-06 03:45 5.71 2590 3940 (2015) 337 (1936) 1300 510 635 761 826 1110 1460 1690 2220 3460
2020-06-06 02:45 5.70 2580 3940 (2015) 337 (1936) 1300 510 635 761 826 1110 1460 1690 2220 3460
2020-06-06 01:45 5.71 2590 3940 (2015) 337 (1936) 1300 510 635 761 826 1110 1460 1690 2220 3460
2020-06-06 00:45 5.70 2580 3940 (2015) 337 (1936) 1300 510 635 761 826 1110 1460 1690 2220 3460
2020-06-05 23:45 5.69 2570 5020 (1950) 363 (1936) 1290 560 671 760 814 1130 1440 1510 2220 3210
2020-06-05 22:45 5.71 2590 5020 (1950) 363 (1936) 1290 560 671 760 814 1130 1440 1510 2220 3210
2020-06-05 21:45 5.71 2590 5020 (1950) 363 (1936) 1290 560 671 760 814 1130 1440 1510 2220 3210
2020-06-05 20:45 5.73 2600 5020 (1950) 363 (1936) 1290 560 671 760 814 1130 1440 1510 2220 3210
2020-06-05 19:45 5.74 2610 5020 (1950) 363 (1936) 1290 560 671 760 814 1130 1440 1510 2220 3210
2020-06-05 18:45 5.71 2590 5020 (1950) 363 (1936) 1290 560 671 760 814 1130 1440 1510 2220 3210
2020-06-05 17:45 5.75 2620 5020 (1950) 363 (1936) 1290 560 671 760 814 1130 1440 1510 2220 3210
2020-06-05 16:45 5.74 2610 5020 (1950) 363 (1936) 1290 560 671 760 814 1130 1440 1510 2220 3210
2020-06-05 15:45 5.73 2600 5020 (1950) 363 (1936) 1290 560 671 760 814 1130 1440 1510 2220 3210
2020-06-05 14:45 5.74 2610 5020 (1950) 363 (1936) 1290 560 671 760 814 1130 1440 1510 2220 3210
2020-06-05 13:45 5.74 2610 5020 (1950) 363 (1936) 1290 560 671 760 814 1130 1440 1510 2220 3210
2020-06-05 12:45 5.73 2600 5020 (1950) 363 (1936) 1290 560 671 760 814 1130 1440 1510 2220 3210
2020-06-05 11:45 5.74 2610 5020 (1950) 363 (1936) 1290 560 671 760 814 1130 1440 1510 2220 3210
2020-06-05 10:45 5.75 2620 5020 (1950) 363 (1936) 1290 560 671 760 814 1130 1440 1510 2220 3210
2020-06-05 09:45 5.75 2620 5020 (1950) 363 (1936) 1290 560 671 760 814 1130 1440 1510 2220 3210
2020-06-05 08:45 5.77 2640 5020 (1950) 363 (1936) 1290 560 671 760 814 1130 1440 1510 2220 3210
2020-06-05 07:45 5.77 2640 5020 (1950) 363 (1936) 1290 560 671 760 814 1130 1440 1510 2220 3210
2020-06-05 06:45 5.79 2660 5020 (1950) 363 (1936) 1290 560 671 760 814 1130 1440 1510 2220 3210
2020-06-05 05:45 5.80 2660 5020 (1950) 363 (1936) 1290 560 671 760 814 1130 1440 1510 2220 3210
2020-06-05 04:45 5.79 2660 5020 (1950) 363 (1936) 1290 560 671 760 814 1130 1440 1510 2220 3210
2020-06-05 03:45 5.81 2670 5020 (1950) 363 (1936) 1290 560 671 760 814 1130 1440 1510 2220 3210
2020-06-05 02:45 5.82 2680 5020 (1950) 363 (1936) 1290 560 671 760 814 1130 1440 1510 2220 3210
2020-06-05 01:45 5.82 2680 5020 (1950) 363 (1936) 1290 560 671 760 814 1130 1440 1510 2220 3210
2020-06-05 00:45 5.83 2690 5020 (1950) 363 (1936) 1290 560 671 760 814 1130 1440 1510 2220 3210
2020-06-04 23:45 5.85 2710 9350 (1950) 363 (1936) 1350 492 689 767 826 1150 1520 1640 2310 2710
2020-06-04 22:45 5.86 2720 9350 (1950) 363 (1936) 1350 492 689 767 826 1150 1520 1640 2310 2710
2020-06-04 21:45 5.88 2740 9350 (1950) 363 (1936) 1350 492 689 767 826 1150 1520 1640 2310 2710
2020-06-04 20:45 5.91 2760 9350 (1950) 363 (1936) 1350 492 689 767 826 1150 1520 1640 2310 2710
2020-06-04 19:45 5.93 2780 9350 (1950) 363 (1936) 1350 492 689 767 826 1150 1520 1640 2310 2710
2020-06-04 18:45 5.96 2810 9350 (1950) 363 (1936) 1350 492 689 767 826 1150 1520 1640 2310 2710
2020-06-04 17:45 6.01 2850 9350 (1950) 363 (1936) 1350 492 689 767 826 1150 1520 1640 2310 2710
2020-06-04 16:45 6.06 2900 9350 (1950) 363 (1936) 1350 492 689 767 826 1150 1520 1640 2310 2710
2020-06-04 15:45 6.11 2940 9350 (1950) 363 (1936) 1350 492 689 767 826 1150 1520 1640 2310 2710
2020-06-04 14:45 6.24 3060 9350 (1950) 363 (1936) 1350 492 689 767 826 1150 1520 1640 2310 2710
2020-06-04 13:45 6.37 3180 9350 (1950) 363 (1936) 1350 492 689 767 826 1150 1520 1640 2310 2710
2020-06-04 12:45 6.51 3310 9350 (1950) 363 (1936) 1350 492 689 767 826 1150 1520 1640 2310 2710
2020-06-04 11:45 6.70 3490 9350 (1950) 363 (1936) 1350 492 689 767 826 1150 1520 1640 2310 2710
2020-06-04 10:45 6.86 3640 9350 (1950) 363 (1936) 1350 492 689 767 826 1150 1520 1640 2310 2710
2020-06-04 09:45 6.96 3740 9350 (1950) 363 (1936) 1350 492 689 767 826 1150 1520 1640 2310 2710
2020-06-04 08:45 6.95 3730 9350 (1950) 363 (1936) 1350 492 689 767 826 1150 1520 1640 2310 2710
2020-06-04 07:45 6.78 3560 9350 (1950) 363 (1936) 1350 492 689 767 826 1150 1520 1640 2310 2710
2020-06-04 06:45 6.46 3260 9350 (1950) 363 (1936) 1350 492 689 767 826 1150 1520 1640 2310 2710
2020-06-04 05:45 6.16 2990 9350 (1950) 363 (1936) 1350 492 689 767 826 1150 1520 1640 2310 2710
2020-06-04 04:45 5.95 2800 9350 (1950) 363 (1936) 1350 492 689 767 826 1150 1520 1640 2310 2710
2020-06-04 03:45 5.88 2740 9350 (1950) 363 (1936) 1350 492 689 767 826 1150 1520 1640 2310 2710
2020-06-04 02:45 5.83 2690 9350 (1950) 363 (1936) 1350 492 689 767 826 1150 1520 1640 2310 2710
2020-06-04 01:45 5.81 2670 9350 (1950) 363 (1936) 1350 492 689 767 826 1150 1520 1640 2310 2710
2020-06-04 00:45 5.77 2640 9350 (1950) 363 (1936) 1350 492 689 767 826 1150 1520 1640 2310 2710
2020-06-03 23:45 5.73 2600 5090 (1950) 363 (1936) 1330 541 700 773 832 1160 1520 1570 2440 3020
2020-06-03 22:45 5.71 2590 5090 (1950) 363 (1936) 1330 541 700 773 832 1160 1520 1570 2440 3020
2020-06-03 21:45 5.71 2590 5090 (1950) 363 (1936) 1330 541 700 773 832 1160 1520 1570 2440 3020
2020-06-03 20:45 5.72 2590 5090 (1950) 363 (1936) 1330 541 700 773 832 1160 1520 1570 2440 3020
2020-06-03 19:45 5.72 2590 5090 (1950) 363 (1936) 1330 541 700 773 832 1160 1520 1570 2440 3020
2020-06-03 18:45 5.73 2600 5090 (1950) 363 (1936) 1330 541 700 773 832 1160 1520 1570 2440 3020
2020-06-03 17:45 5.73 2600 5090 (1950) 363 (1936) 1330 541 700 773 832 1160 1520 1570 2440 3020
2020-06-03 16:45 5.73 2600 5090 (1950) 363 (1936) 1330 541 700 773 832 1160 1520 1570 2440 3020
2020-06-03 15:45 5.73 2600 5090 (1950) 363 (1936) 1330 541 700 773 832 1160 1520 1570 2440 3020
2020-06-03 14:45 5.74 2610 5090 (1950) 363 (1936) 1330 541 700 773 832 1160 1520 1570 2440 3020
2020-06-03 13:45 5.75 2620 5090 (1950) 363 (1936) 1330 541 700 773 832 1160 1520 1570 2440 3020
2020-06-03 12:45 5.73 2600 5090 (1950) 363 (1936) 1330 541 700 773 832 1160 1520 1570 2440 3020
2020-06-03 11:45 5.74 2610 5090 (1950) 363 (1936) 1330 541 700 773 832 1160 1520 1570 2440 3020
2020-06-03 10:45 5.74 2610 5090 (1950) 363 (1936) 1330 541 700 773 832 1160 1520 1570 2440 3020
2020-06-03 09:45 5.75 2620 5090 (1950) 363 (1936) 1330 541 700 773 832 1160 1520 1570 2440 3020
2020-06-03 08:45 5.75 2620 5090 (1950) 363 (1936) 1330 541 700 773 832 1160 1520 1570 2440 3020
2020-06-03 07:45 5.76 2630 5090 (1950) 363 (1936) 1330 541 700 773 832 1160 1520 1570 2440 3020
2020-06-03 06:45 5.77 2640 5090 (1950) 363 (1936) 1330 541 700 773 832 1160 1520 1570 2440 3020
2020-06-03 05:45 5.77 2640 5090 (1950) 363 (1936) 1330 541 700 773 832 1160 1520 1570 2440 3020
2020-06-03 04:45 5.78 2650 5090 (1950) 363 (1936) 1330 541 700 773 832 1160 1520 1570 2440 3020
2020-06-03 03:45 5.80 2660 5090 (1950) 363 (1936) 1330 541 700 773 832 1160 1520 1570 2440 3020
2020-06-03 02:45 5.79 2660 5090 (1950) 363 (1936) 1330 541 700 773 832 1160 1520 1570 2440 3020
2020-06-03 01:45 5.80 2660 5090 (1950) 363 (1936) 1330 541 700 773 832 1160 1520 1570 2440 3020
2020-06-03 00:45 5.81 2670 5090 (1950) 363 (1936) 1330 541 700 773 832 1160 1520 1570 2440 3020
2020-06-02 23:45 5.81 2670 6230 (1942) 361 (2001) 1410 510 681 797 859 1150 1550 1690 2510 3560
2020-06-02 22:45 5.82 2680 6230 (1942) 361 (2001) 1410 510 681 797 859 1150 1550 1690 2510 3560
2020-06-02 21:45 5.82 2680 6230 (1942) 361 (2001) 1410 510 681 797 859 1150 1550 1690 2510 3560
2020-06-02 20:45 5.84 2700 6230 (1942) 361 (2001) 1410 510 681 797 859 1150 1550 1690 2510 3560
2020-06-02 19:45 5.84 2700 6230 (1942) 361 (2001) 1410 510 681 797 859 1150 1550 1690 2510 3560
2020-06-02 18:45 5.85 2710 6230 (1942) 361 (2001) 1410 510 681 797 859 1150 1550 1690 2510 3560
2020-06-02 17:45 5.86 2720 6230 (1942) 361 (2001) 1410 510 681 797 859 1150 1550 1690 2510 3560
2020-06-02 16:45 5.87 2730 6230 (1942) 361 (2001) 1410 510 681 797 859 1150 1550 1690 2510 3560
2020-06-02 15:45 5.87 2730 6230 (1942) 361 (2001) 1410 510 681 797 859 1150 1550 1690 2510 3560
2020-06-02 14:45 5.89 2740 6230 (1942) 361 (2001) 1410 510 681 797 859 1150 1550 1690 2510 3560
2020-06-02 13:45 5.88 2740 6230 (1942) 361 (2001) 1410 510 681 797 859 1150 1550 1690 2510 3560
2020-06-02 12:45 5.89 2740 6230 (1942) 361 (2001) 1410 510 681 797 859 1150 1550 1690 2510 3560
2020-06-02 11:45 5.89 2740 6230 (1942) 361 (2001) 1410 510 681 797 859 1150 1550 1690 2510 3560
2020-06-02 10:45 5.90 2750 6230 (1942) 361 (2001) 1410 510 681 797 859 1150 1550 1690 2510 3560
2020-06-02 09:45 5.90 2750 6230 (1942) 361 (2001) 1410 510 681 797 859 1150 1550 1690 2510 3560
2020-06-02 08:45 5.91 2760 6230 (1942) 361 (2001) 1410 510 681 797 859 1150 1550 1690 2510 3560
2020-06-02 07:45 5.90 2750 6230 (1942) 361 (2001) 1410 510 681 797 859 1150 1550 1690 2510 3560
2020-06-02 06:45 5.92 2770 6230 (1942) 361 (2001) 1410 510 681 797 859 1150 1550 1690 2510 3560
2020-06-02 05:45 5.93 2780 6230 (1942) 361 (2001) 1410 510 681 797 859 1150 1550 1690 2510 3560
2020-06-02 04:45 5.94 2790 6230 (1942) 361 (2001) 1410 510 681 797 859 1150 1550 1690 2510 3560
2020-06-02 03:45 5.95 2800 6230 (1942) 361 (2001) 1410 510 681 797 859 1150 1550 1690 2510 3560
2020-06-02 02:45 5.95 2800 6230 (1942) 361 (2001) 1410 510 681 797 859 1150 1550 1690 2510 3560
2020-06-02 01:45 5.97 2820 6230 (1942) 361 (2001) 1410 510 681 797 859 1150 1550 1690 2510 3560
2020-06-02 00:45 5.97 2820 6230 (1942) 361 (2001) 1410 510 681 797 859 1150 1550 1690 2510 3560
2020-06-01 23:45 5.98 2820 19800 (1942) 369 (2001) 1570 510 685 828 859 1120 1570 1630 2600 3280
2020-06-01 22:45 5.98 2820 19800 (1942) 369 (2001) 1570 510 685 828 859 1120 1570 1630 2600 3280
2020-06-01 21:45 5.99 2830 19800 (1942) 369 (2001) 1570 510 685 828 859 1120 1570 1630 2600 3280
2020-06-01 20:45 6.01 2850 19800 (1942) 369 (2001) 1570 510 685 828 859 1120 1570 1630 2600 3280
2020-06-01 19:45 6.01 2850 19800 (1942) 369 (2001) 1570 510 685 828 859 1120 1570 1630 2600 3280
2020-06-01 18:45 6.03 2870 19800 (1942) 369 (2001) 1570 510 685 828 859 1120 1570 1630 2600 3280
2020-06-01 17:45 6.05 2890 19800 (1942) 369 (2001) 1570 510 685 828 859 1120 1570 1630 2600 3280
2020-06-01 16:45 6.07 2910 19800 (1942) 369 (2001) 1570 510 685 828 859 1120 1570 1630 2600 3280
2020-06-01 15:45 6.06 2900 19800 (1942) 369 (2001) 1570 510 685 828 859 1120 1570 1630 2600 3280
2020-06-01 14:45 6.07 2910 19800 (1942) 369 (2001) 1570 510 685 828 859 1120 1570 1630 2600 3280
2020-06-01 13:45 6.07 2910 19800 (1942) 369 (2001) 1570 510 685 828 859 1120 1570 1630 2600 3280
2020-06-01 12:45 6.08 2910 19800 (1942) 369 (2001) 1570 510 685 828 859 1120 1570 1630 2600 3280
2020-06-01 11:45 6.08 2910 19800 (1942) 369 (2001) 1570 510 685 828 859 1120 1570 1630 2600 3280
2020-06-01 10:45 6.09 2920 19800 (1942) 369 (2001) 1570 510 685 828 859 1120 1570 1630 2600 3280
2020-06-01 09:45 6.09 2920 19800 (1942) 369 (2001) 1570 510 685 828 859 1120 1570 1630 2600 3280
2020-06-01 08:45 6.10 2930 19800 (1942) 369 (2001) 1570 510 685 828 859 1120 1570 1630 2600 3280
2020-06-01 07:45 6.13 2960 19800 (1942) 369 (2001) 1570 510 685 828 859 1120 1570 1630 2600 3280
2020-06-01 06:45 6.13 2960 19800 (1942) 369 (2001) 1570 510 685 828 859 1120 1570 1630 2600 3280
2020-06-01 05:45 6.15 2980 19800 (1942) 369 (2001) 1570 510 685 828 859 1120 1570 1630 2600 3280
2020-06-01 04:45 6.14 2970 19800 (1942) 369 (2001) 1570 510 685 828 859 1120 1570 1630 2600 3280
2020-06-01 03:45 6.16 2990 19800 (1942) 369 (2001) 1570 510 685 828 859 1120 1570 1630 2600 3280
2020-06-01 02:45 6.18 3000 19800 (1942) 369 (2001) 1570 510 685 828 859 1120 1570 1630 2600 3280
2020-06-01 01:45 6.19 3010 19800 (1942) 369 (2001) 1570 510 685 828 859 1120 1570 1630 2600 3280
2020-06-01 00:45 6.20 3020 19800 (1942) 369 (2001) 1570 510 685 828 859 1120 1570 1630 2600 3280
2020-05-31 23:45 6.21 3030 6710 (1950) 382 (2001) 1430 510 708 833 878 1130 1580 1690 2720 3410
2020-05-31 22:45 6.23 3050 6710 (1950) 382 (2001) 1430 510 708 833 878 1130 1580 1690 2720 3410
2020-05-31 21:45 6.24 3060 6710 (1950) 382 (2001) 1430 510 708 833 878 1130 1580 1690 2720 3410
2020-05-31 20:45 6.25 3070 6710 (1950) 382 (2001) 1430 510 708 833 878 1130 1580 1690 2720 3410
2020-05-31 19:45 6.26 3080 6710 (1950) 382 (2001) 1430 510 708 833 878 1130 1580 1690 2720 3410
2020-05-31 18:45 6.28 3100 6710 (1950) 382 (2001) 1430 510 708 833 878 1130 1580 1690 2720 3410
2020-05-31 17:45 6.30 3110 6710 (1950) 382 (2001) 1430 510 708 833 878 1130 1580 1690 2720 3410
2020-05-31 16:45 6.32 3130 6710 (1950) 382 (2001) 1430 510 708 833 878 1130 1580 1690 2720 3410
2020-05-31 15:45 6.31 3120 6710 (1950) 382 (2001) 1430 510 708 833 878 1130 1580 1690 2720 3410
2020-05-31 14:45 6.30 3110 6710 (1950) 382 (2001) 1430 510 708 833 878 1130 1580 1690 2720 3410
2020-05-31 13:45 6.35 3160 6710 (1950) 382 (2001) 1430 510 708 833 878 1130 1580 1690 2720 3410
2020-05-31 12:45 6.36 3170 6710 (1950) 382 (2001) 1430 510 708 833 878 1130 1580 1690 2720 3410
2020-05-31 11:45 6.34 3150 6710 (1950) 382 (2001) 1430 510 708 833 878 1130 1580 1690 2720 3410
2020-05-31 10:45 6.38 3190 6710 (1950) 382 (2001) 1430 510 708 833 878 1130 1580 1690 2720 3410
2020-05-31 09:45 6.38 3190 6710 (1950) 382 (2001) 1430 510 708 833 878 1130 1580 1690 2720 3410
2020-05-31 08:45 6.41 3220 6710 (1950) 382 (2001) 1430 510 708 833 878 1130 1580 1690 2720 3410
2020-05-31 07:45 6.41 3220 6710 (1950) 382 (2001) 1430 510 708 833 878 1130 1580 1690 2720 3410
2020-05-31 06:45 6.43 3230 6710 (1950) 382 (2001) 1430 510 708 833 878 1130 1580 1690 2720 3410
2020-05-31 05:45 6.44 3240 6710 (1950) 382 (2001) 1430 510 708 833 878 1130 1580 1690 2720 3410
2020-05-31 04:45 6.46 3260 6710 (1950) 382 (2001) 1430 510 708 833 878 1130 1580 1690 2720 3410
2020-05-31 03:45 6.47 3270 6710 (1950) 382 (2001) 1430 510 708 833 878 1130 1580 1690 2720 3410
2020-05-31 02:45 6.49 3290 6710 (1950) 382 (2001) 1430 510 708 833 878 1130 1580 1690 2720 3410
2020-05-31 01:45 6.51 3310 6710 (1950) 382 (2001) 1430 510 708 833 878 1130 1580 1690 2720 3410
2020-05-31 00:45 6.52 3320 6710 (1950) 382 (2001) 1430 510 708 833 878 1130 1580 1690 2720 3410
2020-05-30 23:45 6.54 3340 5660 (1950) 363 (1936) 1370 510 720 830 883 1140 1610 1770 2370 2920
2020-05-30 22:45 6.56 3360 5660 (1950) 363 (1936) 1370 510 720 830 883 1140 1610 1770 2370 2920
2020-05-30 21:45 6.57 3370 5660 (1950) 363 (1936) 1370 510 720 830 883 1140 1610 1770 2370 2920
2020-05-30 20:45 6.60 3390 5660 (1950) 363 (1936) 1370 510 720 830 883 1140 1610 1770 2370 2920
2020-05-30 19:45 6.62 3410 5660 (1950) 363 (1936) 1370 510 720 830 883 1140 1610 1770 2370 2920
2020-05-30 18:45 6.63 3420 5660 (1950) 363 (1936) 1370 510 720 830 883 1140 1610 1770 2370 2920
2020-05-30 17:45 6.66 3450 5660 (1950) 363 (1936) 1370 510 720 830 883 1140 1610 1770 2370 2920
2020-05-30 16:45 6.69 3480 5660 (1950) 363 (1936) 1370 510 720 830 883 1140 1610 1770 2370 2920
2020-05-30 15:45 6.70 3490 5660 (1950) 363 (1936) 1370 510 720 830 883 1140 1610 1770 2370 2920
2020-05-30 14:45 6.74 3530 5660 (1950) 363 (1936) 1370 510 720 830 883 1140 1610 1770 2370 2920
2020-05-30 13:45 6.73 3520 5660 (1950) 363 (1936) 1370 510 720 830 883 1140 1610 1770 2370 2920
2020-05-30 12:45 6.78 3560 5660 (1950) 363 (1936) 1370 510 720 830 883 1140 1610 1770 2370 2920
2020-05-30 11:45 6.78 3560 5660 (1950) 363 (1936) 1370 510 720 830 883 1140 1610 1770 2370 2920
2020-05-30 10:45 6.80 3580 5660 (1950) 363 (1936) 1370 510 720 830 883 1140 1610 1770 2370 2920
2020-05-30 09:45 6.84 3620 5660 (1950) 363 (1936) 1370 510 720 830 883 1140 1610 1770 2370 2920
2020-05-30 08:45 6.87 3650 5660 (1950) 363 (1936) 1370 510 720 830 883 1140 1610 1770 2370 2920
2020-05-30 07:45 6.89 3670 5660 (1950) 363 (1936) 1370 510 720 830 883 1140 1610 1770 2370 2920
2020-05-30 06:45 6.92 3700 5660 (1950) 363 (1936) 1370 510 720 830 883 1140 1610 1770 2370 2920
2020-05-30 05:45 6.94 3720 5660 (1950) 363 (1936) 1370 510 720 830 883 1140 1610 1770 2370 2920
2020-05-30 04:45 6.97 3750 5660 (1950) 363 (1936) 1370 510 720 830 883 1140 1610 1770 2370 2920
2020-05-30 03:45 7.00 3780 5660 (1950) 363 (1936) 1370 510 720 830 883 1140 1610 1770 2370 2920
2020-05-30 02:45 7.01 3790 5660 (1950) 363 (1936) 1370 510 720 830 883 1140 1610 1770 2370 2920
2020-05-30 01:45 7.03 3810 5660 (1950) 363 (1936) 1370 510 720 830 883 1140 1610 1770 2370 2920
2020-05-30 00:45 7.05 3820 5660 (1950) 363 (1936) 1370 510 720 830 883 1140 1610 1770 2370 2920
2020-05-29 23:45 7.08 3850 6330 (2016) 359 (2001) 1420 510 729 859 886 1170 1650 1820 2470 3100
2020-05-29 22:45 7.07 3840 6330 (2016) 359 (2001) 1420 510 729 859 886 1170 1650 1820 2470 3100
2020-05-29 21:45 7.09 3860 6330 (2016) 359 (2001) 1420 510 729 859 886 1170 1650 1820 2470 3100
2020-05-29 20:45 7.09 3860 6330 (2016) 359 (2001) 1420 510 729 859 886 1170 1650 1820 2470 3100
2020-05-29 19:45 7.10 3870 6330 (2016) 359 (2001) 1420 510 729 859 886 1170 1650 1820 2470 3100
2020-05-29 18:45 7.10 3870 6330 (2016) 359 (2001) 1420 510 729 859 886 1170 1650 1820 2470 3100
2020-05-29 17:45 7.12 3890 6330 (2016) 359 (2001) 1420 510 729 859 886 1170 1650 1820 2470 3100
2020-05-29 16:45 7.13 3900 6330 (2016) 359 (2001) 1420 510 729 859 886 1170 1650 1820 2470 3100
2020-05-29 15:45 7.15 3920 6330 (2016) 359 (2001) 1420 510 729 859 886 1170 1650 1820 2470 3100
2020-05-29 14:45 7.17 3940 6330 (2016) 359 (2001) 1420 510 729 859 886 1170 1650 1820 2470 3100
2020-05-29 13:45 7.19 3960 6330 (2016) 359 (2001) 1420 510 729 859 886 1170 1650 1820 2470 3100
2020-05-29 12:45 7.19 3960 6330 (2016) 359 (2001) 1420 510 729 859 886 1170 1650 1820 2470 3100
2020-05-29 11:45 7.21 3980 6330 (2016) 359 (2001) 1420 510 729 859 886 1170 1650 1820 2470 3100
2020-05-29 10:45 7.22 3990 6330 (2016) 359 (2001) 1420 510 729 859 886 1170 1650 1820 2470 3100
2020-05-29 09:45 7.24 4010 6330 (2016) 359 (2001) 1420 510 729 859 886 1170 1650 1820 2470 3100
2020-05-29 08:45 7.29 4060 6330 (2016) 359 (2001) 1420 510 729 859 886 1170 1650 1820 2470 3100
2020-05-29 07:45 7.32 4090 6330 (2016) 359 (2001) 1420 510 729 859 886 1170 1650 1820 2470 3100
2020-05-29 06:45 7.37 4140 6330 (2016) 359 (2001) 1420 510 729 859 886 1170 1650 1820 2470 3100
2020-05-29 05:45 7.38 4150 6330 (2016) 359 (2001) 1420 510 729 859 886 1170 1650 1820 2470 3100
2020-05-29 04:45 7.44 4210 6330 (2016) 359 (2001) 1420 510 729 859 886 1170 1650 1820 2470 3100
2020-05-29 03:45 7.47 4240 6330 (2016) 359 (2001) 1420 510 729 859 886 1170 1650 1820 2470 3100
2020-05-29 02:45 7.53 4300 6330 (2016) 359 (2001) 1420 510 729 859 886 1170 1650 1820 2470 3100
2020-05-29 01:45 7.55 4320 6330 (2016) 359 (2001) 1420 510 729 859 886 1170 1650 1820 2470 3100
2020-05-29 00:45 7.61 4380 6330 (2016) 359 (2001) 1420 510 729 859 886 1170 1650 1820 2470 3100
2020-05-28 23:45 7.68 4450 14300 (2016) 367 (2001) 1670 510 736 878 905 1180 1650 1890 2570 3410
2020-05-28 22:45 7.74 4510 14300 (2016) 367 (2001) 1670 510 736 878 905 1180 1650 1890 2570 3410
2020-05-28 21:45 7.80 4570 14300 (2016) 367 (2001) 1670 510 736 878 905 1180 1650 1890 2570 3410
2020-05-28 20:45 7.87 4640 14300 (2016) 367 (2001) 1670 510 736 878 905 1180 1650 1890 2570 3410
2020-05-28 19:45 7.93 4700 14300 (2016) 367 (2001) 1670 510 736 878 905 1180 1650 1890 2570 3410
2020-05-28 18:45 8.00 4760 14300 (2016) 367 (2001) 1670 510 736 878 905 1180 1650 1890 2570 3410
2020-05-28 17:45 8.09 4850 14300 (2016) 367 (2001) 1670 510 736 878 905 1180 1650 1890 2570 3410
2020-05-28 16:45 8.17 4930 14300 (2016) 367 (2001) 1670 510 736 878 905 1180 1650 1890 2570 3410
2020-05-28 15:45 8.26 5010 14300 (2016) 367 (2001) 1670 510 736 878 905 1180 1650 1890 2570 3410
2020-05-28 14:45 8.36 5110 14300 (2016) 367 (2001) 1670 510 736 878 905 1180 1650 1890 2570 3410
2020-05-28 13:45 8.47 5220 14300 (2016) 367 (2001) 1670 510 736 878 905 1180 1650 1890 2570 3410
2020-05-28 12:45 8.58 5330 14300 (2016) 367 (2001) 1670 510 736 878 905 1180 1650 1890 2570 3410
2020-05-28 11:45 8.72 5470 14300 (2016) 367 (2001) 1670 510 736 878 905 1180 1650 1890 2570 3410
2020-05-28 10:45 8.86 5610 14300 (2016) 367 (2001) 1670 510 736 878 905 1180 1650 1890 2570 3410
2020-05-28 09:45 8.96 5710 14300 (2016) 367 (2001) 1670 510 736 878 905 1180 1650 1890 2570 3410
2020-05-28 08:45 9.08 5840 14300 (2016) 367 (2001) 1670 510 736 878 905 1180 1650 1890 2570 3410
2020-05-28 07:45 9.12 5880 14300 (2016) 367 (2001) 1670 510 736 878 905 1180 1650 1890 2570 3410
2020-05-28 06:45 9.15 5910 14300 (2016) 367 (2001) 1670 510 736 878 905 1180 1650 1890 2570 3410
2020-05-28 05:45 9.14 5900 14300 (2016) 367 (2001) 1670 510 736 878 905 1180 1650 1890 2570 3410
2020-05-28 04:45 9.11 5870 14300 (2016) 367 (2001) 1670 510 736 878 905 1180 1650 1890 2570 3410
2020-05-28 03:45 9.08 5840 14300 (2016) 367 (2001) 1670 510 736 878 905 1180 1650 1890 2570 3410
2020-05-28 02:45 9.08 5840 14300 (2016) 367 (2001) 1670 510 736 878 905 1180 1650 1890 2570 3410
2020-05-28 01:45 9.10 5860 14300 (2016) 367 (2001) 1670 510 736 878 905 1180 1650 1890 2570 3410
2020-05-28 00:45 9.18 5940 14300 (2016) 367 (2001) 1670 510 736 878 905 1180 1650 1890 2570 3410
2020-05-27 23:45 9.31 6080 11900 (1973) 375 (2001) 1700 510 741 859 921 1200 1740 1980 2750 4640
2020-05-27 22:45 9.43 6200 11900 (1973) 375 (2001) 1700 510 741 859 921 1200 1740 1980 2750 4640
2020-05-27 21:45 9.56 6340 11900 (1973) 375 (2001) 1700 510 741 859 921 1200 1740 1980 2750 4640
2020-05-27 20:45 9.64 6430 11900 (1973) 375 (2001) 1700 510 741 859 921 1200 1740 1980 2750 4640
2020-05-27 19:45 9.63 6420 11900 (1973) 375 (2001) 1700 510 741 859 921 1200 1740 1980 2750 4640
2020-05-27 18:45 9.63 6420 11900 (1973) 375 (2001) 1700 510 741 859 921 1200 1740 1980 2750 4640
2020-05-27 17:45 9.51 6290 11900 (1973) 375 (2001) 1700 510 741 859 921 1200 1740 1980 2750 4640
2020-05-27 16:45 9.34 6110 11900 (1973) 375 (2001) 1700 510 741 859 921 1200 1740 1980 2750 4640
2020-05-27 15:45 9.12 5880 11900 (1973) 375 (2001) 1700 510 741 859 921 1200 1740 1980 2750 4640
2020-05-27 14:45 8.91 5660 11900 (1973) 375 (2001) 1700 510 741 859 921 1200 1740 1980 2750 4640
2020-05-27 13:45 8.71 5460 11900 (1973) 375 (2001) 1700 510 741 859 921 1200 1740 1980 2750 4640
2020-05-27 12:45 8.42 5170 11900 (1973) 375 (2001) 1700 510 741 859 921 1200 1740 1980 2750 4640
2020-05-27 11:45 8.06 4820 11900 (1973) 375 (2001) 1700 510 741 859 921 1200 1740 1980 2750 4640
2020-05-27 10:45 7.64 4410 11900 (1973) 375 (2001) 1700 510 741 859 921 1200 1740 1980 2750 4640
2020-05-27 09:45 7.49 4260 11900 (1973) 375 (2001) 1700 510 741 859 921 1200 1740 1980 2750 4640
2020-05-27 08:45 7.57 4340 11900 (1973) 375 (2001) 1700 510 741 859 921 1200 1740 1980 2750 4640
2020-05-27 07:45 7.60 4370 11900 (1973) 375 (2001) 1700 510 741 859 921 1200 1740 1980 2750 4640
2020-05-27 06:45 7.68 4450 11900 (1973) 375 (2001) 1700 510 741 859 921 1200 1740 1980 2750 4640
2020-05-27 05:45 7.73 4500 11900 (1973) 375 (2001) 1700 510 741 859 921 1200 1740 1980 2750 4640
2020-05-27 04:45 7.81 4580 11900 (1973) 375 (2001) 1700 510 741 859 921 1200 1740 1980 2750 4640
2020-05-27 03:45 7.91 4680 11900 (1973) 375 (2001) 1700 510 741 859 921 1200 1740 1980 2750 4640
2020-05-27 02:45 8.00 4760 11900 (1973) 375 (2001) 1700 510 741 859 921 1200 1740 1980 2750 4640
2020-05-27 01:45 8.04 4800 11900 (1973) 375 (2001) 1700 510 741 859 921 1200 1740 1980 2750 4640
2020-05-27 00:45 7.95 4720 11900 (1973) 375 (2001) 1700 510 741 859 921 1200 1740 1980 2750 4640
2020-05-26 23:45 7.67 4440 8100 (1946) 384 (2001) 1600 510 727 859 933 1240 1800 2030 2610 4560
2020-05-26 22:45 7.50 4270 8100 (1946) 384 (2001) 1600 510 727 859 933 1240 1800 2030 2610 4560
2020-05-26 21:45 7.06 3830 8100 (1946) 384 (2001) 1600 510 727 859 933 1240 1800 2030 2610 4560
2020-05-26 20:45 6.55 3350 8100 (1946) 384 (2001) 1600 510 727 859 933 1240 1800 2030 2610 4560
2020-05-26 19:45 6.36 3170 8100 (1946) 384 (2001) 1600 510 727 859 933 1240 1800 2030 2610 4560
2020-05-26 18:45 6.27 3090 8100 (1946) 384 (2001) 1600 510 727 859 933 1240 1800 2030 2610 4560
2020-05-26 17:45 6.26 3080 8100 (1946) 384 (2001) 1600 510 727 859 933 1240 1800 2030 2610 4560
2020-05-26 16:45 6.30 3110 8100 (1946) 384 (2001) 1600 510 727 859 933 1240 1800 2030 2610 4560
2020-05-26 15:45 6.28 3100 8100 (1946) 384 (2001) 1600 510 727 859 933 1240 1800 2030 2610 4560
2020-05-26 14:45 6.28 3100 8100 (1946) 384 (2001) 1600 510 727 859 933 1240 1800 2030 2610 4560
2020-05-26 13:45 6.26 3080 8100 (1946) 384 (2001) 1600 510 727 859 933 1240 1800 2030 2610 4560
2020-05-26 12:45 6.25 3070 8100 (1946) 384 (2001) 1600 510 727 859 933 1240 1800 2030 2610 4560
2020-05-26 11:45 6.26 3080 8100 (1946) 384 (2001) 1600 510 727 859 933 1240 1800 2030 2610 4560
2020-05-26 10:45 6.28 3100 8100 (1946) 384 (2001) 1600 510 727 859 933 1240 1800 2030 2610 4560
2020-05-26 09:45 6.29 3110 8100 (1946) 384 (2001) 1600 510 727 859 933 1240 1800 2030 2610 4560
2020-05-26 08:45 6.29 3110 8100 (1946) 384 (2001) 1600 510 727 859 933 1240 1800 2030 2610 4560
2020-05-26 07:45 6.29 3110 8100 (1946) 384 (2001) 1600 510 727 859 933 1240 1800 2030 2610 4560
2020-05-26 06:45 6.31 3120 8100 (1946) 384 (2001) 1600 510 727 859 933 1240 1800 2030 2610 4560
2020-05-26 05:45 6.32 3130 8100 (1946) 384 (2001) 1600 510 727 859 933 1240 1800 2030 2610 4560
2020-05-26 04:45 6.33 3140 8100 (1946) 384 (2001) 1600 510 727 859 933 1240 1800 2030 2610 4560
2020-05-26 03:45 6.33 3140 8100 (1946) 384 (2001) 1600 510 727 859 933 1240 1800 2030 2610 4560
2020-05-26 02:45 6.34 3150 8100 (1946) 384 (2001) 1600 510 727 859 933 1240 1800 2030 2610 4560
2020-05-26 01:45 6.33 3140 8100 (1946) 384 (2001) 1600 510 727 859 933 1240 1800 2030 2610 4560
2020-05-26 00:45 6.36 3170 8100 (1946) 384 (2001) 1600 510 727 859 933 1240 1800 2030 2610 4560
2020-05-25 23:45 6.37 3180 11000 (2016) 401 (2001) 1700 510 715 890 924 1270 1820 2130 2910 4740
2020-05-25 22:45 6.39 3200 11000 (2016) 401 (2001) 1700 510 715 890 924 1270 1820 2130 2910 4740
2020-05-25 21:45 6.40 3210 11000 (2016) 401 (2001) 1700 510 715 890 924 1270 1820 2130 2910 4740
2020-05-25 20:45 6.41 3220 11000 (2016) 401 (2001) 1700 510 715 890 924 1270 1820 2130 2910 4740
2020-05-25 19:45 6.42 3230 11000 (2016) 401 (2001) 1700 510 715 890 924 1270 1820 2130 2910 4740
2020-05-25 18:45 6.44 3240 11000 (2016) 401 (2001) 1700 510 715 890 924 1270 1820 2130 2910 4740
2020-05-25 17:45 6.44 3240 11000 (2016) 401 (2001) 1700 510 715 890 924 1270 1820 2130 2910 4740
2020-05-25 16:45 6.41 3220 11000 (2016) 401 (2001) 1700 510 715 890 924 1270 1820 2130 2910 4740
2020-05-25 15:45 6.45 3250 11000 (2016) 401 (2001) 1700 510 715 890 924 1270 1820 2130 2910 4740
2020-05-25 14:45 6.46 3260 11000 (2016) 401 (2001) 1700 510 715 890 924 1270 1820 2130 2910 4740
2020-05-25 13:45 6.48 3280 11000 (2016) 401 (2001) 1700 510 715 890 924 1270 1820 2130 2910 4740
2020-05-25 12:45 6.46 3260 11000 (2016) 401 (2001) 1700 510 715 890 924 1270 1820 2130 2910 4740
2020-05-25 11:45 6.50 3300 11000 (2016) 401 (2001) 1700 510 715 890 924 1270 1820 2130 2910 4740
2020-05-25 10:45 6.51 3310 11000 (2016) 401 (2001) 1700 510 715 890 924 1270 1820 2130 2910 4740
2020-05-25 09:45 6.51 3310 11000 (2016) 401 (2001) 1700 510 715 890 924 1270 1820 2130 2910 4740
2020-05-25 08:45 6.52 3320 11000 (2016) 401 (2001) 1700 510 715 890 924 1270 1820 2130 2910 4740
2020-05-25 07:45 6.56 3360 11000 (2016) 401 (2001) 1700 510 715 890 924 1270 1820 2130 2910 4740
2020-05-25 06:45 6.57 3370 11000 (2016) 401 (2001) 1700 510 715 890 924 1270 1820 2130 2910 4740
2020-05-25 05:45 6.58 3370 11000 (2016) 401 (2001) 1700 510 715 890 924 1270 1820 2130 2910 4740
2020-05-25 04:45 6.59 3380 11000 (2016) 401 (2001) 1700 510 715 890 924 1270 1820 2130 2910 4740
2020-05-25 03:45 6.60 3390 11000 (2016) 401 (2001) 1700 510 715 890 924 1270 1820 2130 2910 4740
2020-05-25 02:45 6.62 3410 11000 (2016) 401 (2001) 1700 510 715 890 924 1270 1820 2130 2910 4740
2020-05-25 01:45 6.63 3420 11000 (2016) 401 (2001) 1700 510 715 890 924 1270 1820 2130 2910 4740
2020-05-25 00:45 6.65 3440 11000 (2016) 401 (2001) 1700 510 715 890 924 1270 1820 2130 2910 4740
2020-05-24 23:45 6.66 3450 14600 (1957) 424 (2001) 1660 510 725 859 921 1290 1860 2060 2500 3660
2020-05-24 22:45 6.68 3470 14600 (1957) 424 (2001) 1660 510 725 859 921 1290 1860 2060 2500 3660
2020-05-24 21:45 6.70 3490 14600 (1957) 424 (2001) 1660 510 725 859 921 1290 1860 2060 2500 3660
2020-05-24 20:45 6.71 3500 14600 (1957) 424 (2001) 1660 510 725 859 921 1290 1860 2060 2500 3660
2020-05-24 19:45 6.74 3530 14600 (1957) 424 (2001) 1660 510 725 859 921 1290 1860 2060 2500 3660
2020-05-24 18:45 6.75 3540 14600 (1957) 424 (2001) 1660 510 725 859 921 1290 1860 2060 2500 3660
2020-05-24 17:45 6.76 3550 14600 (1957) 424 (2001) 1660 510 725 859 921 1290 1860 2060 2500 3660
2020-05-24 16:45 6.78 3560 14600 (1957) 424 (2001) 1660 510 725 859 921 1290 1860 2060 2500 3660
2020-05-24 15:45 6.80 3580 14600 (1957) 424 (2001) 1660 510 725 859 921 1290 1860 2060 2500 3660
2020-05-24 14:45 6.79 3570 14600 (1957) 424 (2001) 1660 510 725 859 921 1290 1860 2060 2500 3660
2020-05-24 13:45 6.80 3580 14600 (1957) 424 (2001) 1660 510 725 859 921 1290 1860 2060 2500 3660
2020-05-24 12:45 6.85 3630 14600 (1957) 424 (2001) 1660 510 725 859 921 1290 1860 2060 2500 3660
2020-05-24 11:45 6.87 3650 14600 (1957) 424 (2001) 1660 510 725 859 921 1290 1860 2060 2500 3660
2020-05-24 10:45 6.89 3670 14600 (1957) 424 (2001) 1660 510 725 859 921 1290 1860 2060 2500 3660
2020-05-24 09:45 6.91 3690 14600 (1957) 424 (2001) 1660 510 725 859 921 1290 1860 2060 2500 3660
2020-05-24 08:45 6.94 3720 14600 (1957) 424 (2001) 1660 510 725 859 921 1290 1860 2060 2500 3660
2020-05-24 07:45 6.96 3740 14600 (1957) 424 (2001) 1660 510 725 859 921 1290 1860 2060 2500 3660
2020-05-24 06:45 7.00 3780 14600 (1957) 424 (2001) 1660 510 725 859 921 1290 1860 2060 2500 3660
2020-05-24 05:45 7.03 3810 14600 (1957) 424 (2001) 1660 510 725 859 921 1290 1860 2060 2500 3660
2020-05-24 04:45 7.05 3820 14600 (1957) 424 (2001) 1660 510 725 859 921 1290 1860 2060 2500 3660
2020-05-24 03:45 7.08 3850 14600 (1957) 424 (2001) 1660 510 725 859 921 1290 1860 2060 2500 3660
2020-05-24 02:45 7.11 3880 14600 (1957) 424 (2001) 1660 510 725 859 921 1290 1860 2060 2500 3660
2020-05-24 01:45 7.15 3920 14600 (1957) 424 (2001) 1660 510 725 859 921 1290 1860 2060 2500 3660
2020-05-24 00:45 7.18 3950 14600 (1957) 424 (2001) 1660 510 725 859 921 1290 1860 2060 2500 3660
2020-05-23 23:45 7.22 3990 20500 (1957) 414 (1936) 1760 510 756 859 921 1330 1840 2090 2710 3990
2020-05-23 22:45 7.26 4030 20500 (1957) 414 (1936) 1760 510 756 859 921 1330 1840 2090 2710 3990
2020-05-23 21:45 7.28 4050 20500 (1957) 414 (1936) 1760 510 756 859 921 1330 1840 2090 2710 3990
2020-05-23 20:45 7.31 4080 20500 (1957) 414 (1936) 1760 510 756 859 921 1330 1840 2090 2710 3990
2020-05-23 19:45 7.32 4090 20500 (1957) 414 (1936) 1760 510 756 859 921 1330 1840 2090 2710 3990
2020-05-23 18:45 7.34 4110 20500 (1957) 414 (1936) 1760 510 756 859 921 1330 1840 2090 2710 3990
2020-05-23 17:45 7.33 4100 20500 (1957) 414 (1936) 1760 510 756 859 921 1330 1840 2090 2710 3990
2020-05-23 16:45 7.37 4140 20500 (1957) 414 (1936) 1760 510 756 859 921 1330 1840 2090 2710 3990
2020-05-23 15:45 7.36 4130 20500 (1957) 414 (1936) 1760 510 756 859 921 1330 1840 2090 2710 3990
2020-05-23 14:45 7.37 4140 20500 (1957) 414 (1936) 1760 510 756 859 921 1330 1840 2090 2710 3990
2020-05-23 13:45 7.37 4140 20500 (1957) 414 (1936) 1760 510 756 859 921 1330 1840 2090 2710 3990
2020-05-23 12:45 7.35 4120 20500 (1957) 414 (1936) 1760 510 756 859 921 1330 1840 2090 2710 3990
2020-05-23 11:45 7.36 4130 20500 (1957) 414 (1936) 1760 510 756 859 921 1330 1840 2090 2710 3990
2020-05-23 10:45 7.35 4120 20500 (1957) 414 (1936) 1760 510 756 859 921 1330 1840 2090 2710 3990
2020-05-23 09:45 7.34 4110 20500 (1957) 414 (1936) 1760 510 756 859 921 1330 1840 2090 2710 3990
2020-05-23 08:45 7.34 4110 20500 (1957) 414 (1936) 1760 510 756 859 921 1330 1840 2090 2710 3990
2020-05-23 07:45 7.34 4110 20500 (1957) 414 (1936) 1760 510 756 859 921 1330 1840 2090 2710 3990
2020-05-23 06:45 7.36 4130 20500 (1957) 414 (1936) 1760 510 756 859 921 1330 1840 2090 2710 3990
2020-05-23 05:45 7.40 4170 20500 (1957) 414 (1936) 1760 510 756 859 921 1330 1840 2090 2710 3990
2020-05-23 04:45 7.40 4170 20500 (1957) 414 (1936) 1760 510 756 859 921 1330 1840 2090 2710 3990
2020-05-23 03:45 7.41 4180 20500 (1957) 414 (1936) 1760 510 756 859 921 1330 1840 2090 2710 3990
2020-05-23 02:45 7.44 4210 20500 (1957) 414 (1936) 1760 510 756 859 921 1330 1840 2090 2710 3990
2020-05-23 01:45 7.49 4260 20500 (1957) 414 (1936) 1760 510 756 859 921 1330 1840 2090 2710 3990
2020-05-23 00:45 7.51 4280 20500 (1957) 414 (1936) 1760 510 756 859 921 1330 1840 2090 2710 3990
2020-05-22 23:45 7.56 4330 7750 (1979) 410 (1936) 1630 510 752 854 973 1310 1960 2250 2980 4310
2020-05-22 22:45 7.57 4340 7750 (1979) 410 (1936) 1630 510 752 854 973 1310 1960 2250 2980 4310
2020-05-22 21:45 7.56 4330 7750 (1979) 410 (1936) 1630 510 752 854 973 1310 1960 2250 2980 4310
2020-05-22 20:45 7.50 4270 7750 (1979) 410 (1936) 1630 510 752 854 973 1310 1960 2250 2980 4310
2020-05-22 19:45 7.38 4150 7750 (1979) 410 (1936) 1630 510 752 854 973 1310 1960 2250 2980 4310
2020-05-22 18:45 7.25 4020 7750 (1979) 410 (1936) 1630 510 752 854 973 1310 1960 2250 2980 4310
2020-05-22 17:45 7.13 3900 7750 (1979) 410 (1936) 1630 510 752 854 973 1310 1960 2250 2980 4310
2020-05-22 16:45 7.04 3810 7750 (1979) 410 (1936) 1630 510 752 854 973 1310 1960 2250 2980 4310
2020-05-22 15:45 6.98 3760 7750 (1979) 410 (1936) 1630 510 752 854 973 1310 1960 2250 2980 4310
2020-05-22 14:45 6.92 3700 7750 (1979) 410 (1936) 1630 510 752 854 973 1310 1960 2250 2980 4310
2020-05-22 13:45 6.88 3660 7750 (1979) 410 (1936) 1630 510 752 854 973 1310 1960 2250 2980 4310
2020-05-22 12:45 6.90 3680 7750 (1979) 410 (1936) 1630 510 752 854 973 1310 1960 2250 2980 4310
2020-05-22 11:45 6.92 3700 7750 (1979) 410 (1936) 1630 510 752 854 973 1310 1960 2250 2980 4310
2020-05-22 10:45 6.93 3710 7750 (1979) 410 (1936) 1630 510 752 854 973 1310 1960 2250 2980 4310
2020-05-22 09:45 6.94 3720 7750 (1979) 410 (1936) 1630 510 752 854 973 1310 1960 2250 2980 4310
2020-05-22 08:45 6.95 3730 7750 (1979) 410 (1936) 1630 510 752 854 973 1310 1960 2250 2980 4310
2020-05-22 07:45 6.97 3750 7750 (1979) 410 (1936) 1630 510 752 854 973 1310 1960 2250 2980 4310
2020-05-22 06:45 6.99 3770 7750 (1979) 410 (1936) 1630 510 752 854 973 1310 1960 2250 2980 4310
2020-05-22 05:45 7.00 3780 7750 (1979) 410 (1936) 1630 510 752 854 973 1310 1960 2250 2980 4310
2020-05-22 04:45 7.02 3800 7750 (1979) 410 (1936) 1630 510 752 854 973 1310 1960 2250 2980 4310
2020-05-22 03:45 7.03 3810 7750 (1979) 410 (1936) 1630 510 752 854 973 1310 1960 2250 2980 4310
2020-05-22 02:45 7.06 3830 7750 (1979) 410 (1936) 1630 510 752 854 973 1310 1960 2250 2980 4310
2020-05-22 01:45 7.07 3840 7750 (1979) 410 (1936) 1630 510 752 854 973 1310 1960 2250 2980 4310
2020-05-22 00:45 7.09 3860 7750 (1979) 410 (1936) 1630 510 752 854 973 1310 1960 2250 2980 4310
2020-05-21 23:45 7.11 3880 9550 (1979) 440 (1936) 1630 524 758 862 900 1320 1970 2090 2480 3580
2020-05-21 22:45 7.14 3910 9550 (1979) 440 (1936) 1630 524 758 862 900 1320 1970 2090 2480 3580
2020-05-21 21:45 7.15 3920 9550 (1979) 440 (1936) 1630 524 758 862 900 1320 1970 2090 2480 3580
2020-05-21 20:45 7.18 3950 9550 (1979) 440 (1936) 1630 524 758 862 900 1320 1970 2090 2480 3580
2020-05-21 19:45 7.20 3970 9550 (1979) 440 (1936) 1630 524 758 862 900 1320 1970 2090 2480 3580
2020-05-21 18:45 7.23 4000 9550 (1979) 440 (1936) 1630 524 758 862 900 1320 1970 2090 2480 3580
2020-05-21 17:45 7.23 4000 9550 (1979) 440 (1936) 1630 524 758 862 900 1320 1970 2090 2480 3580
2020-05-21 16:45 7.25 4020 9550 (1979) 440 (1936) 1630 524 758 862 900 1320 1970 2090 2480 3580
2020-05-21 15:45 7.27 4040 9550 (1979) 440 (1936) 1630 524 758 862 900 1320 1970 2090 2480 3580
2020-05-21 14:45 7.29 4060 9550 (1979) 440 (1936) 1630 524 758 862 900 1320 1970 2090 2480 3580
2020-05-21 13:45 7.33 4100 9550 (1979) 440 (1936) 1630 524 758 862 900 1320 1970 2090 2480 3580
2020-05-21 12:45 7.34 4110 9550 (1979) 440 (1936) 1630 524 758 862 900 1320 1970 2090 2480 3580
2020-05-21 11:45 7.36 4130 9550 (1979) 440 (1936) 1630 524 758 862 900 1320 1970 2090 2480 3580
2020-05-21 10:45 7.37 4140 9550 (1979) 440 (1936) 1630 524 758 862 900 1320 1970 2090 2480 3580
2020-05-21 09:45 7.40 4170 9550 (1979) 440 (1936) 1630 524 758 862 900 1320 1970 2090 2480 3580
2020-05-21 08:45 7.44 4210 9550 (1979) 440 (1936) 1630 524 758 862 900 1320 1970 2090 2480 3580
2020-05-21 07:45 7.45 4220 9550 (1979) 440 (1936) 1630 524 758 862 900 1320 1970 2090 2480 3580
2020-05-21 06:45 7.49 4260 9550 (1979) 440 (1936) 1630 524 758 862 900 1320 1970 2090 2480 3580
2020-05-21 05:45 7.52 4290 9550 (1979) 440 (1936) 1630 524 758 862 900 1320 1970 2090 2480 3580
2020-05-21 04:45 7.54 4310 9550 (1979) 440 (1936) 1630 524 758 862 900 1320 1970 2090 2480 3580
2020-05-21 03:45 7.58 4350 9550 (1979) 440 (1936) 1630 524 758 862 900 1320 1970 2090 2480 3580
2020-05-21 02:45 7.60 4370 9550 (1979) 440 (1936) 1630 524 758 862 900 1320 1970 2090 2480 3580
2020-05-21 01:45 7.64 4410 9550 (1979) 440 (1936) 1630 524 758 862 900 1320 1970 2090 2480 3580
2020-05-21 00:45 7.66 4430 9550 (1979) 440 (1936) 1630 524 758 862 900 1320 1970 2090 2480 3580
2020-05-20 23:45 7.70 4470 4120 (1950) 440 (1936) 1570 570 768 890 921 1340 2090 2160 2640 3550
2020-05-20 22:45 7.73 4500 4120 (1950) 440 (1936) 1570 570 768 890 921 1340 2090 2160 2640 3550
2020-05-20 21:45 7.76 4530 4120 (1950) 440 (1936) 1570 570 768 890 921 1340 2090 2160 2640 3550
2020-05-20 20:45 7.79 4560 4120 (1950) 440 (1936) 1570 570 768 890 921 1340 2090 2160 2640 3550
2020-05-20 19:45 7.82 4590 4120 (1950) 440 (1936) 1570 570 768 890 921 1340 2090 2160 2640 3550
2020-05-20 18:45 7.84 4610 4120 (1950) 440 (1936) 1570 570 768 890 921 1340 2090 2160 2640 3550
2020-05-20 17:45 7.88 4650 4120 (1950) 440 (1936) 1570 570 768 890 921 1340 2090 2160 2640 3550
2020-05-20 16:45 7.94 4710 4120 (1950) 440 (1936) 1570 570 768 890 921 1340 2090 2160 2640 3550
2020-05-20 15:45 7.95 4720 4120 (1950) 440 (1936) 1570 570 768 890 921 1340 2090 2160 2640 3550
2020-05-20 14:45 7.99 4750 4120 (1950) 440 (1936) 1570 570 768 890 921 1340 2090 2160 2640 3550
2020-05-20 13:45 8.05 4810 4120 (1950) 440 (1936) 1570 570 768 890 921 1340 2090 2160 2640 3550
2020-05-20 12:45 8.08 4840 4120 (1950) 440 (1936) 1570 570 768 890 921 1340 2090 2160 2640 3550
2020-05-20 11:45 8.13 4890 4120 (1950) 440 (1936) 1570 570 768 890 921 1340 2090 2160 2640 3550
2020-05-20 10:45 8.16 4920 4120 (1950) 440 (1936) 1570 570 768 890 921 1340 2090 2160 2640 3550
2020-05-20 09:45 8.21 4970 4120 (1950) 440 (1936) 1570 570 768 890 921 1340 2090 2160 2640 3550
2020-05-20 08:45 8.25 5000 4120 (1950) 440 (1936) 1570 570 768 890 921 1340 2090 2160 2640 3550
2020-05-20 07:45 8.30 5050 4120 (1950) 440 (1936) 1570 570 768 890 921 1340 2090 2160 2640 3550
2020-05-20 06:45 8.34 5090 4120 (1950) 440 (1936) 1570 570 768 890 921 1340 2090 2160 2640 3550
2020-05-20 05:45 8.39 5140 4120 (1950) 440 (1936) 1570 570 768 890 921 1340 2090 2160 2640 3550
2020-05-20 04:45 8.44 5190 4120 (1950) 440 (1936) 1570 570 768 890 921 1340 2090 2160 2640 3550
2020-05-20 03:45 8.50 5250 4120 (1950) 440 (1936) 1570 570 768 890 921 1340 2090 2160 2640 3550
2020-05-20 02:45 8.58 5330 4120 (1950) 440 (1936) 1570 570 768 890 921 1340 2090 2160 2640 3550
2020-05-20 01:45 8.62 5370 4120 (1950) 440 (1936) 1570 570 768 890 921 1340 2090 2160 2640 3550
2020-05-20 00:45 8.69 5440 4120 (1950) 440 (1936) 1570 570 768 890 921 1340 2090 2160 2640 3550
2020-05-19 23:45 8.75 5500 5530 (2002) 440 (1936) 1570 547 701 905 921 1340 2090 2230 2610 3030
2020-05-19 22:45 8.81 5560 5530 (2002) 440 (1936) 1570 547 701 905 921 1340 2090 2230 2610 3030
2020-05-19 21:45 8.90 5650 5530 (2002) 440 (1936) 1570 547 701 905 921 1340 2090 2230 2610 3030
2020-05-19 20:45 8.97 5720 5530 (2002) 440 (1936) 1570 547 701 905 921 1340 2090 2230 2610 3030
2020-05-19 19:45 9.05 5810 5530 (2002) 440 (1936) 1570 547 701 905 921 1340 2090 2230 2610 3030
2020-05-19 18:45 9.15 5910 5530 (2002) 440 (1936) 1570 547 701 905 921 1340 2090 2230 2610 3030
2020-05-19 17:45 9.27 6040 5530 (2002) 440 (1936) 1570 547 701 905 921 1340 2090 2230 2610 3030
2020-05-19 16:45 9.39 6160 5530 (2002) 440 (1936) 1570 547 701 905 921 1340 2090 2230 2610 3030
2020-05-19 15:45 9.52 6300 5530 (2002) 440 (1936) 1570 547 701 905 921 1340 2090 2230 2610 3030
2020-05-19 14:45 9.69 6480 5530 (2002) 440 (1936) 1570 547 701 905 921 1340 2090 2230 2610 3030
2020-05-19 13:45 9.86 6660 5530 (2002) 440 (1936) 1570 547 701 905 921 1340 2090 2230 2610 3030
2020-05-19 12:45 10.08 6900 5530 (2002) 440 (1936) 1570 547 701 905 921 1340 2090 2230 2610 3030
2020-05-19 11:45 10.30 7140 5530 (2002) 440 (1936) 1570 547 701 905 921 1340 2090 2230 2610 3030
2020-05-19 10:45 10.59 7460 5530 (2002) 440 (1936) 1570 547 701 905 921 1340 2090 2230 2610 3030
2020-05-19 09:45 10.93 7850 5530 (2002) 440 (1936) 1570 547 701 905 921 1340 2090 2230 2610 3030
2020-05-19 08:45 11.29 8270 5530 (2002) 440 (1936) 1570 547 701 905 921 1340 2090 2230 2610 3030
2020-05-19 07:45 11.68 8730 5530 (2002) 440 (1936) 1570 547 701 905 921 1340 2090 2230 2610 3030
2020-05-19 06:45 12.06 9250 5530 (2002) 440 (1936) 1570 547 701 905 921 1340 2090 2230 2610 3030
2020-05-19 05:45 12.42 9760 5530 (2002) 440 (1936) 1570 547 701 905 921 1340 2090 2230 2610 3030
2020-05-19 04:45 12.75 10200 5530 (2002) 440 (1936) 1570 547 701 905 921 1340 2090 2230 2610 3030
2020-05-19 03:45 13.01 10600 5530 (2002) 440 (1936) 1570 547 701 905 921 1340 2090 2230 2610 3030
2020-05-19 02:45 13.19 10900 5530 (2002) 440 (1936) 1570 547 701 905 921 1340 2090 2230 2610 3030
2020-05-19 01:45 13.31 11100 5530 (2002) 440 (1936) 1570 547 701 905 921 1340 2090 2230 2610 3030
2020-05-19 00:45 13.38 11200 5530 (2002) 440 (1936) 1570 547 701 905 921 1340 2090 2230 2610 3030
2020-05-18 23:45 13.37 11200 8560 (2002) 423 (2001) 1660 570 737 921 952 1420 2120 2300 2780 3160
2020-05-18 22:45 13.34 11100 8560 (2002) 423 (2001) 1660 570 737 921 952 1420 2120 2300 2780 3160
2020-05-18 21:45 13.28 11000 8560 (2002) 423 (2001) 1660 570 737 921 952 1420 2120 2300 2780 3160
2020-05-18 20:45 13.18 10900 8560 (2002) 423 (2001) 1660 570 737 921 952 1420 2120 2300 2780 3160
2020-05-18 19:45 13.08 10700 8560 (2002) 423 (2001) 1660 570 737 921 952 1420 2120 2300 2780 3160
2020-05-18 18:45 12.99 10600 8560 (2002) 423 (2001) 1660 570 737 921 952 1420 2120 2300 2780 3160
2020-05-18 17:45 12.88 10400 8560 (2002) 423 (2001) 1660 570 737 921 952 1420 2120 2300 2780 3160
2020-05-18 16:45 12.78 10300 8560 (2002) 423 (2001) 1660 570 737 921 952 1420 2120 2300 2780 3160
2020-05-18 15:45 12.68 10100 8560 (2002) 423 (2001) 1660 570 737 921 952 1420 2120 2300 2780 3160
2020-05-18 14:45 12.56 9960 8560 (2002) 423 (2001) 1660 570 737 921 952 1420 2120 2300 2780 3160
2020-05-18 13:45 12.46 9810 8560 (2002) 423 (2001) 1660 570 737 921 952 1420 2120 2300 2780 3160
2020-05-18 12:45 12.35 9660 8560 (2002) 423 (2001) 1660 570 737 921 952 1420 2120 2300 2780 3160
2020-05-18 11:45 12.24 9500 8560 (2002) 423 (2001) 1660 570 737 921 952 1420 2120 2300 2780 3160
2020-05-18 10:45 12.14 9360 8560 (2002) 423 (2001) 1660 570 737 921 952 1420 2120 2300 2780 3160
2020-05-18 09:45 12.03 9210 8560 (2002) 423 (2001) 1660 570 737 921 952 1420 2120 2300 2780 3160
2020-05-18 08:45 11.97 9120 8560 (2002) 423 (2001) 1660 570 737 921 952 1420 2120 2300 2780 3160
2020-05-18 07:45 11.84 8940 8560 (2002) 423 (2001) 1660 570 737 921 952 1420 2120 2300 2780 3160
2020-05-18 06:45 11.72 8780 8560 (2002) 423 (2001) 1660 570 737 921 952 1420 2120 2300 2780 3160
2020-05-18 05:45 11.63 8670 8560 (2002) 423 (2001) 1660 570 737 921 952 1420 2120 2300 2780 3160
2020-05-18 04:45 11.53 8550 8560 (2002) 423 (2001) 1660 570 737 921 952 1420 2120 2300 2780 3160
2020-05-18 03:45 11.44 8440 8560 (2002) 423 (2001) 1660 570 737 921 952 1420 2120 2300 2780 3160
2020-05-18 02:45 11.39 8380 8560 (2002) 423 (2001) 1660 570 737 921 952 1420 2120 2300 2780 3160
2020-05-18 01:45 11.33 8310 8560 (2002) 423 (2001) 1660 570 737 921 952 1420 2120 2300 2780 3160
2020-05-18 00:45 11.31 8290 8560 (2002) 423 (2001) 1660 570 737 921 952 1420 2120 2300 2780 3160
2020-05-17 23:45 11.32 8300 5920 (1933) 414 (1936) 1720 570 719 913 952 1410 2120 2370 3200 4000
2020-05-17 22:45 11.36 8350 5920 (1933) 414 (1936) 1720 570 719 913 952 1410 2120 2370 3200 4000
2020-05-17 21:45 11.41 8410 5920 (1933) 414 (1936) 1720 570 719 913 952 1410 2120 2370 3200 4000
2020-05-17 20:45 11.44 8440 5920 (1933) 414 (1936) 1720 570 719 913 952 1410 2120 2370 3200 4000
2020-05-17 19:45 11.45 8450 5920 (1933) 414 (1936) 1720 570 719 913 952 1410 2120 2370 3200 4000
2020-05-17 18:45 11.47 8480 5920 (1933) 414 (1936) 1720 570 719 913 952 1410 2120 2370 3200 4000
2020-05-17 17:45 11.50 8510 5920 (1933) 414 (1936) 1720 570 719 913 952 1410 2120 2370 3200 4000
2020-05-17 16:45 11.48 8490 5920 (1933) 414 (1936) 1720 570 719 913 952 1410 2120 2370 3200 4000
2020-05-17 15:45 11.42 8420 5920 (1933) 414 (1936) 1720 570 719 913 952 1410 2120 2370 3200 4000
2020-05-17 14:45 11.39 8380 5920 (1933) 414 (1936) 1720 570 719 913 952 1410 2120 2370 3200 4000
2020-05-17 13:45 11.34 8320 5920 (1933) 414 (1936) 1720 570 719 913 952 1410 2120 2370 3200 4000
2020-05-17 12:45 11.24 8210 5920 (1933) 414 (1936) 1720 570 719 913 952 1410 2120 2370 3200 4000
2020-05-17 11:45 11.15 8100 5920 (1933) 414 (1936) 1720 570 719 913 952 1410 2120 2370 3200 4000
2020-05-17 10:45 11.02 7950 5920 (1933) 414 (1936) 1720 570 719 913 952 1410 2120 2370 3200 4000
2020-05-17 09:45 10.87 7780 5920 (1933) 414 (1936) 1720 570 719 913 952 1410 2120 2370 3200 4000
2020-05-17 08:45 10.71 7600 5920 (1933) 414 (1936) 1720 570 719 913 952 1410 2120 2370 3200 4000
2020-05-17 07:45 10.54 7410 5920 (1933) 414 (1936) 1720 570 719 913 952 1410 2120 2370 3200 4000
2020-05-17 06:45 10.40 7250 5920 (1933) 414 (1936) 1720 570 719 913 952 1410 2120 2370 3200 4000
2020-05-17 05:45 10.24 7070 5920 (1933) 414 (1936) 1720 570 719 913 952 1410 2120 2370 3200 4000
2020-05-17 04:45 10.07 6890 5920 (1933) 414 (1936) 1720 570 719 913 952 1410 2120 2370 3200 4000
2020-05-17 03:45 9.90 6700 5920 (1933) 414 (1936) 1720 570 719 913 952 1410 2120 2370 3200 4000
2020-05-17 02:45 9.66 6450 5920 (1933) 414 (1936) 1720 570 719 913 952 1410 2120 2370 3200 4000
2020-05-17 01:45 9.39 6160 5920 (1933) 414 (1936) 1720 570 719 913 952 1410 2120 2370 3200 4000
2020-05-17 00:45 9.09 5850 5920 (1933) 414 (1936) 1720 570 719 913 952 1410 2120 2370 3200 4000
2020-05-16 23:45 8.86 5610 10700 (1968) 426 (2001) 1930 552 743 925 983 1430 2320 2570 3160 3480
2020-05-16 22:45 8.65 5400 10700 (1968) 426 (2001) 1930 552 743 925 983 1430 2320 2570 3160 3480
2020-05-16 21:45 8.46 5210 10700 (1968) 426 (2001) 1930 552 743 925 983 1430 2320 2570 3160 3480
2020-05-16 20:45 8.35 5100 10700 (1968) 426 (2001) 1930 552 743 925 983 1430 2320 2570 3160 3480
2020-05-16 19:45 8.34 5090 10700 (1968) 426 (2001) 1930 552 743 925 983 1430 2320 2570 3160 3480
2020-05-16 18:45 8.34 5090 10700 (1968) 426 (2001) 1930 552 743 925 983 1430 2320 2570 3160 3480
2020-05-16 17:45 8.36 5110 10700 (1968) 426 (2001) 1930 552 743 925 983 1430 2320 2570 3160 3480
2020-05-16 16:45 8.39 5140 10700 (1968) 426 (2001) 1930 552 743 925 983 1430 2320 2570 3160 3480
2020-05-16 15:45 8.42 5170 10700 (1968) 426 (2001) 1930 552 743 925 983 1430 2320 2570 3160 3480
2020-05-16 14:45 8.40 5150 10700 (1968) 426 (2001) 1930 552 743 925 983 1430 2320 2570 3160 3480
2020-05-16 13:45 8.43 5180 10700 (1968) 426 (2001) 1930 552 743 925 983 1430 2320 2570 3160 3480
2020-05-16 12:45 8.44 5190 10700 (1968) 426 (2001) 1930 552 743 925 983 1430 2320 2570 3160 3480
2020-05-16 11:45 8.46 5210 10700 (1968) 426 (2001) 1930 552 743 925 983 1430 2320 2570 3160 3480
2020-05-16 10:45 8.49 5240 10700 (1968) 426 (2001) 1930 552 743 925 983 1430 2320 2570 3160 3480
2020-05-16 09:45 8.49 5240 10700 (1968) 426 (2001) 1930 552 743 925 983 1430 2320 2570 3160 3480
2020-05-16 08:45 8.50 5250 10700 (1968) 426 (2001) 1930 552 743 925 983 1430 2320 2570 3160 3480
2020-05-16 07:45 8.52 5270 10700 (1968) 426 (2001) 1930 552 743 925 983 1430 2320 2570 3160 3480
2020-05-16 06:45 8.53 5280 10700 (1968) 426 (2001) 1930 552 743 925 983 1430 2320 2570 3160 3480
2020-05-16 05:45 8.50 5250 10700 (1968) 426 (2001) 1930 552 743 925 983 1430 2320 2570 3160 3480
2020-05-16 04:45 8.47 5220 10700 (1968) 426 (2001) 1930 552 743 925 983 1430 2320 2570 3160 3480
2020-05-16 03:45 8.37 5120 10700 (1968) 426 (2001) 1930 552 743 925 983 1430 2320 2570 3160 3480
2020-05-16 02:45 8.25 5000 10700 (1968) 426 (2001) 1930 552 743 925 983 1430 2320 2570 3160 3480
2020-05-16 01:45 8.14 4900 10700 (1968) 426 (2001) 1930 552 743 925 983 1430 2320 2570 3160 3480
2020-05-16 00:45 8.02 4780 10700 (1968) 426 (2001) 1930 552 743 925 983 1430 2320 2570 3160 3480
2020-05-15 23:45 7.95 4720 9100 (1933) 433 (2001) 1820 570 779 970 1050 1420 2240 2580 3130 3760
2020-05-15 22:45 7.92 4690 9100 (1933) 433 (2001) 1820 570 779 970 1050 1420 2240 2580 3130 3760
2020-05-15 21:45 7.90 4670 9100 (1933) 433 (2001) 1820 570 779 970 1050 1420 2240 2580 3130 3760
2020-05-15 20:45 7.91 4680 9100 (1933) 433 (2001) 1820 570 779 970 1050 1420 2240 2580 3130 3760
2020-05-15 19:45 7.92 4690 9100 (1933) 433 (2001) 1820 570 779 970 1050 1420 2240 2580 3130 3760
2020-05-15 18:45 7.92 4690 9100 (1933) 433 (2001) 1820 570 779 970 1050 1420 2240 2580 3130 3760
2020-05-15 17:45 7.91 4680 9100 (1933) 433 (2001) 1820 570 779 970 1050 1420 2240 2580 3130 3760
2020-05-15 16:45 7.86 4630 9100 (1933) 433 (2001) 1820 570 779 970 1050 1420 2240 2580 3130 3760
2020-05-15 15:45 7.78 4550 9100 (1933) 433 (2001) 1820 570 779 970 1050 1420 2240 2580 3130 3760
2020-05-15 14:45 7.67 4440 9100 (1933) 433 (2001) 1820 570 779 970 1050 1420 2240 2580 3130 3760
2020-05-15 13:45 7.58 4350 9100 (1933) 433 (2001) 1820 570 779 970 1050 1420 2240 2580 3130 3760
2020-05-15 12:45 7.53 4300 9100 (1933) 433 (2001) 1820 570 779 970 1050 1420 2240 2580 3130 3760
2020-05-15 11:45 7.49 4260 9100 (1933) 433 (2001) 1820 570 779 970 1050 1420 2240 2580 3130 3760
2020-05-15 10:45 7.40 4170 9100 (1933) 433 (2001) 1820 570 779 970 1050 1420 2240 2580 3130 3760
2020-05-15 09:45 7.43 4200 9100 (1933) 433 (2001) 1820 570 779 970 1050 1420 2240 2580 3130 3760
2020-05-15 08:45 7.45 4220 9100 (1933) 433 (2001) 1820 570 779 970 1050 1420 2240 2580 3130 3760
2020-05-15 07:45 7.49 4260 9100 (1933) 433 (2001) 1820 570 779 970 1050 1420 2240 2580 3130 3760
2020-05-15 06:45 7.53 4300 9100 (1933) 433 (2001) 1820 570 779 970 1050 1420 2240 2580 3130 3760
2020-05-15 05:45 7.61 4380 9100 (1933) 433 (2001) 1820 570 779 970 1050 1420 2240 2580 3130 3760
2020-05-15 04:45 7.66 4430 9100 (1933) 433 (2001) 1820 570 779 970 1050 1420 2240 2580 3130 3760
2020-05-15 03:45 7.69 4460 9100 (1933) 433 (2001) 1820 570 779 970 1050 1420 2240 2580 3130 3760
2020-05-15 02:45 7.75 4520 9100 (1933) 433 (2001) 1820 570 779 970 1050 1420 2240 2580 3130 3760
2020-05-15 01:45 7.80 4570 9100 (1933) 433 (2001) 1820 570 779 970 1050 1420 2240 2580 3130 3760
2020-05-15 00:45 7.84 4610 9100 (1933) 433 (2001) 1820 570 779 970 1050 1420 2240 2580 3130 3760
2020-05-14 23:45 7.88 4650 8170 (2002) 420 (1963) 1840 522 674 946 1060 1460 2100 2620 3440 4560
2020-05-14 22:45 7.91 4680 8170 (2002) 420 (1963) 1840 522 674 946 1060 1460 2100 2620 3440 4560
2020-05-14 21:45 7.92 4690 8170 (2002) 420 (1963) 1840 522 674 946 1060 1460 2100 2620 3440 4560
2020-05-14 20:45 7.94 4710 8170 (2002) 420 (1963) 1840 522 674 946 1060 1460 2100 2620 3440 4560
2020-05-14 19:45 7.97 4730 8170 (2002) 420 (1963) 1840 522 674 946 1060 1460 2100 2620 3440 4560
2020-05-14 18:45 8.01 4770 8170 (2002) 420 (1963) 1840 522 674 946 1060 1460 2100 2620 3440 4560
2020-05-14 17:45 8.08 4840 8170 (2002) 420 (1963) 1840 522 674 946 1060 1460 2100 2620 3440 4560
2020-05-14 16:45 8.18 4940 8170 (2002) 420 (1963) 1840 522 674 946 1060 1460 2100 2620 3440 4560
2020-05-14 15:45 8.26 5010 8170 (2002) 420 (1963) 1840 522 674 946 1060 1460 2100 2620 3440 4560
2020-05-14 14:45 8.37 5120 8170 (2002) 420 (1963) 1840 522 674 946 1060 1460 2100 2620 3440 4560
2020-05-14 13:45 8.47 5220 8170 (2002) 420 (1963) 1840 522 674 946 1060 1460 2100 2620 3440 4560
2020-05-14 12:45 8.54 5290 8170 (2002) 420 (1963) 1840 522 674 946 1060 1460 2100 2620 3440 4560
2020-05-14 11:45 8.60 5350 8170 (2002) 420 (1963) 1840 522 674 946 1060 1460 2100 2620 3440 4560
2020-05-14 10:45 8.63 5380 8170 (2002) 420 (1963) 1840 522 674 946 1060 1460 2100 2620 3440 4560
2020-05-14 09:45 8.60 5350 8170 (2002) 420 (1963) 1840 522 674 946 1060 1460 2100 2620 3440 4560
2020-05-14 08:45 8.54 5290 8170 (2002) 420 (1963) 1840 522 674 946 1060 1460 2100 2620 3440 4560
2020-05-14 07:45 8.45 5200 8170 (2002) 420 (1963) 1840 522 674 946 1060 1460 2100 2620 3440 4560
2020-05-14 06:45 8.32 5070 8170 (2002) 420 (1963) 1840 522 674 946 1060 1460 2100 2620 3440 4560
2020-05-14 05:45 8.20 4960 8170 (2002) 420 (1963) 1840 522 674 946 1060 1460 2100 2620 3440 4560
2020-05-14 04:45 8.05 4810 8170 (2002) 420 (1963) 1840 522 674 946 1060 1460 2100 2620 3440 4560
2020-05-14 03:45 7.87 4640 8170 (2002) 420 (1963) 1840 522 674 946 1060 1460 2100 2620 3440 4560
2020-05-14 02:45 7.69 4460 8170 (2002) 420 (1963) 1840 522 674 946 1060 1460 2100 2620 3440 4560
2020-05-14 01:45 7.50 4270 8170 (2002) 420 (1963) 1840 522 674 946 1060 1460 2100 2620 3440 4560
2020-05-14 00:45 7.35 4120 8170 (2002) 420 (1963) 1840 522 674 946 1060 1460 2100 2620 3440 4560

A total of 2213 rows are displayed for years 1930 through 2016.